[[{"header":{"parameterUnit":"m.s-1","parameterCategory":1,"la1":30.6,"la2":28.766,"lo1":-90.7593,"lo2":-88.6598,"dy":0.0162,"dx":0.0183,"nx":116,"ny":114,"refTime":"2023-11-10T18:00:00:Z","depth":0,"parameterNumber":2,"parameterNumberName":"U-component_of_WINDS"},"data":[0.0,0.0,0.0,0.0,0.0,0.0,0.0,0.0,0.0,0.0,0.0,0.0,0.0,0.0,0.0,0.0,0.0,0.0,0.0,0.0,0.0,0.0,0.0,0.0,0.0,0.0,0.0,0.0,0.0,0.0,0.0,0.0,0.0,0.0,0.0,0.0,0.0,0.0,0.0,0.0,0.0,0.0,0.0,0.0,0.0,0.0,0.0,0.0,0.0,0.0,0.0,0.0,0.0,0.0,0.0,0.0,0.0,0.0,0.0,0.0,0.0,0.0,0.0,0.0,0.0,0.0,0.0,0.0,0.0,0.0,0.0,0.0,0.0,0.0,0.0,0.0,0.0,0.0,0.0,0.0,0.0,0.0,0.0,0.0,0.0,0.0,0.0,0.0,0.0,0.0,0.0,0.0,0.0,0.0,0.0,0.0,0.0,0.0,0.0,0.0,0.0,0.0,0.0,0.0,0.0,0.0,0.0,0.0,0.0,0.0,0.0,0.0,0.0,0.0,0.0,0.0,0.0,0.0,0.0,0.0,0.0,0.0,0.0,0.0,0.0,0.0,0.0,0.0,0.0,0.0,0.0,0.0,0.0,0.0,0.0,0.0,0.0,0.0,0.0,0.0,0.0,0.0,0.0,0.0,0.0,0.0,0.0,0.0,0.0,0.0,0.0,0.0,0.0,0.0,0.0,0.0,0.0,0.0,0.0,0.0,0.0,0.0,0.0,0.0,0.0,0.0,0.0,0.0,0.0,0.0,0.0,0.0,0.0,0.0,0.0,0.0,0.0,0.0,0.0,0.0,0.0,0.0,0.0,0.0,0.0,0.0,0.0,0.0,0.0,0.0,0.0,0.0,0.0,0.0,0.0,0.0,0.0,0.0,0.0,0.0,0.0,0.0,0.0,0.0,0.0,0.0,0.0,0.0,0.0,0.0,0.0,0.0,0.0,0.0,0.0,0.0,0.0,0.0,0.0,0.0,0.0,0.0,0.0,0.0,0.0,0.0,0.0,0.0,0.0,0.0,0.0,0.0,0.0,0.0,0.0,0.0,0.0,0.0,0.0,0.0,0.0,0.0,0.0,0.0,0.0,0.0,0.0,0.0,0.0,0.0,0.0,0.0,0.0,0.0,0.0,0.0,0.0,0.0,0.0,0.0,0.0,0.0,0.0,0.0,0.0,0.0,0.0,0.0,0.0,0.0,0.0,0.0,0.0,0.0,0.0,0.0,0.0,0.0,0.0,0.0,0.0,0.0,0.0,0.0,0.0,0.0,0.0,0.0,0.0,0.0,0.0,0.0,0.0,0.0,0.0,0.0,0.0,0.0,0.0,0.0,0.0,0.0,0.0,0.0,0.0,0.0,0.0,0.0,0.0,0.0,0.0,0.0,0.0,0.0,0.0,0.0,0.0,0.0,0.0,0.0,0.0,0.0,0.0,0.0,0.0,0.0,0.0,0.0,0.0,0.0,0.0,0.0,0.0,0.0,0.0,0.0,0.0,0.0,0.0,0.0,0.0,0.0,0.0,0.0,0.0,0.0,0.0,0.0,0.0,0.0,0.0,0.0,0.0,0.0,0.0,0.0,0.0,0.0,0.0,0.0,0.0,0.0,0.0,0.0,0.0,0.0,0.0,0.0,0.0,0.0,0.0,0.0,0.0,0.0,0.0,0.0,0.0,0.0,0.0,0.0,0.0,0.0,0.0,0.0,0.0,0.0,0.0,0.0,0.0,0.0,0.0,0.0,0.0,0.0,0.0,0.0,0.0,0.0,0.0,0.0,0.0,0.0,0.0,0.0,0.0,0.0,0.0,0.0,0.0,0.0,0.0,0.0,0.0,0.0,0.0,0.0,0.0,0.0,0.0,0.0,0.0,0.0,0.0,0.0,0.0,0.0,0.0,0.0,0.0,0.0,0.0,0.0,0.0,0.0,0.0,0.0,0.0,0.0,0.0,0.0,0.0,0.0,0.0,0.0,0.0,0.0,0.0,0.0,0.0,0.0,0.0,0.0,0.0,0.0,0.0,0.0,0.0,0.0,0.0,0.0,0.0,0.0,0.0,0.0,0.0,0.0,0.0,0.0,0.0,0.0,0.0,0.0,0.0,0.0,0.0,0.0,0.0,0.0,0.0,0.0,0.0,0.0,0.0,0.0,0.0,0.0,0.0,0.0,0.0,0.0,0.0,0.0,0.0,0.0,0.0,0.0,0.0,0.0,0.0,0.0,0.0,0.0,0.0,0.0,0.0,0.0,0.0,0.0,0.0,0.0,0.0,0.0,0.0,0.0,0.0,0.0,0.0,0.0,0.0,0.0,0.0,0.0,0.0,0.0,0.0,0.0,0.0,0.0,0.0,0.0,0.0,0.0,0.0,0.0,0.0,0.0,0.0,0.0,0.0,0.0,0.0,0.0,0.0,0.0,0.0,0.0,0.0,0.0,0.0,0.0,0.0,0.0,0.0,0.0,0.0,0.0,0.0,0.0,0.0,0.0,0.0,0.0,0.0,0.0,0.0,0.0,0.0,0.0,0.0,0.0,0.0,0.0,0.0,0.0,0.0,0.0,0.0,0.0,0.0,0.0,0.0,0.0,0.0,0.0,0.0,0.0,0.0,0.0,0.0,0.0,0.0,0.0,0.0,0.0,0.0,0.0,0.0,0.0,0.0,0.0,0.0,0.0,0.0,0.0,0.0,0.0,0.0,0.0,0.0,0.0,0.0,0.0,0.0,0.0,0.0,0.0,0.0,0.0,0.0,0.0,0.0,0.0,0.0,0.0,0.0,0.0,0.0,0.0,0.0,0.0,0.0,0.0,0.0,0.0,0.0,0.0,0.0,0.0,0.0,0.0,0.0,0.0,0.0,0.0,0.0,0.0,0.0,0.0,0.0,0.0,0.0,0.0,0.0,0.0,0.0,0.0,0.0,0.0,0.0,0.0,0.0,0.0,0.0,0.0,0.0,0.0,0.0,0.0,0.0,0.0,0.0,0.0,0.0,0.0,0.0,0.0,0.0,0.0,0.0,0.0,0.0,0.0,0.0,0.0,0.0,0.0,0.0,0.0,0.0,0.0,0.0,0.0,0.0,0.0,0.0,0.0,0.0,0.0,0.0,0.0,0.0,0.0,0.0,0.0,0.0,0.0,0.0,0.0,0.0,0.0,0.0,0.0,0.0,0.0,0.0,0.0,0.0,0.0,0.0,0.0,0.0,0.0,0.0,0.0,0.0,0.0,0.0,0.0,0.0,0.0,0.0,0.0,0.0,0.0,0.0,0.0,0.0,0.0,0.0,0.0,0.0,0.0,0.0,0.0,0.0,0.0,0.0,0.0,0.0,0.0,0.0,0.0,0.0,0.0,0.0,0.0,0.0,0.0,0.0,0.0,0.0,0.0,0.0,0.0,0.0,0.0,0.0,0.0,0.0,0.0,0.0,0.0,0.0,0.0,0.0,0.0,0.0,0.0,0.0,0.0,0.0,0.0,0.0,0.0,0.0,0.0,0.0,0.0,0.0,0.0,0.0,0.0,0.0,0.0,0.0,0.0,0.0,0.0,0.0,0.0,0.0,0.0,0.0,0.0,0.0,0.0,0.0,0.0,0.0,0.0,0.0,0.0,0.0,0.0,0.0,0.0,0.0,0.0,0.0,0.0,0.0,0.0,0.0,0.0,0.0,0.0,0.0,0.0,0.0,0.0,0.0,0.0,0.0,0.0,0.0,0.0,0.0,0.0,0.0,0.0,0.0,0.0,0.0,0.0,0.0,0.0,0.0,0.0,0.0,0.0,0.0,0.0,0.0,0.0,0.0,0.0,0.0,0.0,0.0,0.0,0.0,0.0,0.0,0.0,0.0,0.0,0.0,0.0,0.0,0.0,0.0,0.0,0.0,0.0,0.0,0.0,0.0,0.0,0.0,0.0,0.0,0.0,0.0,0.0,0.0,0.0,0.0,0.0,0.0,0.0,0.0,0.0,0.0,0.0,0.0,0.0,0.0,0.0,0.0,0.0,0.0,0.0,0.0,0.0,0.0,0.0,0.0,0.0,0.0,0.0,0.0,0.0,0.0,0.0,0.0,0.0,0.0,0.0,0.0,0.0,0.0,0.0,0.0,0.0,0.0,0.0,0.0,0.0,0.0,0.0,0.0,0.0,0.0,0.0,0.0,0.0,0.0,0.0,0.0,0.0,0.0,0.0,0.0,0.0,0.0,0.0,0.0,0.0,0.0,0.0,0.0,0.0,0.0,0.0,0.0,0.0,0.0,0.0,0.0,0.0,0.0,0.0,0.0,0.0,0.0,0.0,0.0,0.0,0.0,0.0,0.0,0.0,0.0,0.0,0.0,0.0,0.0,0.0,0.0,0.0,0.0,0.0,0.0,0.0,0.0,0.0,0.0,0.0,0.0,0.0,0.0,0.0,0.0,0.0,0.0,0.0,0.0,0.0,0.0,0.0,0.0,0.0,0.0,0.0,0.0,0.0,0.0,0.0,0.0,0.0,0.0,0.0,0.0,0.0,0.0,0.0,0.0,0.0,0.0,0.0,0.0,0.0,0.0,0.0,0.0,0.0,0.0,0.0,0.0,0.0,0.0,0.0,0.0,0.0,0.0,0.0,0.0,0.0,0.0,0.0,0.0,0.0,0.0,0.0,0.0,0.0,0.0,0.0,0.0,0.0,0.0,0.0,0.0,0.0,0.0,0.0,0.0,0.0,0.0,0.0,0.0,0.0,0.0,0.0,0.0,0.0,0.0,0.0,0.0,0.0,0.0,0.0,0.0,0.0,0.0,0.0,0.0,0.0,0.0,0.0,0.0,0.0,0.0,0.0,0.0,0.0,0.0,0.0,0.0,0.0,0.0,0.0,0.0,0.0,0.0,0.0,0.0,0.0,0.0,0.0,0.0,0.0,0.0,0.0,0.0,0.0,0.0,0.0,0.0,0.0,0.0,0.0,0.0,0.0,0.0,0.0,0.0,0.0,0.0,0.0,0.0,0.0,0.0,0.0,0.0,0.0,0.0,0.0,0.0,0.0,0.0,0.0,0.0,0.0,0.0,0.0,0.0,0.0,0.0,0.0,0.0,0.0,0.0,0.0,0.0,0.0,0.0,0.0,0.0,0.0,0.0,0.0,0.0,0.0,0.0,0.0,0.0,0.0,0.0,0.0,0.0,0.0,0.0,0.0,0.0,0.0,0.0,0.0,0.0,0.0,0.0,0.0,0.0,0.0,0.0,0.0,0.0,0.0,0.0,0.0,0.0,0.0,0.0,0.0,0.0,0.0,0.0,0.0,0.0,0.0,0.0,0.0,0.0,0.0,0.0,0.0,0.0,0.0,0.0,0.0,0.0,0.0,0.0,0.0,0.0,0.0,0.0,0.0,0.0,0.0,0.0,0.0,0.0,0.0,0.0,0.0,0.0,0.0,0.0,0.0,0.0,0.0,0.0,0.0,0.0,0.0,0.0,0.0,0.0,0.0,0.0,0.0,0.0,0.0,0.0,0.0,0.0,0.0,0.0,0.0,0.0,0.0,0.0,0.0,0.0,0.0,0.0,0.0,0.0,0.0,0.0,0.0,0.0,0.0,0.0,0.0,0.0,0.0,0.0,0.0,0.0,0.0,0.0,0.0,0.0,0.0,0.0,0.0,0.0,0.0,0.0,0.0,0.0,0.0,0.0,0.0,0.0,0.0,0.0,0.0,0.0,0.0,0.0,0.0,0.0,0.0,0.0,0.0,0.0,0.0,0.0,0.0,0.0,0.0,0.0,0.0,0.0,0.0,0.0,0.0,0.0,0.0,0.0,0.0,0.0,0.0,0.0,0.0,0.0,0.0,0.0,0.0,0.0,0.0,0.0,0.0,0.0,0.0,0.0,0.0,0.0,0.0,0.0,0.0,0.0,0.0,0.0,0.0,0.0,0.0,0.0,0.0,0.0,0.0,0.0,0.0,0.0,0.0,0.0,0.0,0.0,0.0,0.0,0.0,0.0,0.0,0.0,0.0,0.0,0.0,0.0,0.0,0.0,0.0,0.0,0.0,0.0,0.0,0.0,0.0,0.0,0.0,0.0,0.0,0.0,0.0,0.0,0.0,0.0,0.0,0.0,0.0,0.0,0.0,0.0,0.0,0.0,0.0,0.0,0.0,4.3898,0.0,0.0,0.0,0.0,0.0,0.0,0.0,0.0,0.0,0.0,0.0,0.0,0.0,0.0,0.0,0.0,0.0,0.0,0.0,0.0,0.0,0.0,0.0,0.0,4.3497,4.3497,4.3497,4.3497,4.3644,4.4048,4.4488,4.4892,4.5259,4.6067,4.6471,4.6471,4.7278,4.7682,4.7682,4.7776,4.7715,4.7349,4.6952,4.7156,4.7879,0.0,0.0,0.0,0.0,0.0,0.0,0.0,0.0,0.0,0.0,0.0,0.0,0.0,0.0,0.0,0.0,0.0,0.0,0.0,0.0,0.0,0.0,0.0,0.0,0.0,0.0,0.0,0.0,0.0,0.0,0.0,0.0,0.0,0.0,0.0,0.0,0.0,0.0,0.0,0.0,0.0,0.0,0.0,0.0,0.0,0.0,0.0,0.0,0.0,0.0,0.0,0.0,0.0,0.0,0.0,0.0,0.0,0.0,0.0,0.0,0.0,0.0,0.0,0.0,0.0,0.0,0.0,0.0,0.0,0.0,0.0,4.4586,0.0,0.0,0.0,0.0,0.0,0.0,0.0,0.0,0.0,0.0,0.0,0.0,0.0,0.0,0.0,0.0,0.0,0.0,0.0,0.0,0.0,4.3497,4.3497,4.3497,4.3534,4.3681,4.3718,4.4048,4.4856,4.5039,4.5406,4.6067,4.6874,4.7315,4.7315,4.7976,4.8267,4.8114,4.7512,4.691,4.6257,4.6318,4.6635,4.7124,4.7715,0.0,0.0,0.0,0.0,0.0,0.0,0.0,0.0,0.0,0.0,0.0,0.0,0.0,0.0,0.0,0.0,0.0,0.0,0.0,0.0,0.0,0.0,0.0,0.0,0.0,0.0,0.0,0.0,0.0,0.0,0.0,0.0,0.0,0.0,0.0,0.0,0.0,0.0,0.0,0.0,0.0,0.0,0.0,0.0,0.0,0.0,0.0,0.0,0.0,0.0,0.0,0.0,0.0,0.0,0.0,0.0,0.0,0.0,0.0,0.0,0.0,0.0,0.0,4.6478,4.6397,4.5633,4.5633,4.5633,4.5663,4.5753,4.5603,4.5304,4.5424,0.0,0.0,0.0,0.0,0.0,0.0,0.0,0.0,0.0,0.0,0.0,0.0,0.0,0.0,0.0,0.0,0.0,0.0,0.0,4.3497,4.3497,4.3497,4.3791,4.4488,4.4562,4.4892,4.57,4.6397,4.6838,4.6948,4.7719,4.8159,4.8159,4.8269,4.8035,4.7512,4.6864,4.6209,4.5648,4.6125,4.6161,4.58,4.6401,4.6646,4.6646,0.0,0.0,0.0,0.0,0.0,0.0,0.0,0.0,0.0,0.0,0.0,0.0,0.0,0.0,0.0,0.0,0.0,0.0,0.0,0.0,0.0,0.0,0.0,0.0,0.0,0.0,0.0,0.0,0.0,0.0,0.0,0.0,0.0,0.0,0.0,0.0,0.0,0.0,0.0,0.0,0.0,4.2386,4.1505,0.0,0.0,0.0,0.0,0.0,0.0,0.0,0.0,0.0,0.0,0.0,0.0,0.0,4.5574,4.6172,4.6256,4.6556,4.704,4.7212,4.7212,4.704,4.704,4.704,4.707,4.7638,0.0,4.5334,4.5933,0.0,0.0,0.0,0.0,0.0,0.0,0.0,0.0,0.0,0.0,0.0,0.0,0.0,0.0,0.0,0.0,0.0,0.0,0.0,0.0,0.0,4.4158,4.4488,4.5296,4.5369,4.5736,4.6544,4.6911,4.7315,4.7755,4.8122,4.8306,4.8306,4.7995,4.7342,4.6353,4.6014,4.5597,4.4981,4.5267,4.5214,4.5015,4.5267,4.58,4.6365,4.6365,0.0,0.0,0.0,0.0,0.0,0.0,0.0,0.0,0.0,0.0,0.0,0.0,0.0,0.0,0.0,0.0,0.0,0.0,0.0,0.0,0.0,0.0,0.0,0.0,0.0,0.0,0.0,0.0,0.0,0.0,0.0,0.0,0.0,0.0,0.0,0.0,0.0,0.0,0.0,4.5113,4.4782,4.4716,4.5353,4.6013,0.0,0.0,0.0,0.0,0.0,0.0,0.0,0.0,0.0,4.6411,4.677,4.713,4.7429,4.7788,4.8117,4.8416,4.8416,4.8416,4.8416,4.8416,4.8416,4.8416,4.8716,4.8327,4.7549,4.7848,4.7788,4.7461,0.0,0.0,0.0,0.0,4.52,4.5036,0.0,0.0,0.0,0.0,0.0,0.0,0.0,0.0,0.0,0.0,0.0,0.0,4.4635,4.4892,4.5333,4.614,4.6214,4.6544,4.7352,4.7425,4.7682,4.8269,4.8306,4.8306,4.8306,4.7512,4.6589,4.5494,4.5372,4.5035,4.4587,4.4587,4.4587,4.4587,4.4587,4.5089,4.5915,4.5915,4.6014,4.6161,0.0,0.0,0.0,0.0,0.0,0.0,0.0,0.0,0.0,0.0,0.0,0.0,0.0,0.0,0.0,0.0,0.0,0.0,0.0,0.0,0.0,0.0,0.0,0.0,0.0,0.0,0.0,0.0,0.0,0.0,0.0,0.0,0.0,0.0,0.0,0.0,0.0,4.6484,4.6491,4.7139,4.7151,4.7107,0.0,0.0,0.0,0.0,0.0,0.0,4.7166,4.7121,4.7309,4.7788,4.8297,4.8536,4.8536,4.9015,4.9254,4.9254,4.9254,4.9254,4.9254,4.9254,4.9254,4.9284,4.9434,4.9523,4.9494,4.9344,4.9073,4.8679,4.7572,4.6976,4.6498,4.5101,4.4602,4.4428,0.0,0.0,0.0,0.0,0.0,0.0,0.0,0.0,0.0,0.0,0.0,4.4672,4.4709,4.5369,4.6177,4.6985,4.7058,4.7388,4.8196,4.8233,4.8269,4.8306,4.8306,4.8306,4.8306,4.7088,4.6161,4.5494,4.4906,4.4643,4.4587,4.4587,4.4587,4.4587,4.4587,4.4643,4.4665,4.4665,4.5035,4.5545,4.5545,0.0,0.0,0.0,0.0,0.0,0.0,0.0,0.0,0.0,0.0,0.0,0.0,0.0,0.0,0.0,0.0,0.0,0.0,0.0,0.0,0.0,0.0,0.0,0.0,0.0,0.0,0.0,0.0,0.0,0.0,0.0,0.0,0.0,0.0,0.0,0.0,0.0,0.0,4.6827,4.6811,0.0,0.0,0.0,0.0,5.0006,4.8867,4.8524,4.9572,4.9334,4.9134,4.9164,4.9194,4.9224,4.9224,4.9254,4.9254,4.9254,4.9254,4.9254,4.9254,4.9254,4.9254,4.9284,4.9912,5.0182,5.0152,4.9523,4.8466,4.7289,4.7289,4.6401,4.5001,4.3819,4.3333,4.3205,0.0,0.0,0.0,0.0,0.0,4.3497,4.3497,4.3497,4.3681,4.4195,4.4525,4.5112,4.614,4.6507,4.7021,4.7792,4.7865,4.8012,4.8269,4.8306,4.8306,4.8306,4.8306,4.7919,4.7088,4.6257,4.5494,4.4906,4.472,4.4587,4.4587,4.4587,4.4587,4.4587,4.4587,4.4587,4.4587,4.4587,4.472,4.4906,4.4906,4.5196,0.0,0.0,0.0,0.0,0.0,0.0,0.0,0.0,0.0,0.0,0.0,0.0,0.0,0.0,0.0,0.0,0.0,0.0,0.0,0.0,0.0,0.0,0.0,0.0,0.0,0.0,0.0,0.0,0.0,0.0,0.0,0.0,0.0,0.0,0.0,0.0,0.0,4.8288,4.784,0.0,4.8407,4.879,4.9078,4.9021,4.8947,4.9074,4.9486,4.9373,4.9254,4.9254,4.9673,4.9883,4.9883,5.0301,5.0511,5.0511,5.0511,5.0511,5.0511,5.0511,5.0511,5.0541,5.078,5.087,5.0747,4.9698,4.8885,4.8276,4.6459,4.5434,4.4836,4.3506,4.3125,4.3041,0.0,0.0,0.0,0.0,4.3497,4.3497,4.3497,4.3497,4.3791,4.4599,4.4966,4.5626,4.6985,4.7352,4.7719,4.8269,4.8306,4.8306,4.8306,4.8306,4.8306,4.8306,4.8114,4.7428,4.6112,4.5699,4.5161,4.4587,4.4587,4.4587,4.4587,4.4587,4.4587,4.4587,4.4857,4.4959,4.4993,4.5229,4.5026,4.4587,4.4587,4.472,4.4906,0.0,0.0,0.0,0.0,0.0,0.0,0.0,0.0,0.0,0.0,0.0,0.0,0.0,0.0,0.0,0.0,0.0,0.0,0.0,0.0,0.0,0.0,0.0,0.0,0.0,0.0,0.0,0.0,0.0,0.0,0.0,0.0,0.0,0.0,4.8111,4.7605,4.9221,4.8581,4.8232,4.8906,4.9365,4.9326,4.8715,4.9224,4.9583,4.9583,4.9823,4.9912,4.9912,5.0331,5.0571,5.0571,5.099,5.1229,5.1229,5.1229,5.1229,5.1229,5.1229,5.1229,5.1229,5.1229,5.0917,5.0383,4.9063,4.8239,4.7605,4.5767,4.4725,4.4209,4.3295,4.2986,4.2986,0.0,0.0,0.0,4.3497,4.3497,4.3497,4.3497,4.3497,4.3828,4.4635,4.5443,4.625,4.7058,4.7829,4.8306,4.8306,4.8306,4.8306,4.8306,4.8306,4.8306,4.8267,4.7674,4.6774,4.5494,4.5442,4.5196,4.4587,4.4587,4.4587,4.4621,4.4621,4.4621,4.4688,4.5432,4.5737,4.5771,4.6481,4.5974,4.4654,4.4654,4.5029,4.5511,0.0,0.0,0.0,0.0,0.0,0.0,0.0,0.0,0.0,0.0,0.0,0.0,0.0,0.0,0.0,0.0,0.0,0.0,0.0,0.0,0.0,0.0,0.0,0.0,0.0,0.0,0.0,0.0,0.0,0.0,0.0,0.0,0.0,4.9178,4.8404,4.8213,4.9625,4.8936,4.8566,4.9194,4.9284,4.9284,4.9284,4.9912,5.0272,5.0272,5.087,5.1229,5.1229,5.1229,5.1229,5.1229,5.1229,5.1229,5.1229,5.1229,5.1229,5.1229,5.1229,5.1229,5.1229,5.1135,5.0383,4.9063,4.7605,4.6265,4.5048,4.4941,4.4126,4.2986,4.2986,4.2986,4.2986,0.0,0.0,0.0,4.3497,4.3497,4.3497,4.3497,4.4011,4.4672,4.5443,4.6287,4.7095,4.7902,4.8196,4.8306,4.8306,4.8306,4.8306,4.8306,4.8306,4.8114,4.7674,4.6589,4.585,4.5494,4.5089,4.4776,4.4587,4.4587,4.4857,4.5399,4.5399,4.5669,4.6177,4.6413,4.6481,4.6515,4.6718,4.6549,4.6177,4.6177,4.6259,4.6431,0.0,0.0,0.0,0.0,0.0,0.0,0.0,0.0,0.0,0.0,0.0,0.0,0.0,0.0,0.0,0.0,0.0,0.0,0.0,0.0,0.0,0.0,0.0,0.0,0.0,0.0,0.0,0.0,0.0,0.0,0.0,4.9741,4.9357,4.9603,4.8753,4.8434,4.9279,4.9164,4.9075,4.9254,4.9703,4.9972,4.9972,5.0571,5.096,5.096,5.1109,5.1229,5.1229,5.1229,5.1229,5.1229,5.1229,5.1229,5.1229,5.1229,5.1229,5.1229,5.1229,5.1229,5.1105,5.0191,4.9553,4.9063,4.6578,4.5342,4.4941,4.3907,4.3295,4.2986,4.2986,4.2986,4.2986,0.0,0.0,0.0,4.3497,4.3497,4.3497,4.3497,4.4195,4.5002,4.5773,4.6617,4.7425,4.8233,4.8306,4.8306,4.8306,4.8306,4.8306,4.8306,4.8075,4.7512,4.6635,4.5865,4.5372,4.5142,4.4776,4.4587,4.4587,4.4891,4.5263,4.5703,4.6007,4.638,4.6819,4.7124,4.7259,4.7293,4.7597,4.7699,4.7699,4.7699,4.7361,4.6786,4.6786,4.6786,4.6786,4.6786,4.6786,4.6786,4.6786,0.0,0.0,0.0,0.0,0.0,0.0,0.0,0.0,0.0,0.0,0.0,0.0,0.0,0.0,0.0,0.0,0.0,0.0,0.0,0.0,0.0,0.0,0.0,0.0,4.9934,4.9652,4.9927,4.9279,4.8925,4.9583,4.9673,4.9793,5.0062,5.0421,5.0661,5.0661,5.099,5.1229,5.1229,5.1229,5.1229,5.1229,5.1229,5.1229,5.1229,5.1229,5.1229,5.1229,5.1229,5.1229,5.1229,5.1229,5.0917,5.0287,4.9553,4.8539,4.7299,4.5661,4.4617,0.0,0.0,0.0,0.0,0.0,4.2986,4.3011,0.0,0.0,4.3497,4.3497,4.3497,4.3534,4.3608,4.4305,4.5112,4.592,4.6764,4.7535,4.8233,4.8267,4.8229,4.8306,4.8229,4.8229,4.8229,4.7554,4.6682,4.5545,4.539,4.5142,4.4643,4.4587,4.4621,4.4688,4.5365,4.5805,4.5974,4.6616,4.6955,4.7056,4.7733,4.8037,4.8071,4.8714,4.9018,4.9018,4.9018,4.8206,4.7056,4.7056,4.7056,4.7056,4.7056,4.7056,4.7056,4.7056,0.0,0.0,0.0,0.0,0.0,0.0,0.0,0.0,0.0,0.0,0.0,0.0,0.0,0.0,0.0,0.0,0.0,0.0,0.0,0.0,0.0,0.0,0.0,0.0,5.0087,4.9613,5.0272,4.9853,4.9703,5.0272,5.0361,5.0571,5.1169,5.1229,5.1229,5.1229,5.1229,5.1229,5.1229,5.1229,0.0,0.0,0.0,5.1229,5.1229,5.1229,5.1229,5.1229,5.1229,5.1229,5.1229,5.1289,5.0596,4.9277,4.9235,4.7596,4.5125,4.5043,4.4197,4.3162,4.3087,4.3112,4.3162,4.3162,4.3162,4.3237,0.0,4.3497,4.3497,4.3497,4.3497,4.3718,4.4378,4.5149,4.5957,4.6764,4.7572,4.8122,4.8269,4.7838,4.7756,4.8267,4.7838,4.7554,4.7554,4.6495,4.5749,4.5494,4.5035,4.472,4.4587,4.4587,4.4891,4.55,4.5635,4.6312,4.7496,4.7631,4.8003,4.8578,4.8714,4.8781,4.8815,4.8951,4.9018,4.9018,4.9018,4.8849,4.8578,4.8578,4.8578,4.8578,4.8578,4.8578,4.8578,4.8578,4.8578,4.868,4.9255,4.956,0.0,0.0,0.0,0.0,0.0,0.0,0.0,0.0,0.0,0.0,0.0,0.0,0.0,0.0,0.0,0.0,0.0,0.0,0.0,5.1512,5.0727,5.0272,5.093,5.093,5.09,5.102,5.102,5.1079,5.1199,5.1229,5.1229,5.1229,5.1229,5.1229,5.1229,5.1229,5.1229,5.1229,5.1229,5.1229,5.1229,5.1229,5.1229,5.1229,0.0,0.0,5.1229,5.1768,5.1179,4.9839,4.9174,4.8026,4.6336,4.5155,4.4522,4.4267,4.3815,4.3915,4.4292,4.4292,4.4292,4.4317,0.0,0.0,4.3497,4.3497,4.3497,4.3754,4.4599,4.5369,4.6177,4.7021,4.7792,4.8306,4.8306,4.8035,4.7995,4.8267,4.7756,4.7132,4.6495,4.5815,4.5372,4.5035,4.4776,4.4587,4.4587,4.4587,4.4959,4.5703,4.6075,4.6819,4.7936,4.8308,4.8646,4.9018,4.9018,4.9018,4.9018,4.9018,4.9018,4.9018,4.9018,4.9018,4.9018,4.9018,4.9018,4.9018,4.9018,4.9255,4.956,4.956,4.9796,5.0168,5.0541,5.0642,5.0744,0.0,0.0,0.0,0.0,0.0,0.0,0.0,0.0,0.0,0.0,0.0,0.0,0.0,0.0,5.2218,5.2104,0.0,5.1369,5.1454,5.106,5.084,5.1169,5.1229,5.1229,5.1229,5.1229,5.1229,5.1229,5.1229,5.1229,5.1229,5.1229,5.1229,5.1229,5.1229,5.1229,5.1229,5.1229,5.1379,5.1708,5.1708,5.1887,5.2187,5.2187,5.1773,5.1092,5.1414,5.037,4.837,4.792,4.6986,4.5577,4.4825,4.4794,4.502,4.4744,4.4644,4.4618,4.4618,4.4618,4.4669,0.0,0.0,0.0,4.3497,4.3497,4.3828,4.4782,4.548,4.625,4.7241,4.7902,4.8306,4.8306,4.8229,4.8075,4.7919,4.747,4.6728,4.5545,4.5425,4.5089,4.4643,4.4587,4.4587,4.4587,4.4722,4.5162,4.5906,4.665,4.7394,4.8139,4.8714,4.9018,4.9018,4.9018,4.9018,4.9018,4.9018,4.9018,4.9018,4.9154,4.9221,4.9221,4.939,4.9357,4.9221,4.939,4.9796,5.0304,5.0304,5.071,5.1251,5.1386,5.142,5.1454,5.1623,5.1657,0.0,0.0,0.0,0.0,0.0,0.0,0.0,0.0,5.3357,5.3539,5.2475,5.2194,5.1978,5.1739,5.1686,5.1634,5.1203,5.1229,5.1229,5.1229,5.1229,5.1229,5.1229,5.1229,5.1229,5.1229,5.1229,5.1229,5.1229,5.1229,5.1229,5.1229,5.1349,5.1409,5.1409,5.1528,5.1858,5.2396,5.2396,5.2665,5.3174,5.2851,5.2129,5.0989,5.0766,4.9324,4.6836,4.6743,4.6025,4.4945,4.4945,4.5221,4.5648,4.5648,4.5372,4.4945,4.4945,4.4945,4.4903,0.0,0.0,0.0,4.3497,4.3497,4.4011,4.5516,4.5847,4.6434,4.7976,4.8233,4.8306,4.8306,4.7797,4.7255,4.6646,4.6553,4.6257,4.5545,4.4981,4.4665,4.4587,4.4587,4.4587,4.4587,4.5229,4.594,4.6684,4.7428,4.8173,4.8883,4.8951,4.9018,4.9018,4.9018,4.9018,4.9018,4.9018,4.9018,4.9052,4.9695,4.9965,5.0033,5.071,5.0541,5.0067,5.0744,5.1014,5.1082,5.1082,5.115,5.1319,5.1961,5.2198,5.2334,5.3044,5.3247,5.3247,5.3247,5.3788,5.4258,5.4037,5.4807,5.5018,0.0,5.3086,5.3273,5.2184,5.1573,5.1361,5.1266,5.1266,5.1203,5.1199,5.1229,5.1229,5.1229,5.1229,5.1229,5.1229,5.1229,5.1229,5.1229,5.1229,5.1229,5.1229,5.1229,5.1229,5.1229,5.1768,5.2097,5.2097,5.2665,5.2995,5.3084,5.3084,5.3114,5.3174,5.1929,5.1193,5.0989,5.0219,4.8953,4.7328,4.6678,4.622,4.6125,4.6125,4.615,4.6225,4.6225,4.6175,4.6125,4.6125,4.6125,4.5885,0.0,0.0,0.0,4.3497,4.3497,4.4048,4.5663,4.5883,4.6471,4.8086,4.8306,4.8306,4.8306,4.8075,4.7674,4.7044,4.6635,4.6161,4.5545,4.4961,4.4587,4.4587,4.4587,4.4587,4.4587,4.5331,4.6075,4.6786,4.7564,4.8308,4.9018,4.9018,4.9018,4.9018,4.9018,4.9018,4.9018,4.9018,4.9255,4.9661,4.9965,5.0338,5.0811,5.1555,5.1657,5.1352,5.1251,5.1488,0.0,5.186,5.2164,5.2604,5.2909,5.301,5.3145,5.3923,5.4126,5.4228,5.4668,5.5006,5.5241,5.5051,5.5703,5.5934,5.4382,5.4593,5.4551,5.2816,5.2301,5.1972,5.1293,5.1229,5.1229,5.1229,5.1229,5.1229,5.1229,5.1229,5.1229,5.1229,5.1558,5.1648,5.1259,5.1229,5.1379,5.1768,5.1798,5.1947,5.2336,5.2606,5.2785,5.2785,5.3025,5.3384,5.3773,5.2918,5.2661,5.3041,5.1498,5.0429,4.9556,4.9135,4.8162,4.6729,4.6415,4.6301,4.6326,4.6652,4.6803,4.6828,4.7129,4.723,4.7205,4.6903,4.6803,4.6706,0.0,0.0,0.0,0.0,0.0,4.4305,4.57,4.5883,4.6471,4.8086,4.8306,4.8306,4.8306,4.8306,4.7995,4.7176,4.6682,4.6063,4.532,4.4852,4.4587,4.4587,4.4587,4.4587,4.4587,4.55,4.6278,4.6786,4.7733,4.8477,4.9018,4.9018,4.9018,4.9018,4.9018,4.9018,4.9018,4.9221,4.9593,5.0135,5.0541,5.1014,5.1589,5.2334,5.2638,5.257,5.2029,5.2198,5.2638,5.2638,5.301,5.3551,5.3754,5.3788,5.3957,5.4702,5.4905,5.5074,5.5818,5.6021,5.6055,5.6258,5.6697,5.6853,5.6012,5.6073,5.5777,5.4137,5.3309,5.2664,5.1819,5.1386,5.1229,5.1229,5.1229,5.1229,5.1229,5.1379,5.1498,5.1498,5.2067,5.2276,5.1798,5.1768,5.1947,5.2426,5.2486,5.2665,5.3144,5.3354,5.3473,5.3473,5.3199,5.3425,5.3828,5.2376,5.1839,5.2402,5.0823,4.9508,4.8532,4.825,4.7555,4.6552,4.6677,4.6753,4.6778,4.7179,4.7355,4.738,4.7757,4.7908,4.7883,4.7657,4.7481,4.7282,0.0,0.0,0.0,0.0,0.0,4.4966,4.5773,4.5883,4.6471,4.8086,4.8306,4.8306,4.8306,4.8306,4.7797,4.6507,4.6413,4.5915,4.472,4.4643,4.4587,4.4587,4.4587,4.4587,4.4587,4.6007,4.6786,4.6786,4.8274,4.8984,4.9018,4.9018,4.9018,4.9018,4.9018,4.9018,4.9052,4.9763,5.0067,5.0202,5.1657,5.2266,5.2367,5.3179,5.345,5.345,5.345,5.345,5.345,5.345,5.3484,5.3619,5.4329,5.4566,5.4702,5.5446,5.5683,5.5852,5.6562,5.6765,5.6934,5.7645,5.7848,5.7848,5.7848,5.693,5.6204,5.6126,5.4389,5.29,5.2812,5.1972,5.1229,5.1229,5.1229,5.1229,5.1229,5.1768,5.2187,5.2187,5.2755,5.3144,5.3114,5.3114,5.3144,5.3144,5.3144,5.3144,5.3174,5.3803,5.4192,5.4192,5.3347,5.304,5.304,5.1453,5.0796,5.0713,4.9281,4.8532,4.8442,4.7529,4.7104,4.7129,4.7631,4.7857,4.7857,4.7883,4.7883,4.7883,4.7908,4.7908,4.7983,4.851,4.836,4.7358,0.0,0.0,0.0,0.0,0.0,4.4966,4.5773,4.6361,4.7095,4.8159,4.8306,0.0,0.0,0.0,0.0,0.0,4.691,4.6257,4.5815,4.5035,4.4587,4.4587,4.4587,4.4587,4.4587,4.5568,4.6312,4.6786,4.78,4.8545,4.9018,4.9018,4.9018,4.9018,4.9018,4.9018,4.9052,4.9796,5.0371,5.0913,5.1894,5.2638,5.3145,5.3416,5.3518,5.3518,0.0,5.3518,5.3518,5.3518,5.3822,5.4262,5.4499,5.4938,5.548,5.6224,5.6799,5.7205,5.7442,5.7509,5.7577,5.7814,5.7881,5.7881,5.7881,5.7628,5.7114,5.636,5.5618,5.4888,5.4168,5.3077,5.2305,5.2305,5.209,5.1858,5.1858,5.2426,5.2845,5.2845,5.3443,5.3862,5.3862,5.3443,5.3384,5.3832,5.3862,5.4042,5.4491,5.473,5.4416,5.3406,5.3192,5.2509,5.1481,4.996,4.9354,4.9729,4.8677,4.8039,4.8064,4.7803,4.7657,4.7657,4.7832,4.7908,4.7933,4.8309,4.8485,4.851,4.8887,4.9038,4.891,4.7849,4.7385,4.6954,0.0,0.0,0.0,0.0,0.0,0.0,0.0,0.0,0.0,0.0,0.0,0.0,0.0,0.0,0.0,0.0,0.0,4.6553,4.6112,4.5372,4.4831,4.4643,4.4587,4.4587,4.4587,4.5568,4.6312,4.6786,4.78,4.8545,4.9018,4.9018,4.9018,4.9018,4.9018,4.9018,4.9052,4.9796,5.0541,5.1285,5.1995,5.2773,5.3518,5.3518,5.3518,0.0,5.3518,5.3518,5.3551,5.3788,5.4194,5.4668,5.5209,5.5886,5.6596,5.7036,5.7509,5.7881,5.7881,5.7881,5.7881,5.7881,5.7881,5.7881,5.7881,5.7881,5.7701,5.6963,5.6437,5.6034,5.5653,5.4292,5.3334,5.3582,5.3067,5.2546,5.2546,5.3114,5.3563,5.3563,5.4132,5.4551,5.4551,5.4162,5.4072,5.4521,5.4551,5.4529,5.4377,5.4406,5.3727,5.2295,5.1843,5.1155,5.0232,4.8916,4.8402,4.8739,4.8201,4.7908,4.7908,4.8134,4.8209,4.8234,4.8435,4.851,4.8535,4.8912,4.9063,4.9113,4.9464,4.959,4.9307,4.7509,4.6398,4.5727,0.0,0.0,0.0,0.0,0.0,0.0,0.0,0.0,0.0,0.0,0.0,0.0,0.0,0.0,0.0,0.0,0.0,0.0,4.5699,4.5545,4.5214,4.4665,4.4643,4.4587,4.4587,4.6007,4.6752,4.6786,4.824,4.8951,4.9018,4.9018,4.9018,4.9018,4.9018,4.9018,4.9052,4.9796,5.0541,5.1285,5.1995,5.2773,5.3518,5.3518,5.3518,5.3518,5.3518,5.3518,5.3619,5.4329,5.4634,5.4938,5.6393,5.734,5.7881,5.7881,5.7881,5.7881,5.7881,5.7881,5.7881,5.7881,5.7881,5.7881,5.7881,5.7881,5.7915,5.7949,5.7105,5.6579,5.7371,5.5591,5.4262,5.4913,5.4009,5.3234,5.3234,5.3832,5.4251,5.4251,5.482,5.5179,5.5179,5.5209,5.5239,5.5138,5.5108,5.4539,5.3126,5.302,5.2244,5.0685,4.9783,4.9285,4.9285,4.837,4.7958,4.7958,4.7983,4.7983,4.8008,4.856,4.8812,4.8837,4.9364,4.959,4.959,4.959,4.959,4.959,4.959,4.959,4.9177,4.7401,4.5503,4.3725,0.0,0.0,0.0,0.0,0.0,0.0,0.0,0.0,0.0,0.0,0.0,0.0,0.0,0.0,0.0,0.0,0.0,0.0,4.691,4.6014,4.5425,4.5267,4.4852,4.4587,4.4587,4.55,4.6244,4.6786,4.7733,4.8477,4.9018,4.9018,4.9018,4.9018,4.9018,4.9018,4.9052,4.9796,5.0541,5.1285,5.1995,5.2773,5.3518,5.3518,5.3518,5.3518,5.3518,5.3518,5.3619,5.4329,5.531,5.6393,5.7306,5.7746,5.7881,5.7881,5.7881,5.7881,5.7881,5.7881,5.7881,5.7881,5.7881,5.7881,5.7881,5.7881,5.8051,5.8626,5.847,5.8522,5.9261,5.751,5.6042,5.6232,5.4944,5.3952,5.3952,5.4521,5.494,5.494,5.5089,5.5179,5.5179,5.5628,5.5456,5.4216,5.378,5.3617,5.3625,5.2541,5.1511,5.0361,5.0049,4.9437,4.8273,4.851,4.856,4.856,4.8962,4.9163,4.9163,4.9314,4.9389,4.9389,4.954,4.959,4.959,4.959,4.959,4.959,4.959,4.8763,4.7269,4.5736,4.4073,4.2322,0.0,0.0,0.0,0.0,0.0,0.0,0.0,0.0,0.0,0.0,0.0,0.0,0.0,0.0,0.0,0.0,0.0,0.0,0.0,4.6448,4.5765,4.5494,4.5196,4.4852,4.4643,4.5601,4.6351,4.6786,4.7564,4.8308,4.9018,4.9018,4.9018,4.9018,4.9018,4.9018,4.9018,4.9424,5.0236,0.0,0.0,5.2503,5.3518,5.3518,5.3518,5.3518,5.3518,5.3923,5.4532,5.4938,5.6055,5.734,5.7746,5.7881,5.7881,5.7881,5.7881,5.7881,5.7881,5.7881,5.7881,5.7881,5.7881,5.7881,5.7881,5.8152,5.849,5.893,5.9268,5.9742,6.0486,5.8708,5.7245,5.7565,5.5902,5.464,5.464,5.497,5.5179,5.5179,5.5448,5.5628,5.5628,5.5649,5.5235,5.4316,5.4,5.3371,5.2265,5.1468,5.0495,4.9186,4.9445,4.9234,4.8636,4.8962,4.9138,4.9138,4.9439,4.959,4.959,4.959,4.959,4.959,0.0,4.959,4.959,4.959,4.9741,4.9812,4.9002,4.8149,4.7106,4.4754,4.3178,4.2085,0.0,0.0,0.0,0.0,0.0,0.0,0.0,0.0,0.0,0.0,0.0,4.8306,4.8306,4.8306,0.0,0.0,0.0,0.0,0.0,0.0,4.6305,4.58,4.5699,4.5372,4.4852,4.5991,4.666,4.6792,4.7556,4.824,4.8849,4.9073,4.9107,4.9018,4.9229,4.9195,4.9168,4.9195,5.0073,5.1366,5.1342,5.2194,5.3482,0.0,5.3518,5.3518,5.3518,5.4465,5.5716,5.5716,5.6697,5.7881,5.7881,5.7881,5.7881,5.7881,5.7881,5.7881,5.7881,5.7881,5.7881,5.7881,5.7881,5.7915,5.8017,5.8558,5.9066,5.9268,5.981,6.041,6.1109,5.9413,5.7988,5.8446,5.6638,5.5179,5.5179,5.5179,5.5209,5.5299,5.5705,5.5857,5.605,5.5176,5.4509,5.4286,5.4343,5.3215,5.0499,5.0138,4.9463,4.8134,4.8611,4.9113,4.959,4.959,4.959,4.959,4.959,4.959,4.959,4.959,4.959,4.959,4.959,4.964,4.9715,4.9715,5.0042,5.0388,4.8426,4.7714,4.7539,4.4062,4.2522,4.2101,0.0,0.0,0.0,0.0,0.0,0.0,0.0,0.0,0.0,0.0,4.8306,4.8306,0.0,0.0,0.0,0.0,0.0,0.0,0.0,0.0,0.0,4.708,4.6542,4.6209,4.6112,4.643,4.6619,4.6631,4.7486,4.8003,4.8105,4.9272,4.9521,4.9046,5.0202,5.0425,4.9896,5.0445,5.1243,5.2046,5.2077,5.2632,5.3404,5.3479,5.3518,0.0,5.3518,5.4465,5.5716,5.5716,5.6697,5.7881,5.7881,5.7881,5.7881,5.7881,5.7881,5.7881,5.7881,5.7881,5.7881,5.7881,5.7881,5.8051,5.8693,5.893,5.937,6.0655,6.0994,6.1065,6.0738,5.9534,5.8292,5.7434,5.6085,5.5179,5.5179,5.5179,5.5388,5.5927,5.4978,5.4438,5.4989,5.4205,5.3048,5.1776,5.2111,5.207,5.0864,4.9687,4.9065,4.9289,4.9414,4.949,4.959,4.959,4.959,4.959,4.959,4.959,4.959,4.959,4.959,4.959,4.959,0.0,5.0268,5.0268,5.0619,5.0989,4.898,4.733,4.5759,4.3867,4.2126,4.0887,0.0,0.0,0.0,0.0,0.0,0.0,0.0,4.8306,4.8306,4.8306,4.8306,4.8306,4.8306,4.8306,0.0,0.0,0.0,0.0,0.0,0.0,0.0,4.7385,4.7088,4.6774,4.6413,4.6802,4.7047,4.7121,0.0,4.8162,4.8959,4.9657,4.9764,4.958,5.0608,5.0662,5.0033,5.077,5.1546,5.2218,5.2664,5.3322,5.4011,5.4478,5.4668,0.0,5.3783,5.4669,5.6235,5.5822,5.6697,5.7881,5.7881,5.7881,5.7881,5.7881,5.7881,5.7881,5.7881,5.7881,5.7881,5.7881,5.7881,5.8084,5.8829,5.9302,5.9911,6.1061,6.1065,6.0917,6.0637,5.9081,5.7714,5.7086,5.5986,5.5299,5.5658,5.5718,5.5957,5.6585,5.5616,5.4926,5.5324,5.3674,5.2393,5.1566,5.0986,5.0561,5.0278,4.9546,4.9314,4.959,4.959,4.959,4.959,4.959,4.959,4.959,4.959,4.959,4.959,4.959,4.9741,5.0017,5.0017,5.0343,5.087,5.087,5.1197,5.143,4.8379,4.6826,4.5944,4.3268,4.1589,4.0898,0.0,0.0,0.0,0.0,0.0,0.0,0.0,4.8306,4.8306,4.8306,4.8306,4.8306,4.8306,4.8306,4.8306,0.0,0.0,0.0,0.0,0.0,0.0,0.0,4.7554,4.7342,4.6819,0.0,0.0,4.756,4.7594,0.0,0.0,0.0,0.0,0.0,5.1138,5.1138,5.05,5.1241,5.1886,0.0,0.0,5.3851,5.4614,0.0,0.0,0.0,0.0,5.5197,5.6729,5.6099,5.6806,5.7881,5.7881,5.7881,5.7881,5.7881,5.7881,5.7881,5.7881,5.7881,5.7881,5.7881,5.7881,5.8118,5.9032,5.9674,6.0275,6.0987,6.0835,6.0417,5.9957,5.8237,5.6927,5.6823,5.6031,5.5628,5.6286,5.6376,5.6615,5.7244,5.6078,5.5281,5.5452,5.3037,5.1492,5.1492,5.0308,4.959,4.959,4.959,4.959,4.959,4.959,4.959,4.959,4.959,4.959,4.959,4.959,4.9665,4.9766,4.9766,5.0067,5.0594,5.0594,5.0921,5.1448,5.1448,5.1774,5.1843,4.7905,4.6693,4.6588,4.2657,4.1172,4.1172,0.0,0.0,0.0,0.0,0.0,0.0,0.0,4.8306,4.8306,4.8306,4.8306,4.8306,4.8306,4.8306,4.8306,0.0,0.0,0.0,0.0,0.0,0.0,0.0,0.0,0.0,0.0,0.0,0.0,4.7407,4.7536,0.0,0.0,0.0,0.0,0.0,0.0,5.2599,5.197,5.268,0.0,0.0,0.0,0.0,0.0,0.0,0.0,0.0,0.0,5.6064,5.6794,5.6729,5.7192,5.7881,5.7881,5.7881,5.7881,5.7881,5.7881,5.7881,5.7881,5.7881,5.7881,5.7881,5.7881,5.8254,5.9674,6.0047,6.0179,6.0556,6.0637,5.9957,5.7714,5.715,5.6823,5.6334,5.6179,5.6286,5.6915,5.7004,5.7274,5.7962,5.5392,5.3902,5.4484,5.1741,4.9847,4.9847,4.9719,4.959,4.959,4.959,4.959,4.959,4.959,4.959,4.959,4.959,4.959,4.959,4.959,4.9866,5.0343,5.0343,5.0645,5.1197,5.1197,5.1523,0.0,5.2026,5.2352,5.2416,4.8436,4.7006,4.6588,4.2657,4.1172,4.1172,0.0,0.0,0.0,0.0,0.0,0.0,4.8306,4.8306,4.8306,4.8306,4.8306,4.8306,4.8306,4.8306,4.8306,0.0,0.0,0.0,0.0,0.0,0.0,0.0,0.0,0.0,0.0,0.0,4.7955,4.7955,4.8,0.0,0.0,0.0,0.0,0.0,0.0,5.2769,5.2159,5.2893,0.0,0.0,0.0,0.0,0.0,0.0,0.0,0.0,0.0,0.0,5.7367,5.6469,5.6913,5.7881,5.7881,5.7881,5.7881,5.7881,5.7881,5.7881,5.7881,5.7881,5.7881,5.7881,5.822,5.8829,5.9877,5.9923,5.9857,6.0472,5.9434,5.8145,5.715,5.6445,5.5962,5.6149,5.6166,5.6526,5.7573,5.7723,5.7613,5.7335,5.5308,5.3755,5.3039,5.0916,4.959,4.959,4.959,4.959,4.959,4.959,4.959,4.959,4.959,4.959,4.959,4.9916,5.0092,5.0092,5.0444,5.072,5.0946,5.0946,5.1247,5.1774,5.1774,5.2101,0.0,5.2603,5.199,5.0857,4.8072,4.6293,4.4977,4.2196,4.1172,4.1172,0.0,0.0,0.0,0.0,0.0,4.8306,4.8306,4.8306,4.8306,4.8306,4.8306,4.8306,4.8306,4.8306,4.8306,4.8306,0.0,0.0,0.0,0.0,0.0,0.0,0.0,0.0,0.0,0.0,4.8306,4.8306,4.8306,4.8746,0.0,0.0,5.0963,5.1302,0.0,0.0,0.0,0.0,0.0,0.0,0.0,0.0,0.0,0.0,0.0,0.0,0.0,0.0,0.0,0.0,0.0,5.7881,5.7881,5.7881,5.7881,5.7881,5.7881,5.7881,5.7881,5.7881,5.7881,5.7881,5.8457,5.9201,5.9945,5.981,5.9613,5.9997,5.8419,5.6896,5.6541,5.6001,5.5688,5.6346,5.6615,5.7124,5.8261,5.8411,5.7991,5.6791,5.5327,5.379,5.2086,5.0563,4.959,4.959,4.959,4.959,4.959,4.9741,4.9766,4.9615,4.9741,4.9841,4.9841,5.0393,5.067,5.067,5.1096,5.1373,5.1523,5.1523,5.1825,5.2352,5.2352,5.2578,0.0,5.2929,5.1747,4.9819,4.7781,4.5849,4.3794,4.1907,4.1172,4.1172,0.0,0.0,0.0,0.0,0.0,0.0,4.8306,4.8306,4.8306,4.8306,4.8306,4.8306,4.8306,4.8306,4.8306,4.8306,0.0,0.0,0.0,0.0,0.0,0.0,0.0,0.0,0.0,0.0,4.8306,4.8306,4.8306,4.8746,4.9591,5.0398,5.1242,5.2013,0.0,0.0,0.0,0.0,0.0,0.0,0.0,0.0,5.5794,0.0,0.0,0.0,0.0,0.0,0.0,0.0,0.0,0.0,0.0,5.7881,5.7881,5.7881,5.7881,5.7881,5.7881,5.7881,5.7881,5.7881,5.8457,5.9201,5.9945,5.981,5.9362,5.892,5.7807,5.6638,5.5451,5.5718,5.6376,5.6974,5.7663,5.8351,5.9009,5.9099,5.8495,5.6849,5.5327,5.379,5.2086,5.0563,4.959,4.959,4.959,4.959,4.959,5.0117,5.0167,4.9615,5.0117,5.0419,5.0419,5.0971,5.1272,5.1272,5.1272,5.1574,5.2101,5.2101,5.2402,5.2929,5.2929,5.2929,0.0,5.2929,5.1747,4.9819,4.7781,4.5849,4.3794,4.1907,4.1172,4.1172,0.0,0.0,0.0,0.0,0.0,0.0,0.0,4.8306,4.8306,4.8306,4.8306,4.8306,4.8306,4.8306,4.8306,4.8306,0.0,0.0,0.0,0.0,0.0,0.0,0.0,0.0,0.0,0.0,4.8306,4.8306,4.8306,4.8453,4.871,4.9554,5.0398,5.1206,5.2013,5.2711,0.0,0.0,0.0,0.0,0.0,5.5268,5.5039,0.0,0.0,0.0,0.0,0.0,0.0,0.0,0.0,0.0,0.0,0.0,0.0,5.7881,5.7881,5.7881,5.7881,5.7881,5.7881,5.7881,5.8829,5.9582,5.9019,5.8918,5.8703,5.7744,5.6638,5.5651,5.528,5.5718,5.6376,5.7004,5.7663,5.8351,5.9009,5.8136,5.6849,5.5327,5.27,5.0916,5.0436,4.995,4.959,4.959,4.9941,5.0167,5.0167,5.0695,5.0745,5.0167,5.072,5.0996,5.0996,5.1574,5.185,5.185,5.2226,5.2503,5.2678,5.2678,5.2754,5.2929,5.2929,5.2929,5.2929,5.2929,5.0998,4.7927,4.7175,4.4998,4.2062,4.1483,4.1172,4.1211,0.0,0.0,0.0,0.0,0.0,0.0,0.0,4.8306,4.8306,4.8306,4.8306,4.8306,4.8306,4.8306,4.8306,4.8306,0.0,0.0,0.0,0.0,0.0,0.0,0.0,0.0,0.0,4.8306,4.8306,4.8306,4.8306,4.8306,4.8343,4.9187,5.0031,5.0839,5.1646,5.2454,0.0,0.0,0.0,0.0,5.4647,5.4905,5.4661,0.0,0.0,0.0,0.0,0.0,0.0,0.0,0.0,0.0,0.0,0.0,0.0,0.0,5.7881,5.7881,5.7881,5.7881,5.7881,5.7881,5.8998,5.9742,5.854,5.8572,5.8451,5.7245,5.5986,5.5179,5.5179,5.5927,5.6645,5.7034,5.7872,5.8405,5.8217,5.7328,5.5907,5.379,5.1168,4.959,4.959,4.959,4.9665,4.9891,5.0218,5.0519,5.072,5.1272,5.1423,5.1071,5.1398,5.1599,5.1599,5.2126,5.2427,5.2427,5.2754,5.2929,5.2929,5.2929,5.2929,5.2929,5.2929,5.2929,0.0,5.205,4.9985,4.6882,4.6146,4.3966,4.1172,4.1172,4.1172,4.123,0.0,0.0,0.0,0.0,0.0,0.0,0.0,0.0,4.8306,4.8306,4.8306,4.8306,4.8306,4.8306,4.8306,4.8306,0.0,0.0,0.0,0.0,0.0,0.0,0.0,0.0,4.8306,4.8306,4.8306,4.8306,4.8306,4.8306,4.8343,4.9114,4.9958,5.0839,5.1573,5.238,0.0,0.0,0.0,0.0,5.4146,5.4517,0.0,0.0,0.0,0.0,0.0,0.0,0.0,0.0,0.0,0.0,0.0,0.0,0.0,0.0,0.0,0.0,0.0,5.7881,5.7915,5.7949,5.9032,5.9775,5.8525,5.8518,0.0,5.7181,5.5986,5.5209,5.5239,5.6256,5.7124,5.7154,5.8261,5.8525,5.6962,5.648,5.5299,5.2209,5.0563,4.959,4.959,4.9615,4.9866,5.0368,5.0494,5.077,5.1322,5.1875,5.2176,5.2176,5.2176,5.2176,5.2176,5.2678,5.2929,5.2929,5.2929,5.2929,5.2929,5.2929,5.2929,0.0,5.2929,5.2929,5.2767,5.0857,4.8794,4.6735,4.4827,4.2922,4.1172,4.1172,4.1191,4.1269,0.0,0.0,0.0,0.0,0.0,0.0,0.0,0.0,0.0,0.0,4.8306,4.8306,4.8306,4.8306,4.8306,0.0,0.0,0.0,0.0,0.0,0.0,0.0,0.0,0.0,4.8306,4.8306,4.8306,4.8306,4.8306,4.8306,4.8306,4.8526,4.9407,5.0802,5.0986,5.1867,0.0,0.0,0.0,0.0,5.4411,5.4502,0.0,0.0,0.0,0.0,5.4634,5.5577,0.0,0.0,0.0,0.0,0.0,0.0,0.0,0.0,5.7881,5.7881,5.7881,0.0,5.8017,5.8592,5.9438,5.9722,0.0,5.835,5.8177,5.6085,5.5381,5.5359,5.5837,5.6585,5.7274,5.7782,5.856,5.8525,5.6962,5.4595,5.2332,5.0436,4.9822,4.959,4.959,4.9967,5.0268,5.0419,5.1222,5.1774,5.19,5.2427,5.2729,5.2729,5.2729,5.2729,5.2729,5.2854,5.2929,5.2929,5.2929,5.2929,5.2929,5.2929,5.2929,5.2929,5.2929,5.2929,5.2767,5.0857,4.8794,4.6735,4.4827,4.2922,4.1172,4.1172,4.1387,4.1719,0.0,0.0,0.0,0.0,0.0,0.0,0.0,0.0,0.0,0.0,0.0,0.0,0.0,0.0,0.0,0.0,0.0,0.0,0.0,0.0,0.0,0.0,0.0,4.8306,4.8306,4.8306,4.8306,4.8306,4.8306,4.8306,4.8306,4.871,4.9591,5.0839,5.1573,5.238,0.0,0.0,0.0,5.4349,5.4071,0.0,0.0,0.0,0.0,0.0,5.4484,5.5341,0.0,5.6229,5.6968,5.7881,0.0,0.0,0.0,0.0,5.7881,5.7881,5.7881,5.7881,5.8084,5.8829,5.9573,5.9711,5.8087,5.83,5.8085,5.575,5.5179,5.5388,5.6047,5.6675,5.7334,5.8022,5.868,5.8276,5.5907,5.3522,5.1393,4.9847,4.959,4.969,4.9941,5.0243,5.0645,5.1147,5.1749,5.2226,5.2477,5.2754,5.2929,5.2929,5.2929,5.2929,5.2929,5.2929,5.2929,5.2929,5.2929,5.2929,5.2929,5.2929,5.2929,5.2929,5.2929,5.2929,5.2629,4.9819,4.7904,4.6735,4.3815,4.2196,4.1191,4.1387,4.1601,4.1894,0.0,0.0,0.0,0.0,0.0,0.0,0.0,0.0,0.0,0.0,0.0,0.0,0.0,0.0,0.0,0.0,0.0,0.0,0.0,0.0,0.0,0.0,4.8306,4.8306,4.8306,4.8306,4.8306,4.8306,4.8306,4.8306,4.8343,4.9187,5.0068,5.1059,5.2564,5.3225,0.0,5.3225,5.3739,5.4532,5.3616,0.0,0.0,0.0,0.0,0.0,0.0,0.0,0.0,5.6562,5.7273,5.7881,5.7881,0.0,0.0,0.0,0.0,0.0,5.7881,5.7808,5.7904,5.889,5.9641,5.9711,5.8249,5.8364,5.8085,5.575,5.5179,5.5418,5.6166,5.6735,5.7363,5.8141,5.8278,5.7328,5.4386,5.27,5.1142,4.9719,4.959,4.9816,5.0368,5.0494,5.0971,5.2026,5.2176,5.2427,5.2904,5.2929,5.2929,5.2929,5.2929,5.2929,5.2929,5.2929,5.2929,5.2929,5.2929,5.2929,5.2929,5.2929,5.2929,5.2929,0.0,0.0,5.2629,4.865,4.7029,4.6588,4.2637,4.1172,4.123,4.1641,4.1836,4.2012,0.0,0.0,0.0,0.0,0.0,0.0,0.0,0.0,0.0,0.0,0.0,0.0,0.0,0.0,0.0,0.0,0.0,0.0,0.0,0.0,0.0,4.8306,4.8306,4.8306,4.8306,4.8306,4.8306,4.8306,4.8306,4.8306,4.8343,4.9187,5.0362,5.1867,5.2784,5.3225,5.3225,5.3225,5.4069,5.5302,5.3882,0.0,0.0,0.0,0.0,0.0,0.0,0.0,0.0,5.6562,5.7273,5.7881,5.7881,0.0,0.0,0.0,0.0,0.0,5.7881,5.7222,5.7033,5.9347,6.0013,5.9845,5.8894,5.8748,5.8085,5.575,5.5179,5.5538,5.6735,5.7034,5.7513,5.877,5.6791,5.4505,5.2578,5.1016,4.9822,4.959,4.959,4.9816,5.0368,5.087,5.1423,5.2051,5.2528,5.2829,5.2929,5.2929,5.2929,5.2929,5.2929,5.2929,5.2929,5.2929,5.2929,5.2929,5.2929,5.2929,5.2929,5.2929,5.2929,5.2929,0.0,5.2929,5.2629,4.865,4.7029,4.6588,4.2637,4.1172,4.123,4.1641,4.2031,4.2461,0.0,0.0,0.0,0.0,0.0,0.0,0.0,0.0,0.0,0.0,0.0,0.0,0.0,0.0,0.0,0.0,0.0,0.0,0.0,0.0,4.8306,4.8306,4.8306,4.8306,4.8306,4.8306,4.8306,4.8306,4.8306,4.8306,4.8343,4.9627,5.1096,5.2674,5.3041,5.3225,5.3225,5.3665,5.4509,5.5566,0.0,0.0,0.0,0.0,0.0,0.0,0.0,0.0,0.0,0.0,5.7611,5.7881,5.7881,0.0,0.0,0.0,0.0,0.0,5.7881,5.7857,5.7907,5.8897,5.8734,5.8195,5.792,5.7807,5.7371,5.5551,5.5478,5.6017,5.6915,5.7393,5.7642,5.7768,5.5935,5.379,5.2209,5.1393,5.0537,4.9719,4.959,4.9941,5.0795,5.1122,5.1624,5.2477,5.2779,5.2929,5.2929,5.2929,5.2929,5.2929,5.2929,5.2929,5.2929,5.2929,5.2929,5.2929,5.2929,5.2929,5.2929,5.2929,5.2929,5.2929,0.0,5.2327,5.1163,4.8217,4.6441,4.5127,4.235,4.1172,4.125,4.1894,4.2558,4.3183,0.0,0.0,0.0,0.0,0.0,0.0,0.0,0.0,0.0,0.0,0.0,0.0,0.0,0.0,0.0,0.0,0.0,0.0,0.0,4.8306,4.8306,4.8306,4.8306,4.8306,4.8306,4.8306,4.8306,4.8306,4.8306,4.8489,4.893,5.0398,5.183,5.3225,5.3225,5.3298,5.3518,5.4142,5.495,5.586,0.0,0.0,0.0,0.0,0.0,0.0,0.0,0.0,0.0,0.0,0.0,0.0,0.0,0.0,0.0,5.7881,5.7881,5.7881,5.7881,5.8275,5.8528,5.8018,5.7566,5.7245,5.7059,5.6991,5.6607,5.5451,5.5718,5.6346,5.6974,5.7782,5.7932,5.6875,5.5444,5.379,5.2209,5.1741,5.1016,4.9719,4.9715,5.0193,5.1197,5.1398,5.1875,5.2854,5.2929,5.2929,5.2929,5.2929,5.2929,5.2929,5.2929,5.2929,5.2929,5.2929,5.2929,5.2929,5.2929,5.2929,5.2929,5.2929,5.2929,5.2929,5.2929,5.1747,4.9819,4.7781,4.5849,4.3945,4.1907,4.1289,4.1543,4.2187,4.2969,4.3711,0.0,0.0,0.0,0.0,0.0,0.0,0.0,0.0,0.0,0.0,0.0,0.0,0.0,0.0,0.0,0.0,0.0,0.0,0.0,4.8306,4.8306,4.8306,4.8306,4.8306,4.8306,4.8306,4.8306,4.8306,4.8306,4.9114,5.0655,5.1499,5.238,5.3225,5.3225,5.3628,5.4326,5.4363,5.5317,5.6667,5.597,0.0,0.0,0.0,0.0,0.0,0.0,0.0,0.0,0.0,0.0,0.0,0.0,0.0,5.7881,5.7881,5.7881,5.7881,5.7881,5.7716,5.7361,5.6766,5.7956,5.8926,5.734,5.6991,5.6607,5.5451,5.5718,5.6346,5.6974,5.8171,5.8575,5.6962,5.5444,5.379,5.2209,5.0664,4.9719,4.959,5.0042,5.0594,5.1222,5.1749,5.2302,5.2879,5.2929,5.2929,5.2929,5.2929,5.2929,5.2929,5.2929,5.2929,5.2929,5.2929,5.2929,5.2929,5.2929,5.2929,5.2929,5.2929,5.2929,5.2929,5.2929,5.1747,4.9819,4.7781,4.5849,4.3945,4.1907,4.166,4.2344,4.2402,4.2969,4.3711,0.0,0.0,0.0,0.0,0.0,0.0,0.0,0.0,0.0,0.0,0.0,0.0,0.0,0.0,0.0,0.0,0.0,0.0,0.0,4.8306,4.8306,4.8306,4.8306,4.8306,4.8306,4.8306,4.8306,4.8306,4.882,4.9701,5.0839,5.161,5.2417,5.3225,5.3225,5.3665,5.4436,5.4913,5.5794,5.6813,5.655,5.617,0.0,0.0,0.0,0.0,0.0,0.0,0.0,0.0,5.7881,5.7881,5.7881,5.7881,5.7881,5.7881,5.7881,5.7983,5.8457,5.8274,5.7822,5.7323,5.7586,5.7554,5.6219,5.5918,5.5841,5.582,5.6286,5.7064,5.8141,5.7921,5.7075,5.556,5.391,5.2359,5.079,4.995,4.959,4.959,5.0067,5.0645,5.1222,5.1774,5.2327,5.2879,5.2929,5.2929,5.2929,5.2929,5.2929,5.2929,5.2929,5.2929,5.2929,5.2929,5.2929,5.2929,5.2929,5.2929,5.2929,5.2929,5.2929,5.2929,5.2929,5.1163,4.8072,4.7321,4.5127,4.2196,4.1463,4.168,4.2422,4.2422,4.2969,4.3711,0.0,0.0,0.0,0.0,0.0,0.0,0.0,0.0,0.0,0.0,0.0,0.0,0.0,0.0,0.0,0.0,0.0,0.0,4.8306,4.8306,4.8306,4.8306,4.8306,4.8306,4.8306,4.8306,4.8306,4.8306,4.9407,5.0398,5.1206,5.2013,5.2674,5.3225,5.3482,5.4032,5.484,5.5647,5.6455,5.718,5.7231,5.6917,0.0,0.0,0.0,0.0,0.0,0.0,0.0,0.0,5.7881,5.7881,5.7881,5.7881,5.7881,5.7881,5.7628,5.754,5.8236,5.8091,5.7716,5.7211,5.7027,5.6704,5.5451,5.5179,5.5388,5.6047,5.6825,5.7752,5.889,5.8166,5.6962,5.5327,5.379,5.2236,5.0537,4.995,4.959,4.959,5.0243,5.0845,5.1247,5.195,5.2528,5.2904,5.2929,5.2929,5.2929,5.2929,5.2929,5.2929,5.2929,5.2929,5.2929,5.2929,5.2929,5.2929,5.2929,5.2929,5.2929,5.2929,5.2929,5.2929,5.2929,5.1022,4.7927,4.7321,4.4699,4.1172,4.1172,4.168,4.2422,4.2422,4.2969,4.3711,0.0,0.0,0.0,0.0,0.0,0.0,0.0,0.0,0.0,0.0,0.0,0.0,0.0,0.0,0.0,0.0,0.0,0.0,4.8306,4.8306,4.8306,4.8306,4.8306,4.8306,4.8306,4.8306,4.8306,4.8306,4.9994,5.1206,5.2013,5.2821,5.3225,5.3261,5.4032,5.484,5.5647,5.6455,5.7262,5.7997,5.7997,5.8057,5.8015,0.0,0.0,0.0,0.0,0.0,0.0,0.0,5.7881,5.7881,5.7881,5.7881,5.7881,5.7881,5.7114,5.6369,5.7047,5.6918,5.6599,5.6093,5.6495,5.6638,5.5451,5.5179,5.5388,5.6047,5.7244,5.8321,5.8979,5.9099,5.8634,5.6962,5.5444,5.379,5.2209,5.0664,4.959,4.959,5.0594,5.1272,5.1272,5.2277,5.2929,5.2929,5.2929,5.2929,5.2929,5.2929,5.2929,5.2929,5.2929,5.2929,5.2929,5.2929,5.2929,5.2929,5.2929,5.2929,5.2929,5.2929,5.2929,5.2929,5.2929,5.1747,4.9819,4.7759,4.4699,4.1172,4.1172,4.168,4.2422,4.2422,4.2969,4.3711,0.0,0.0,0.0,0.0,0.0,0.0,0.0,0.0,0.0,0.0,0.0,0.0,0.0,0.0,0.0,0.0,0.0,0.0,4.8306,4.8306,4.8306,4.8306,4.8306,4.8306,4.8306,4.8893,4.9187,4.9187,5.0288,5.1206,5.2013,5.2821,5.3518,5.4069,5.4289,5.517,5.6455,5.6712,5.7262,5.7987,5.8068,5.7745,5.7263,0.0,0.0,0.0,0.0,0.0,0.0,0.0,0.0,0.0,5.7881,5.7881,5.7881,5.7881,5.7628,5.7641,5.8916,5.797,5.6782,5.7756,5.6867,5.5651,5.528,5.5538,5.6196,5.7304,5.8231,5.886,5.9069,5.9099,5.8634,5.6962,5.5444,5.379,5.2209,5.0664,4.959,4.959,5.0594,5.1272,5.1272,5.2277,5.2929,5.2929,5.2929,5.2929,5.2929,5.2929,5.2929,5.2929,5.2929,5.2929,5.2929,5.2929,5.2929,5.2929,5.2929,5.2929,5.2929,5.2929,5.2929,5.2929,5.2929,5.0998,4.7613,4.4247,4.2196,4.1172,4.1172,4.168,4.2422,4.2422,4.2969,4.3711,0.0,0.0,0.0,0.0,0.0,0.0,0.0,0.0,0.0,0.0,4.8383,4.8306,0.0,0.0,0.0,0.0,0.0,0.0,0.0,4.8306,4.8306,4.8306,4.8306,4.8306,4.8306,4.915,4.9738,5.0068,5.0875,5.1683,5.2491,5.3298,5.3959,5.4436,5.506,5.5904,5.6822,5.7152,5.774,5.8464,5.8518,5.8621,5.8752,0.0,0.0,0.0,0.0,0.0,0.0,0.0,0.0,0.0,5.7881,5.7881,5.7808,5.7372,5.7087,5.7165,5.7806,5.6893,5.5875,5.709,5.628,5.5329,5.5837,5.6256,5.6765,5.7543,5.8471,5.9099,5.9099,5.9099,5.8386,5.6137,5.4976,5.3549,5.1393,5.0181,4.959,4.959,5.0393,5.1021,5.1247,5.2076,5.2678,5.2904,5.2929,5.2929,5.2929,5.2929,5.2929,5.2929,5.2929,5.2929,5.2929,5.2929,5.2929,5.2929,5.2929,5.2929,5.2929,5.2929,5.2929,5.2929,5.205,4.9961,4.6735,4.3663,4.1907,4.1172,4.1172,4.1582,4.2207,4.2363,4.2871,4.3476,0.0,0.0,0.0,0.0,0.0,0.0,0.0,0.0,0.0,0.0,4.8568,4.8344,0.0,0.0,0.0,0.0,0.0,0.0,0.0,4.8306,4.8306,4.8306,4.8306,4.8343,4.8416,4.926,5.0105,5.0912,5.1646,5.2417,5.3225,5.4032,5.4436,5.4583,5.6124,5.6859,5.6969,5.7776,5.8547,5.9208,5.9391,6.0261,6.1309,5.9831,0.0,0.0,0.0,0.0,0.0,0.0,0.0,0.0,5.7881,5.7881,5.7701,5.6624,5.6059,5.5719,5.5305,5.4752,5.454,5.52,5.528,5.5508,5.6735,5.7064,5.7124,5.7244,5.8261,5.9099,5.9099,5.9099,5.8166,5.5094,5.4505,5.3335,5.0181,4.9719,4.959,4.959,5.0067,5.0645,5.1222,5.1774,5.2327,5.2879,5.2929,5.2929,5.2929,5.2929,5.2929,5.2929,5.2929,5.2929,5.2929,5.2929,5.2929,5.2929,5.2929,5.2929,5.2929,5.2929,5.2929,5.2767,5.0857,4.8938,4.7175,4.5127,4.3228,4.1463,4.1463,4.1582,4.1836,4.2226,4.2676,4.3125,0.0,0.0,0.0,0.0,0.0,0.0,0.0,0.0,0.0,0.0,0.0,0.0,0.0,0.0,0.0,0.0,0.0,0.0,0.0,4.8306,4.8306,4.8306,4.8306,4.8636,4.9297,5.0105,5.0949,5.172,5.1903,5.2417,5.3225,5.4032,5.473,5.5354,5.6345,5.7152,5.7776,5.8621,5.9061,5.9318,6.0566,6.093,6.063,6.0297,5.9819,0.0,0.0,0.0,0.0,0.0,0.0,0.0,5.7881,5.7881,5.7881,5.7628,5.7233,5.6972,5.7409,5.6594,5.5712,5.6453,5.5918,5.5388,5.6196,5.6735,5.7393,5.8441,5.889,5.9099,5.9099,5.9099,5.8495,5.6508,5.5211,5.367,5.1741,5.0436,4.959,4.959,5.0067,5.0645,5.1222,5.1774,5.2327,5.2879,5.2929,5.2929,5.2929,5.2929,5.2929,5.2929,5.2929,5.2929,5.2929,5.2929,5.2929,5.2929,5.2929,5.2929,5.2929,5.2929,5.2929,5.2767,5.0857,4.9819,4.9224,4.7175,4.5276,4.3511,4.3511,4.2746,4.1816,4.1894,4.2422,4.3086,0.0,0.0,0.0,0.0,0.0,0.0,0.0,0.0,0.0,0.0,0.0,0.0,0.0,0.0,0.0,0.0,0.0,0.0,0.0,0.0,4.8306,4.8306,4.8673,4.9114,4.9591,5.0765,5.1573,5.1977,5.2747,5.3371,5.3812,5.4583,5.539,5.6198,5.7005,5.7813,5.8621,5.9024,5.9648,6.0419,6.1263,6.1579,6.1531,6.1142,6.0458,5.9639,5.8737,0.0,0.0,0.0,0.0,0.0,0.0,0.0,5.7876,5.7733,5.7686,5.7658,5.7335,5.6829,5.6367,5.6189,5.5651,5.5448,5.6406,5.6855,5.7483,5.883,5.9099,5.9099,5.9099,5.8495,5.744,5.5907,5.4268,5.27,5.1016,5.0078,4.959,4.959,4.9841,5.0243,5.082,5.1122,5.1649,5.2477,5.2528,5.2653,5.2904,5.2929,5.2929,5.2929,5.2929,5.2929,5.2929,5.2929,5.2929,5.2929,5.2929,5.2929,5.2929,5.2929,5.2929,5.2767,5.0857,4.9961,4.9819,4.6882,4.4977,4.3945,4.3075,4.2182,4.1523,4.1719,4.209,4.2519,0.0,0.0,0.0,0.0,0.0,0.0,0.0,0.0,0.0,0.0,0.0,0.0,0.0,0.0,0.0,0.0,0.0,0.0,0.0,0.0,0.0,4.8526,4.915,4.9664,4.9994,5.1316,5.205,5.2197,5.3665,5.4473,5.462,5.5427,5.6161,5.6859,5.7776,5.8584,5.9245,5.9501,6.0382,6.1594,6.1741,6.2132,6.2515,6.1715,6.0879,6.0086,5.9178,5.8458,5.7881,5.7881,0.0,0.0,0.0,0.0,5.8039,5.7775,5.8111,5.8264,5.6942,5.6809,5.6704,5.5451,5.5179,5.5508,5.6795,5.7094,5.7483,5.883,5.9099,5.9099,5.9099,5.8026,5.6508,5.4741,5.3308,5.1741,4.9847,4.959,4.959,4.959,4.959,4.9816,5.0368,5.0419,5.0845,5.1875,5.1975,5.2176,5.2628,5.2729,5.2779,5.2779,5.2879,5.2929,5.2929,5.2929,5.2929,5.2929,5.2929,5.2929,5.2929,5.2929,5.2929,5.2792,5.1163,5.0551,5.0269,4.7029,4.5403,4.4977,4.338,4.235,4.1812,4.1993,4.2034,4.1894,0.0,0.0,0.0,0.0,0.0,0.0,0.0,0.0,0.0,0.0,4.9416,4.9043,0.0,0.0,0.0,0.0,0.0,0.0,4.8306,0.0,0.0,4.937,4.9444,5.0178,5.1646,5.1867,5.2344,5.3041,5.3959,5.4766,5.5464,5.6271,5.6712,5.6859,5.8364,5.9098,5.9318,6.0676,6.141,6.1667,6.2365,6.2303,6.1659,6.0879,6.0023,5.9178,5.8317,5.8027,5.7881,5.7881,5.7881,0.0,0.0,0.0,5.8788,5.8815,5.9064,5.9284,5.91,5.8058,5.6704,5.5451,5.5179,5.5508,5.6795,5.7094,5.7483,5.883,5.9099,5.9099,5.9099,5.8882,5.7804,5.4859,5.4268,5.3093,5.0078,4.959,4.959,4.959,4.959,4.9816,5.0368,5.0419,5.0695,5.1348,5.1398,5.1423,5.1498,5.195,5.2226,5.2226,5.2678,5.2929,5.2929,5.2929,5.2929,5.2929,5.2929,5.2929,5.2929,5.2929,5.2929,5.2929,5.2629,5.2491,5.2491,5.1886,5.0717,4.9224,4.8938,4.6735,4.3663,4.3725,4.2961,4.2112,0.0,0.0,0.0,0.0,0.0,0.0,0.0,0.0,0.0,0.0,0.0,4.8911,0.0,0.0,0.0,4.8306,4.8306,4.8306,4.8306,4.8746,4.9187,4.9554,5.0435,5.1242,5.1977,5.2454,5.3078,5.3885,5.4693,5.5464,5.6308,5.7116,5.7703,5.818,5.8877,5.9722,6.0603,6.13,6.1615,6.1656,6.202,6.1659,6.0879,6.0519,5.9832,5.9044,5.8668,5.8246,5.7881,5.7881,5.7881,5.7949,5.8389,0.0,0.0,0.0,6.0415,6.0317,5.9402,5.8106,5.6704,5.5451,5.5179,5.5508,5.6795,5.7094,5.7483,5.883,5.9099,5.9099,5.9099,5.8386,5.6962,5.4741,5.367,5.2236,4.995,4.959,4.959,4.959,4.959,4.969,4.9941,4.9967,5.0193,5.0745,5.0795,5.0946,5.1272,5.1498,5.1649,5.1649,5.1875,5.2151,5.2477,5.2477,5.2628,5.2929,5.2929,5.2929,5.2929,5.2929,5.2929,5.2929,5.2929,5.2929,5.2792,5.1747,5.0717,4.9819,4.8794,4.7321,4.5701,4.5701,4.5256,4.4888,0.0,0.0,0.0,0.0,0.0,0.0,0.0,0.0,0.0,0.0,0.0,0.0,0.0,0.0,0.0,0.0,4.8642,4.8788,4.893,4.9554,4.9994,5.0178,5.1353,5.2087,5.2307,5.3078,5.3812,5.4399,5.539,5.6198,5.6822,5.785,5.8637,5.9176,5.9176,6.0127,6.1594,6.139,6.1425,6.1604,6.1343,6.082,6.0086,6.0086,5.9509,5.8806,5.8806,5.8388,5.7915,5.8118,5.8186,5.8321,5.9066,5.9438,0.0,0.0,0.0,6.1245,5.9654,5.836,5.7181,5.6017,5.5481,5.5508,5.6795,5.7094,5.7483,5.883,5.9099,5.9099,5.9099,5.8136,5.6622,5.4741,5.3429,5.1865,4.9822,4.959,4.959,4.959,4.959,4.959,4.959,4.959,4.9766,5.0167,5.0218,5.0393,5.082,5.0996,5.1071,5.1071,5.1197,5.1473,5.19,5.2026,5.2302,5.2729,5.2854,5.2929,5.2929,5.2929,5.2929,5.2929,5.2929,5.2929,5.2792,5.1303,5.0717,5.0576,4.9105,4.8217,4.7759,4.7759,4.7467,4.7096,0.0,0.0,0.0,0.0,0.0,0.0,0.0,0.0,0.0,0.0,0.0,0.0,4.8911,4.9202,4.9295,4.8878,4.9554,5.0194,5.0659,5.0729,5.1096,5.183,5.194,0.0,5.3115,5.3922,5.4363,5.4399,5.5978,5.6748,5.6822,5.84,5.9164,5.9239,5.9239,6.0077,6.1532,6.0813,6.0902,6.1548,6.076,5.996,5.9178,5.9178,5.8703,5.7954,5.7954,5.7954,5.8017,5.8727,5.8964,5.9066,5.981,6.0554,6.1197,0.0,0.0,0.0,6.0837,5.961,5.8451,5.7181,5.6085,5.5508,5.6795,5.7094,5.7483,5.883,5.9099,5.9099,5.9099,5.8991,5.7915,5.4859,5.4268,5.3187,5.0078,4.959,4.959,4.959,4.959,4.959,4.959,4.959,4.9615,4.964,4.964,4.9665,4.969,5.0167,5.0469,5.0469,5.0996,5.1297,5.1322,5.185,5.2126,5.2151,5.2678,5.2929,5.2929,5.2929,5.2929,5.2929,5.2929,5.2929,5.2929,5.2792,5.2767,5.2767,5.2629,5.1443,4.9819,4.9819,4.865,4.7321,0.0,0.0,0.0,0.0,0.0,0.0,0.0,0.0,0.0,0.0,0.0,0.0,0.0,4.9328,4.9732,4.9381,5.0082,5.0632,5.0765,5.1279,5.1683,5.1977,5.2968,5.3665,5.3959,5.4766,5.5427,5.5941,5.6528,5.7336,5.8317,5.836,5.9292,6.0733,6.0733,6.0772,6.0891,6.1606,6.1171,6.0051,6.0273,5.9574,5.8317,5.8317,5.8137,5.7881,5.7881,5.8186,5.866,5.893,5.9336,5.9844,6.0622,6.1061,6.14,6.1873,6.2178,6.211,6.0953,5.9697,5.8542,5.7245,5.6085,5.5418,5.6286,5.6795,5.7363,5.8291,5.88,5.9099,5.9099,5.9099,5.8055,5.4859,5.4386,5.3335,5.0078,4.959,4.959,4.959,4.959,4.959,4.959,4.959,4.959,4.959,4.959,4.959,4.959,4.9791,4.9891,4.9891,5.0092,5.0368,5.072,5.1297,5.1574,5.1574,5.2126,5.2402,5.2402,5.2754,5.2929,5.2929,5.2929,5.2929,5.2929,5.2929,5.2929,5.2929,5.2929,5.2491,5.1886,5.1886,5.1443,5.0857,0.0,0.0,0.0,0.0,0.0,0.0,0.0,0.0,0.0,0.0,0.0,0.0,0.0,0.0,5.0701,5.06,5.0959,5.1316,5.161,5.2344,5.2821,5.2821,5.4069,5.4803,5.4803,5.506,5.5595,5.6426,5.6694,5.7361,5.8413,5.8957,5.9651,6.0413,6.122,6.1299,6.082,6.1055,6.0361,5.9111,5.9478,5.8909,5.7881,5.7881,5.8051,5.822,5.7983,5.8524,5.937,5.937,5.9877,6.0655,6.1434,6.167,6.1772,6.2245,6.2381,6.2223,6.1399,6.0332,5.9258,5.8419,5.6991,5.6001,5.6668,5.6775,5.7034,5.7932,5.8471,5.883,5.9069,5.9099,5.8276,5.556,5.4741,5.3429,5.079,4.995,4.959,4.959,4.959,4.959,4.959,4.959,4.959,4.959,4.959,4.959,4.959,4.959,4.959,4.959,4.959,4.9766,5.0142,5.072,5.0996,5.0996,5.1548,5.1825,5.185,5.2201,5.2477,5.2653,5.2653,5.2754,5.2929,5.2929,5.2929,5.2929,5.2929,5.2929,5.2929,5.2929,5.2929,5.2929,0.0,0.0,0.0,0.0,0.0,0.0,0.0,0.0,0.0,4.8885,0.0,0.0,0.0,0.0,0.0,5.2493,5.2259,5.2417,5.3225,5.3995,5.4436,5.4436,5.5207,5.5611,5.5611,5.4876,5.4894,5.5794,5.6499,5.6876,5.7034,6.0046,6.0212,5.8071,6.0463,6.1512,6.1343,5.9011,5.8388,5.8976,5.8246,5.7954,5.7881,5.7881,5.8355,5.893,5.8186,5.8863,6.0148,6.0148,6.0655,6.1467,6.2178,6.2381,6.2381,6.2381,6.2381,6.2381,0.0,0.0,0.0,6.0586,5.878,5.7242,5.7859,5.709,5.6629,5.7812,5.8082,5.8291,5.8949,5.9069,5.8605,5.7075,5.5444,5.391,5.2209,5.0664,4.959,4.959,4.959,4.959,4.959,4.959,4.959,4.959,4.959,4.959,4.959,4.959,4.959,4.959,4.959,4.959,4.959,5.0117,5.0393,5.0393,5.0971,5.1247,5.1247,5.1272,5.1574,5.2076,5.2076,5.2402,5.2904,5.2929,5.2929,5.2929,5.2929,5.2929,5.2929,5.2929,5.2929,5.2929,0.0,0.0,0.0,0.0,0.0,0.0,4.9445,4.9295,4.93,0.0,0.0,0.0,5.0599,5.1412,5.2486,5.3728,5.3787,5.4069,5.4876,5.5133,5.5244,5.5244,5.6051,5.6455,5.6455,5.6822,5.712,5.7366,5.7572,5.7999,5.8532,5.8835,5.9205,5.9678,5.9175,5.9245,5.9797,5.9704,5.9145,5.8246,5.8633,5.8458,5.7881,5.7881,5.8355,5.8998,5.8795,5.9674,6.096,6.096,6.1467,6.211,6.2313,6.2381,6.2381,6.2381,6.2381,6.2381,6.2381,0.0,0.0,0.0,0.0,0.0,5.7399,5.7382,5.7312,5.6822,5.7064,5.7573,5.8261,5.8411,5.8423,5.8436,5.7075,5.5066,5.2332,5.1616,5.0916,4.9719,4.959,4.959,4.959,4.959,4.959,4.959,4.959,4.959,4.959,4.959,4.959,4.959,4.959,4.959,4.959,4.9741,4.9816,4.9816,5.0393,5.067,5.067,5.1096,5.1373,5.1498,5.1498,5.1825,5.2352,5.2754,5.2929,5.2929,5.2929,5.2929,5.2929,5.2929,5.2929,5.2929,0.0,0.0,0.0,0.0,0.0,0.0,4.9652,4.9599,4.9735,0.0,0.0,0.0,5.2242,5.2711,5.3518,5.4803,5.4913,5.5097,5.5574,5.5904,5.6088,5.6088,5.6859,5.7308,5.7316,5.7097,5.7144,5.7504,5.7469,5.7765,5.8198,5.8706,5.909,5.9346,5.8703,5.8494,5.8633,5.9145,5.8772,5.7954,5.8458,5.8317,5.7915,5.8254,5.8829,5.9471,5.9471,6.0452,6.1704,6.14,6.1772,6.2381,6.2381,6.2381,6.2381,6.2381,6.2381,6.2381,6.2381,6.187,6.1317,6.1317,0.0,0.0,5.7993,5.7683,5.7315,5.6383,5.6466,5.6915,5.7573,5.7693,5.7812,5.8201,5.7449,5.6214,5.4276,5.3429,5.2359,5.079,5.0537,5.0308,4.9719,4.959,4.959,4.959,4.959,4.959,4.959,4.959,4.959,4.959,4.959,4.959,4.959,4.959,4.959,4.959,4.9916,5.0067,5.0092,5.0419,5.0695,5.0921,5.0921,5.1247,5.1774,5.2101,5.2528,5.2929,5.2929,5.2929,5.2929,5.2929,5.2929,5.2929,0.0,0.0,0.0,4.9356,4.915,4.9219,4.9928,4.9898,4.9994,0.0,5.172,5.2858,5.4363,5.4509,5.484,5.5647,5.5721,5.5757,5.5868,5.6528,0.0,0.0,5.774,5.8105,5.8123,5.6701,5.6288,5.6932,5.6895,5.6912,5.6934,5.9099,5.9346,5.7954,5.8633,5.8564,5.7881,5.7881,5.7881,5.7881,5.7881,5.7983,5.8186,5.8795,5.9505,6.0216,6.0216,6.1163,6.2279,6.1637,6.1839,6.2381,6.2381,6.2381,6.2381,6.2381,6.2381,6.2381,6.2381,6.2381,6.2381,6.2381,6.1595,0.0,5.9258,5.8177,5.7242,5.6577,5.6526,5.6636,5.7062,5.7182,5.7213,5.7094,5.7094,5.6954,5.6673,5.5447,5.3947,5.2455,5.2112,5.1367,4.995,4.9719,4.959,4.959,4.959,4.959,4.959,4.959,4.959,4.959,4.959,4.959,4.959,4.959,4.959,4.959,4.959,4.959,4.959,4.959,4.9866,5.0318,5.0318,5.0645,5.1197,5.1197,5.18,5.2754,5.2754,5.2754,5.2754,5.2754,5.2754,5.2754,0.0,4.8532,4.8532,4.8532,4.9048,4.9525,4.9673,5.0184,5.0839,5.1646,5.3041,5.4289,5.5244,5.5354,5.5684,5.6492,5.6565,5.6859,5.7483,5.7666,0.0,0.0,0.0,5.8945,5.9005,5.8664,5.8267,5.7728,5.7686,5.7671,5.7679,5.814,5.8209,5.7881,5.8065,5.8065,5.7881,5.7881,5.7881,5.7881,5.7881,5.8592,5.9607,5.9167,5.9877,6.1061,6.1061,6.1637,6.2381,6.2212,6.2279,6.2381,6.2381,6.2381,6.2381,6.2381,6.2381,6.2381,6.2381,6.2381,6.2381,6.2381,6.2223,0.0,6.0501,6.0075,5.9555,5.8518,5.8274,5.8248,5.7912,5.7839,5.7656,5.7213,5.7094,5.6805,5.5983,5.5621,5.511,5.4094,5.2822,5.1865,5.1492,5.0308,4.959,4.959,4.959,4.959,4.959,4.959,4.959,4.959,4.959,4.959,4.959,4.959,4.959,4.959,4.959,4.959,4.959,4.959,4.9665,4.9766,4.9766,5.0067,5.0594,5.0594,5.0996,5.1599,5.1599,5.1599,5.1599,5.1599,5.1599,5.1599,4.8306,4.8636,4.893,4.893,4.9627,5.0325,5.0729,5.1132,5.183,5.3041,5.4252,5.528,5.6124,5.6198,5.6528,5.7336,5.7776,0.0,0.0,0.0,5.9391,0.0,0.0,5.92,5.9209,5.8745,5.8339,5.7877,5.7877,5.7905,5.7881,5.7881,5.7881,5.7881,5.7881,5.7881,5.7915,5.8287,5.866,5.8964,5.8592,5.8896,5.9607,6.0013,6.0622,6.1366,6.1704,6.2076,6.2381,6.2381,6.2381,6.2381,6.2381,6.2381,6.2381,6.2381,6.2381,6.2381,6.2381,6.2381,6.2381,6.2381,6.2381,0.0,0.0,6.0586,6.0247,5.9081,5.8812,5.8728,5.8466,5.8436,5.809,5.7198,5.7059,5.6768,5.5995,5.627,5.5991,5.4714,5.3939,5.3096,5.2296,5.1014,5.0129,4.9694,4.959,4.959,4.959,4.959,4.959,4.959,4.959,4.959,4.959,4.959,4.959,4.959,4.959,4.959,4.959,4.959,4.959,4.959,4.959,4.9741,5.0017,5.0017,5.0167,5.0494,5.1071,5.1272,5.1272,5.1272,5.1272,5.1272,4.8563,4.9114,4.9627,4.9774,5.0508,5.1242,5.1903,5.227,5.3041,5.4656,5.5427,5.6124,5.6932,5.7042,5.729,5.792,5.8615,5.9054,5.92,5.9822,6.0311,6.0639,5.988,5.9414,5.9441,5.8602,5.8084,5.7881,5.7881,5.7881,5.7881,5.7881,5.7881,5.7881,5.7881,5.7983,5.8152,5.8761,5.9438,6.0047,5.9641,5.9539,5.9776,6.0892,6.14,6.1603,6.2178,6.2381,6.2381,6.2381,6.2381,6.2381,6.2381,6.2381,6.2381,6.2381,6.2381,6.2381,6.2381,6.2381,6.2381,0.0,0.0,6.211,0.0,0.0,0.0,5.9697,5.9522,5.9434,5.917,5.917,5.8659,5.734,5.7088,5.6761,5.6194,5.6522,5.6377,5.538,5.4944,5.4284,5.302,5.1954,5.0804,4.985,4.985,4.9799,4.9439,4.954,4.959,4.959,4.959,4.959,4.959,4.959,4.959,4.959,4.959,4.959,4.959,4.959,4.959,4.959,4.959,4.959,4.959,4.959,4.959,4.969,5.0594,5.0946,5.0946,5.0946,5.0946,5.0946,4.9444,4.9517,4.9811,5.0545,5.1316,5.1867,5.1977,5.3188,5.4693,5.6345,5.6602,5.6969,5.7776,5.785,5.7909,5.7991,5.8083,5.8408,5.9148,5.9292,5.9953,6.141,6.0679,6.0239,6.0255,5.9434,5.86,5.7881,5.7881,5.7881,5.7881,5.7881,5.7881,5.7881,5.7881,5.8254,5.8896,5.8964,5.9438,6.0148,6.0791,6.1434,6.1941,6.1467,6.1704,6.2279,6.2347,6.2381,6.2381,0.0,6.2381,6.2381,6.2381,6.2381,6.2381,6.2381,6.2381,6.2381,6.2381,6.2381,0.0,0.0,6.2381,0.0,6.2223,0.0,6.211,6.203,0.0,6.1676,6.0586,0.0,0.0,5.7948,5.7306,5.671,5.6025,5.5637,5.5807,5.6735,5.5625,5.4725,5.4505,5.3189,5.1657,5.0217,5.0568,5.0266,4.8989,4.9339,4.959,4.959,4.959,4.959,4.959,4.959,4.959,4.959,4.959,4.959,4.959,4.959,4.959,4.959,4.959,4.959,4.959,4.959,4.959,4.9615,4.9741,4.9791,4.9791,4.9791,4.9791,4.9791,4.9664,5.0325,5.1096,5.1426,5.2527,5.3371,5.3371,5.4766,5.6051,5.6712,5.7629,5.8327,5.8657,5.9098,5.9176,5.8717,5.9096,5.9529,5.9853,6.0341,6.1098,6.2242,6.1043,6.038,6.0397,5.9078,5.828,5.7881,5.7881,5.7881,5.7881,5.7881,5.7881,5.7881,5.7881,5.8051,5.8423,5.9268,5.981,6.0216,6.1434,6.211,6.2347,6.2042,6.211,6.2381,6.2381,6.2381,6.2381,0.0,6.2381,0.0,0.0,0.0,6.2381,6.2381,6.2381,6.2381,6.2381,0.0,0.0,0.0,0.0,0.0,6.2381,0.0,6.2381,6.2381,0.0,0.0,0.0,0.0,0.0,0.0,5.924,5.8774,5.7706,5.7464,5.695,5.6101,5.5442,5.4797,5.4259,5.3632,5.2404,5.034,5.0364,4.9915,4.8385,4.8485,4.8611,4.8611,4.8937,4.9113,4.9113,4.9439,4.959,4.959,4.959,4.959,4.959,4.959,4.959,4.959,4.959,4.959,4.959,4.959,4.959,4.959,4.959,4.959,4.959,4.959,4.959,4.959,5.0362,5.1206,5.2123,5.2564,5.3628,5.4546,5.4987,5.6051,5.6969,5.7409,5.8474,5.9281,5.9501,5.9822,5.9838,5.9238,5.9495,5.9809,6.0023,6.0581,6.1286,6.2112,6.082,6.0023,6.0058,5.8633,5.7881,5.7881,5.7881,5.7881,5.7881,5.7881,5.8017,5.8186,5.8186,5.8423,5.8896,5.9979,6.0554,6.0825,6.1941,6.2381,6.2381,6.2381,6.2381,6.2381,6.2381,6.2381,6.2381,6.2381,6.2381,0.0,6.2381,6.2381,6.2381,6.2381,6.2381,6.2381,6.2381,0.0,0.0,0.0,0.0,0.0,0.0,0.0,0.0,0.0,6.2381,0.0,0.0,0.0,6.2043,6.0968,0.0,6.0266,5.9176,5.8863,5.7993,5.5918,5.5381,5.4921,5.4264,5.4216,5.3286,5.1122,5.073,4.989,4.837,4.8055,4.7908,4.7908,4.8309,4.8535,4.8535,4.8937,4.9138,4.9138,4.9289,4.9364,4.9364,4.9515,4.959,4.959,4.959,4.959,4.959,4.959,4.959,4.959,4.959,4.959,4.959,4.959,4.959,4.959,5.1903,5.194,5.2491,5.4032,5.4363,5.495,5.6492,5.6785,5.7373,5.8951,5.9171,5.9501,6.0272,5.9677,5.9238,5.9182,5.8485,5.8314,5.9108,5.9178,5.9574,6.0397,5.9639,5.9145,5.9247,5.8351,5.7881,5.7881,5.7881,5.7881,5.7881,5.7881,5.8287,5.8964,5.8964,5.981,6.1197,6.1231,6.167,6.2313,6.2381,6.2381,6.2381,6.2381,6.2381,6.2381,6.2381,0.0,0.0,6.2381,6.2381,0.0,0.0,0.0,0.0,0.0,0.0,0.0,0.0,0.0,0.0,6.2381,0.0,0.0,0.0,0.0,6.2381,0.0,0.0,0.0,6.2381,6.2381,6.2144,6.1356,6.0884,0.0,0.0,5.9101,5.836,5.7086,5.5918,5.5209,5.5108,5.5108,5.4568,5.302,5.2016,5.0884,4.9376,4.8416,4.7908,4.7908,4.7933,4.7933,4.7933,4.7958,4.7958,4.7958,4.8535,4.8786,4.8812,4.9339,4.959,4.959,4.959,4.959,4.959,4.959,4.959,4.959,4.959,4.959,4.959,4.959,4.959,4.959,5.3592,5.3995,5.4399,5.4399,5.528,5.6345,5.7446,5.807,5.8359,5.8391,5.9797,6.0478,5.9705,6.032,6.0339,5.9219,5.8863,5.8767,5.9111,5.9639,6.0086,6.0432,6.0086,5.9704,5.9145,5.8317,5.7881,5.7881,5.7881,5.7881,5.7915,5.8389,5.8761,5.9032,5.9505,6.0013,6.0554,6.1061,6.1434,6.1704,6.2178,6.2381,6.2381,0.0,6.2381,6.2381,6.2381,6.2381,0.0,6.2381,6.2381,6.2381,6.2381,6.2381,6.2381,6.2381,6.2381,0.0,0.0,0.0,6.2381,6.2381,0.0,0.0,0.0,0.0,0.0,0.0,0.0,0.0,0.0,6.2009,6.1603,6.1332,6.0718,6.0181,0.0,5.9053,5.8352,5.7893,5.6964,5.6347,5.6347,5.5651,5.4641,5.3069,5.2709,5.1377,4.8912,4.842,4.7863,4.6853,4.7205,4.738,4.738,4.7732,4.7908,4.7908,4.8109,4.8209,4.8209,4.8385,4.8485,4.8485,4.8485,4.8485,4.8485,4.8485,4.8485,4.8485,4.8485,4.8485,4.856,4.9314,4.959,4.959,5.4766,5.5464,5.5868,5.5354,5.6345,5.7519,5.829,5.8652,5.8783,5.8825,5.996,6.0466,5.9678,6.026,6.03,5.9178,5.8806,5.8668,5.8668,5.9212,5.9543,5.9543,5.9543,5.9279,0.0,5.8137,5.7881,5.7881,5.7881,5.8017,5.8287,5.8795,5.9302,5.9844,6.0317,6.0655,6.096,6.1467,6.167,6.1738,6.2212,6.2381,6.2381,0.0,6.2381,6.2381,0.0,6.2381,6.2381,6.2381,6.2381,6.2381,6.2381,6.2381,6.2381,6.2381,6.2381,6.2381,6.2381,6.2381,0.0,6.2381,6.2381,0.0,6.2381,0.0,0.0,0.0,0.0,0.0,0.0,6.1569,6.096,6.1264,6.0622,6.0114,0.0,5.9399,5.8973,5.8973,5.7956,5.709,5.6619,5.6128,5.529,5.386,5.3308,5.2187,5.0184,4.9621,4.8647,4.7087,4.7445,4.7409,4.6853,4.7179,4.733,4.733,4.7531,4.7631,4.7631,4.7832,4.7908,4.7908,4.7908,4.7908,4.7908,4.7908,4.7908,4.7908,4.7908,4.7908,4.7983,4.8736,4.8987,4.8987,5.55,5.6308,5.6895,5.6932,5.7556,5.8327,5.9098,5.8587,5.8664,6.0178,5.9679,5.9522,6.0203,5.9574,5.9111,5.9044,5.8317,5.7881,5.7881,5.7954,5.7954,5.7881,5.7954,5.7954,5.7881,0.0,0.0,5.7881,5.7915,5.8321,5.9032,5.9099,5.9911,6.1298,6.1332,6.1738,6.2381,6.2381,6.2381,6.2381,6.2381,6.2381,6.2381,6.2381,6.2381,6.2381,6.2381,6.2381,6.2381,6.2381,6.2381,6.2381,6.2381,6.2381,6.2381,6.2381,6.2381,6.2381,6.2381,6.2381,6.2381,6.2381,0.0,0.0,0.0,0.0,6.2381,0.0,0.0,0.0,0.0,0.0,6.0351,6.1061,6.052,5.9979,5.9979,5.9979,5.9979,5.9979,5.8576,5.7217,5.6031,5.6557,5.648,5.522,5.3831,5.3069,5.2963,5.1618,5.0157,4.8647,4.8647,4.786,4.6421,4.6421,4.6421,4.6326,4.6853,4.7104,4.7104,4.7606,4.7832,4.7832,4.7832,4.7832,4.7832,4.7832,4.7832,4.7832,4.7832,4.7832,4.7832,4.7883,4.7908,4.7908,5.6455,5.7152,5.7886,5.851,5.8767,5.8988,5.9171,5.9532,5.9725,5.9549,5.9881,5.9685,5.8633,5.8875,5.8875,5.8246,5.8027,5.7881,5.7881,5.8424,5.8494,5.7954,5.8494,5.8494,5.7881,5.7881,5.7881,5.7881,5.8457,5.8829,5.9032,6.0182,6.0926,6.1332,6.1873,6.2212,6.2381,6.2381,6.2381,6.2381,6.2381,6.2381,6.2381,0.0,6.2381,6.2381,6.2381,6.2381,6.2381,6.2381,6.2381,6.2381,6.2381,6.2381,6.2381,6.2381,6.2381,6.2381,6.2381,6.2381,6.2381,6.2381,6.2381,6.2381,0.0,0.0,0.0,0.0,0.0,0.0,0.0,0.0,5.9979,5.9674,5.8964,5.8457,5.8457,5.8457,5.8457,5.8457,5.7885,5.7177,5.6575,5.6277,5.5708,5.456,5.4577,5.4171,5.3069,0.0,5.1727,5.0157,5.0157,4.9395,4.7977,4.7977,4.7416,4.6301,4.6451,4.6527,4.6527,4.6652,4.6728,4.6728,4.6728,4.6728,4.6728,4.6728,4.6728,4.6728,4.6728,4.6728,4.6828,4.7606,4.7908,4.7908,5.7262,5.796,5.8564,5.8677,5.9283,5.9721,5.9721,6.0086,6.0244,5.9749,5.9804,5.9443,5.8494,5.8494,5.8388,5.7954,5.7881,5.7881,5.7881,5.8317,5.8388,5.7881,5.8317,5.8388,5.7881,5.7881,0.0,5.8389,5.8795,5.9336,6.0047,6.0892,6.1467,6.1806,6.2212,6.2381,6.2381,6.2381,6.2381,6.2381,6.2381,6.2381,0.0,6.2381,6.2381,6.2381,6.2381,6.2381,6.2381,6.2381,6.2381,6.2381,6.2381,6.2381,6.2381,6.2381,6.2381,6.2381,6.2381,6.2381,6.2381,6.2381,6.2381,6.2381,6.2381,6.2381,6.2313,0.0,0.0,0.0,0.0,0.0,0.0,5.8592,5.8152,5.7881,5.7881,5.7881,5.7881,5.7881,5.7775,5.7342,5.6579,5.591,5.5191,5.4587,5.4368,5.4101,5.3524,0.0,5.299,5.1699,5.1727,5.0933,4.9508,4.9508,4.8736,4.7324,4.7977,4.7508,4.6301,4.6968,4.6874,4.6301,4.6301,4.6301,4.6301,4.6301,4.6301,4.6301,4.6301,4.6301,4.6376,4.6979,4.7205,4.7205,5.7997,5.8637,5.8908,5.8461,5.9403,6.0228,6.0188,6.0224,6.0246,6.0264,5.9509,5.8943,5.8943,5.8317,5.7881,5.7881,5.7881,5.7881,5.7881,5.7881,5.7881,5.7881,5.7881,5.7881,5.7881,5.7881,5.8254,5.9032,5.9099,5.9877,6.1298,6.14,6.1772,6.2381,6.2381,6.2381,6.2381,6.2381,6.2381,6.2381,6.2381,6.2381,6.2381,6.2381,6.2381,6.2381,6.2381,6.2381,6.2381,6.2381,6.2381,6.2381,6.2381,6.2381,6.2381,6.2381,6.2381,6.2381,6.2381,6.2381,6.2381,6.2381,6.2381,6.2347,6.2279,6.2245,6.2042,6.1298,6.0588,6.008,0.0,0.0,0.0,5.7701,5.7701,5.7628,5.748,5.7554,5.7701,5.7701,5.7554,0.0,5.6437,5.5741,5.5156,5.5005,5.4107,5.3803,5.4209,0.0,5.3882,5.3019,5.3048,5.2252,5.0793,0.0,5.0159,4.863,5.0017,4.9395,4.6968,4.8184,4.8094,4.6849,4.6849,4.6755,4.6661,4.6661,4.6421,4.6301,4.6541,4.6421,4.6301,4.6301,4.6301,4.6301,5.8841,5.8542,5.8605,5.9799,5.9638,5.938,5.9324,5.9364,5.9334,5.9342,5.8633,5.8137,5.8137,5.8027,5.7881,5.7881,5.7881,5.7881,5.7881,0.0,0.0,5.7881,5.7881,5.7881,5.7881,5.7881,5.8254,5.9032,5.9607,6.0385,6.1332,6.1907,6.2279,6.2381,6.2381,6.2381,6.2381,6.2381,6.2381,6.2381,6.2381,6.2381,6.2381,6.2381,6.2381,6.2381,6.2381,6.2381,6.2381,6.2381,6.2381,6.2381,6.2381,6.2381,6.2381,6.2381,6.2381,6.2381,6.2381,6.2381,6.2381,6.2381,6.2381,6.2245,6.1637,6.1501,6.1264,6.0486,6.0216,5.9911,5.9302,0.0,0.0,0.0,0.0,0.0,0.0,5.5968,5.6547,5.6547,5.573,5.581,5.7446,5.7074,5.6395,5.5548,5.5739,5.5615,5.4791,0.0,5.4287,0.0,5.3208,0.0,0.0,0.0,5.0966,4.9529,5.0354,5.0491,4.9932,5.0157,5.0157,4.9932,4.9932,4.9281,4.8094,4.8094,4.7416,4.6421,4.7652,4.7416,4.6301,4.6301,4.6301,4.6301,5.8536,5.8625,5.8752,5.9087,5.9179,5.9155,5.9108,5.8737,5.8633,5.9044,5.8737,5.8494,5.8494,5.8137,5.7881,5.7881,5.7881,5.7881,5.7881,5.7881,5.7881,5.7881,5.7881,5.7881,5.7881,5.7881,5.8457,5.9573,5.9945,6.0723,6.1873,6.2212,6.2381,6.2381,6.2381,6.2381,6.2381,6.2381,0.0,6.2381,6.2381,6.2381,6.2381,6.2381,6.2381,6.2381,6.2381,6.2381,6.2381,6.2381,6.2381,6.2381,6.2381,6.2381,6.2381,6.2381,6.2381,6.2381,6.2381,6.2381,6.2381,6.2381,6.211,6.1738,6.1366,6.0994,6.0452,5.9708,5.9539,5.9302,5.8558,5.7715,0.0,0.0,0.0,0.0,0.0,5.541,5.5377,5.5377,5.492,5.5247,5.6887,5.6768,5.6253,5.5185,5.479,5.4286,5.3556,0.0,5.336,0.0,0.0,0.0,0.0,0.0,0.0,5.0452,5.147,5.1193,4.9801,5.0556,5.0449,4.9692,4.9692,4.9255,4.8646,4.9054,4.8899,4.8621,4.9395,4.8736,4.7416,4.7416,4.6968,4.6301,5.832,5.8623,5.8808,5.8342,5.8528,5.8875,5.8875,5.8317,5.8137,5.8737,5.8875,5.8875,5.8875,5.8246,5.7881,5.7881,5.7881,5.7881,5.7881,5.7881,5.7881,5.7881,5.7881,5.7881,5.7881,5.8051,5.8761,0.0,0.0,6.0994,6.2144,6.2313,6.2381,6.2381,6.2381,0.0,0.0,0.0,6.2381,6.2381,6.2381,6.2381,6.2381,6.2381,6.2381,6.2381,6.2381,6.2381,6.2381,6.2381,6.2381,6.2381,6.2381,6.2381,6.2381,6.2381,6.2381,6.2381,6.2381,6.2279,6.2144,6.2144,6.1603,6.0994,6.0858,6.0317,5.9674,5.893,5.8795,5.8592,5.8017,5.7554,0.0,0.0,0.0,0.0,0.0,5.497,5.4589,5.4589,5.4838,5.5296,5.6126,5.6437,5.6047,5.4672,5.3999,5.3295,5.2732,5.2513,5.2502,0.0,0.0,5.2755,5.2755,0.0,5.2447,0.0,5.2595,5.2,4.9792,5.096,5.0857,4.9687,4.9687,4.9581,4.9292,4.9765,5.0129,5.0326,5.0654,4.9912,4.8619,4.8619,4.7612,4.64,5.8981,5.8514,5.821,5.8903,5.846,5.8027,5.8027,5.7954,5.7954,5.8027,5.8027,5.8027,5.8027,5.7954,5.7881,5.7881,5.7881,5.7881,5.7881,5.7881,5.7881,5.7881,5.7881,5.7881,5.7881,5.8558,5.9302,0.0,0.0,6.1264,6.1434,6.2076,6.2381,6.2381,0.0,0.0,0.0,6.2381,6.2381,6.2381,6.2381,6.2381,6.2381,6.2381,6.2381,6.2381,6.2381,6.2381,6.2381,6.2381,6.2381,6.2381,6.2381,6.2381,6.2381,6.2381,6.2381,6.2381,6.2381,6.1907,6.14,6.14,6.0791,6.0047,5.937,5.9167,5.8896,5.8152,5.7983,5.7983,5.7915,5.6237,5.5247,0.0,0.0,0.0,0.0,0.0,5.4589,5.4589,5.5458,5.6126,5.6204,5.7114,5.6887,5.4755,5.5377,5.541,5.4433,5.3434,5.2337,5.1409,0.0,5.1409,5.1409,5.2007,0.0,5.2085,5.2808,5.3077,5.2753,5.2979,5.2979,5.2753,5.2753,5.203,5.0783,5.0812,5.0142,4.9111,5.0408,5.0065,4.8788,4.8788,4.7918,4.6724,0.0,5.8494,0.0,0.0,0.0,0.0,0.0,5.7881,5.7881,5.7881,5.7881,5.7881,5.7881,5.7881,5.7881,5.7881,5.7881,5.7881,5.7881,5.7881,5.7881,5.7881,5.7881,5.8084,5.8558,5.8863,5.9607,0.0,0.0,0.0,6.1975,6.2245,6.2381,0.0,0.0,6.2381,6.2381,6.2381,6.2381,6.2381,6.2381,6.2381,6.2381,6.2381,6.2381,6.2381,6.2381,6.2381,6.2381,6.2381,6.2381,6.2381,6.2381,6.2381,6.2381,6.2381,6.2381,6.2279,6.1873,6.1535,6.1197,6.0689,6.0013,5.937,5.9099,5.866,5.8254,5.7949,5.7881,5.7881,5.7881,5.7147,5.6734,0.0,0.0,0.0,0.0,0.0,5.3569,5.3569,5.3967,5.4221,5.4221,5.5247,5.581,5.5571,5.5968,5.5458,5.3656,5.3165,5.2395,5.1229,0.0,5.1229,5.1229,5.1468,5.1618,5.1618,5.1887,5.2007,5.2007,5.2007,5.2007,5.2007,5.2007,5.1899,5.1768,5.1768,5.1578,5.1497,5.2129,5.1396,5.0134,5.0134,4.8703,4.6652,5.8634,0.0,5.7881,0.0,5.7881,5.7881,5.7881,5.7881,5.7881,5.7881,5.7881,5.7881,5.7881,5.7881,5.7881,5.7881,5.7881,5.7881,5.7881,5.7881,5.7881,5.7881,5.7881,0.0,5.8998,5.9235,5.9979,6.1298,6.1535,0.0,0.0,0.0,0.0,0.0,6.2381,6.2381,6.2381,6.2381,6.2381,6.2381,6.2381,6.2381,6.2381,6.2381,6.2381,6.2381,6.2381,6.2381,6.2381,6.2381,6.2381,6.2381,6.2381,6.2381,6.2381,6.2381,6.2245,6.1941,6.1434,6.096,6.0486,5.9911,5.9235,5.8693,5.8693,5.8254,5.7881,5.7881,5.7881,5.7881,5.7881,5.7628,5.7372,5.7372,0.0,0.0,0.0,5.4052,5.3165,5.3796,5.3882,5.3742,5.3396,5.4389,5.5134,5.5215,5.5538,5.5052,5.3483,5.3077,0.0,0.0,0.0,0.0,0.0,5.1229,5.1229,5.1229,5.1229,5.1229,5.1229,5.1229,5.1229,5.1229,5.1229,5.1468,5.1917,5.1917,5.2187,5.2606,5.2606,5.1994,5.1046,5.1046,4.954,4.7433,5.7881,5.7881,5.7881,5.7881,5.7881,5.7881,5.7881,5.7881,5.7881,5.7881,5.7881,5.7881,5.7881,5.7881,5.7881,5.7881,5.7881,5.7881,5.7881,5.7881,5.7881,0.0,0.0,5.8254,5.8998,5.9708,6.0486,6.1298,0.0,0.0,6.1332,0.0,6.1704,6.2381,6.2381,6.2381,6.2381,6.2381,6.2381,6.2381,6.2381,6.2381,6.2381,6.2381,6.2381,6.2381,6.2381,6.2381,6.2381,6.2381,6.2381,6.2381,6.2381,6.2381,6.2381,6.2381,6.1873,6.1332,6.1298,6.0182,5.9032,5.9032,5.8457,5.7915,5.7915,5.7881,5.7881,5.7881,5.7881,5.7881,5.7881,5.6963,5.6204,5.6204,0.0,0.0,0.0,5.3656,0.0,5.5857,5.6204,5.5698,5.4672,5.5538,5.5296,5.3077,0.0,0.0,0.0,0.0,0.0,5.1229,5.1229,0.0,5.1229,5.1229,5.1229,5.1229,5.1229,5.1229,5.1229,5.1229,5.1229,5.1229,5.1229,5.1229,5.1229,5.1229,5.1229,5.1229,5.1229,5.1229,5.1229,5.1229,5.0316,4.8964,5.7881,5.7881,5.7881,5.7881,5.7881,5.7881,5.7881,5.7881,5.7881,5.7881,5.7881,5.7881,5.7881,5.7881,5.7881,0.0,5.7881,5.7881,0.0,5.7881,5.7881,5.7881,5.8389,5.8998,5.9742,6.052,6.1298,6.2042,0.0,0.0,0.0,6.2042,6.2178,6.2381,6.2381,6.2381,6.2381,6.2381,6.2381,6.2381,6.2381,6.2381,6.2381,6.2381,6.2381,6.2381,6.2381,6.2381,6.2381,6.2381,6.2381,6.2313,6.1806,6.1637,6.1637,6.1637,6.1095,6.0385,5.9877,5.937,5.8896,5.8389,5.8051,5.7881,5.7881,5.7881,5.7881,5.7881,5.7881,5.7628,5.6854,5.7039,5.6887,5.5329,5.4505,0.0,0.0,0.0,5.3483,5.4888,5.4389,5.3483,5.2395,5.3309,5.3967,0.0,0.0,0.0,0.0,0.0,0.0,0.0,5.1229,0.0,5.1229,5.1229,5.1229,5.1229,5.1229,5.1229,5.1229,5.1229,5.1229,5.1229,5.1229,5.1229,5.1229,5.1229,5.1229,5.1229,5.1229,5.1229,5.1229,5.1229,4.9776,4.7707,5.7881,5.7881,5.7881,5.7881,5.7881,5.7881,5.7881,5.7881,5.7881,5.7881,5.7881,5.7881,5.7881,5.7881,0.0,5.7881,5.7881,5.7881,5.7881,5.7881,5.7881,5.7881,5.8626,5.937,6.008,0.0,0.0,6.2381,6.2381,6.2381,6.2381,6.2381,6.2381,6.2381,6.2381,6.2381,6.2381,6.2381,6.2381,6.2381,6.2381,6.2381,6.2381,6.2381,6.2381,6.2381,6.2381,6.2381,6.2347,6.2076,6.1975,6.1839,6.1095,6.0655,6.0486,6.0757,6.0317,5.9607,5.9133,5.8795,5.849,5.8017,5.7881,5.7881,5.7881,5.7881,5.7881,5.7881,5.7881,5.7554,5.6437,5.7114,5.7072,5.4421,5.4337,5.4672,5.497,0.0,5.2812,0.0,0.0,0.0,0.0,5.2485,5.2989,0.0,0.0,0.0,0.0,0.0,0.0,5.1199,5.1229,0.0,5.1229,5.1229,5.1229,5.1229,5.1229,5.1229,5.1229,5.1229,5.1229,5.1229,5.1229,5.1229,5.1229,5.1229,5.1229,5.1229,5.1229,5.1229,5.1229,5.1229,4.9776,4.7808,5.7881,5.7881,0.0,0.0,5.7881,0.0,5.7881,5.7881,5.7881,5.7881,5.7881,5.7881,5.7881,5.7881,5.7881,5.7881,0.0,0.0,0.0,5.7881,5.7881,5.7881,5.866,5.9404,6.008,6.0926,6.1704,6.2381,6.2381,6.2381,6.2381,6.2381,6.2381,6.2381,6.2381,6.2381,6.2381,6.2381,6.2381,6.2381,6.2381,6.2381,6.2381,6.2381,6.2381,6.2381,6.2347,6.2313,6.2212,6.1467,6.1231,6.1095,6.0283,5.9573,5.9133,5.981,5.9505,5.893,5.893,5.8423,5.7881,5.7881,5.7881,5.7881,5.7881,5.7881,5.7881,5.7881,5.7881,5.7554,5.6437,5.7039,5.6701,5.3396,5.3828,5.4168,5.3077,0.0,5.2154,0.0,0.0,0.0,0.0,5.2812,5.2395,0.0,5.1293,0.0,0.0,0.0,5.3483,5.1293,5.1229,5.1229,5.1229,5.1229,5.1229,5.1229,5.1229,5.1229,5.1229,5.1229,5.1229,5.1229,5.1229,5.1229,5.1229,5.1229,5.1229,5.1229,5.1229,5.1229,5.1229,5.1229,5.0287,4.8837,0.0,0.0,5.7881,5.7881,5.7881,5.7881,5.7881,5.7881,5.7881,5.7881,5.7881,5.7881,5.7881,5.7881,5.7881,5.7881,5.7881,5.7881,5.7881,5.7881,5.7881,5.7881,5.9133,5.9911,6.0114,6.1434,6.2212,6.2381,6.2381,6.2381,6.2381,6.2381,6.2381,6.2381,6.2381,6.2381,6.2381,6.2381,6.2381,6.2381,6.2381,6.2381,6.2381,6.2381,6.2381,6.2313,6.1772,6.1569,6.1434,6.0655,6.0385,6.025,5.9505,5.9167,5.9032,5.9235,5.8727,5.8152,5.8152,5.8017,5.7881,5.7881,5.7881,5.7881,5.7881,5.7881,5.7881,5.7881,5.7881,5.7554,5.6437,5.6437,5.5777,5.3309,5.3828,5.4168,5.3077,5.2664,0.0,0.0,5.2305,5.1635,5.1635,5.1635,5.188,0.0,0.0,0.0,0.0,5.2989,5.2664,5.1199,5.1229,5.1229,5.1229,5.1229,5.1229,5.1229,5.1229,5.1229,5.1229,5.1229,5.1229,5.1229,5.1229,5.1229,5.1229,5.1229,5.1229,5.1229,5.1229,5.1229,5.1229,5.1229,4.9679,4.7503,5.7881,5.7881,5.7881,5.7881,5.7881,5.7881,5.7881,5.7881,5.7881,5.7881,5.7881,5.7881,5.7881,5.7881,5.7881,5.7881,5.7881,5.7881,5.7881,5.7881,5.7881,5.7881,5.9302,6.0114,6.0114,6.1603,6.2381,6.2381,6.2381,6.2381,6.2381,6.2381,6.2381,6.2381,6.2381,6.2381,6.2381,6.2381,6.2381,6.2381,6.2381,6.2381,6.2381,6.2381,6.2178,6.1839,6.1434,6.1061,6.0622,5.9877,5.9607,5.9471,5.8727,5.849,5.849,5.849,5.822,5.7881,5.7881,5.7881,5.7881,5.7881,5.7881,5.7881,5.7881,5.7881,5.7881,5.7881,5.7881,5.7372,5.581,5.6282,5.6047,5.3309,5.3828,5.4168,5.3077,5.2485,0.0,5.2154,5.1542,5.1229,5.1229,5.1229,5.1479,5.2063,0.0,0.0,5.2154,5.2154,5.1819,5.1229,5.1229,5.1229,5.1229,5.1229,5.1229,5.1229,5.1229,5.1229,5.1229,5.1229,5.1229,5.1229,5.1229,5.1229,5.1229,5.1229,5.1229,5.1229,5.1229,5.1229,5.1229,5.1229,4.9873,4.7909,5.7881,5.7881,5.7881,5.7881,5.7881,5.7881,5.7881,5.7881,5.7881,5.7881,5.7881,5.7881,5.7881,5.7881,5.7881,5.7881,5.7881,5.7881,5.7881,5.7881,5.7881,5.7881,5.9201,5.9979,6.0114,6.1603,6.2381,6.2381,6.2381,6.2381,6.2381,6.2381,6.2381,6.2381,6.2381,6.2381,6.2381,6.2381,6.2381,6.2381,6.2381,6.2313,6.2212,6.2212,6.1772,6.1095,6.0994,6.052,5.981,5.9099,5.8829,5.8727,5.8084,5.7881,5.7881,5.7881,5.7881,5.7881,5.7881,5.7881,5.7881,5.7881,5.7881,5.7881,5.7881,5.7881,5.7881,5.7881,5.7808,5.7147,5.541,5.6393,5.6547,5.3796,5.4084,5.4168,5.3077,0.0,5.1386,5.1229,5.1229,5.1229,5.1229,5.1229,5.1229,5.1229,5.1229,5.1229,0.0,5.1229,5.1229,5.1229,5.1229,5.1229,5.1229,5.1229,5.1229,5.1229,5.1229,5.1229,5.1229,5.1229,5.1229,5.1229,5.1229,5.1229,5.1229,5.1229,5.1229,5.1229,5.1229,5.1229,5.1229,5.1229,5.0191,4.8738,5.7881,5.7881,5.7881,5.7881,5.7881,5.7881,5.7881,5.7881,5.7881,5.7881,5.7881,5.7881,5.7881,5.7881,5.7881,5.7881,5.7881,5.7881,5.7881,5.7881,5.7881,5.7881,5.8727,5.9471,6.008,6.1603,6.2381,6.2381,6.2381,6.2381,6.2381,6.2381,6.2381,6.2381,6.2381,6.2381,6.2381,6.2381,6.2381,6.2381,6.2381,6.2009,6.1467,6.1467,6.0994,6.0216,5.9573,5.9302,5.9066,5.8321,5.8051,5.8051,5.7915,5.7881,5.7881,5.7881,5.7881,5.7881,5.7881,5.7881,5.7881,5.7881,5.7881,5.7881,5.7881,5.7881,5.7881,5.7881,5.7114,5.6624,5.7297,5.6159,5.5247,5.5618,5.5084,5.4168,5.3077,0.0,5.2305,5.1293,5.1229,5.1229,5.1229,5.1229,5.1229,5.1229,5.1229,5.1229,5.1229,5.1229,5.1229,5.1229,5.1229,5.1229,5.1229,5.1229,5.1229,5.1229,5.1229,5.1229,5.1229,5.1229,5.1229,5.1229,5.1229,5.1229,5.1229,5.1229,5.1229,5.1229,5.1229,5.1229,5.1229,5.1229,4.9582,4.7402,5.7881,5.7881,5.7881,5.7881,5.7881,5.7881,5.7881,5.7881,5.7881,5.7881,5.7881,5.7881,5.7881,5.7881,5.7881,5.7881,5.7881,5.7881,5.7881,5.7881,5.7881,5.7881,5.8626,5.9573,6.0723,6.1434,6.2009,6.2381,6.2381,6.2381,6.2381,6.2381,6.2381,6.2381,6.2381,6.2381,6.2347,6.1975,6.1806,6.1772,6.1332,6.096,6.0655,6.0655,6.0182,5.9471,5.9133,5.8761,5.8355,5.8017,5.7881,5.7881,5.7881,5.7881,5.7881,5.7881,5.7881,5.7881,5.7881,5.7881,5.7881,5.7881,5.7881,5.7881,5.7881,5.7881,5.7881,5.7881,5.748,5.7114,5.7039,5.6624,5.6159,5.549,5.492,0.0,0.0,5.2723,5.1972,5.2154,5.1542,5.1229,5.1229,5.1229,5.1229,5.1229,5.1229,5.1229,5.1229,5.1229,5.1229,5.1229,5.1229,5.1229,5.1229,5.1229,5.1229,5.1229,5.1229,5.1229,5.1229,5.1229,5.1229,5.1229,5.1229,5.1229,5.1229,5.1229,5.1229,5.1229,5.1229,5.1229,5.1229,5.1229,4.9969,4.8139,5.7881,5.7881,5.7881,5.7881,5.7881,5.7881,5.7881,5.7881,5.7881,5.7881,5.7881,5.7881,5.7881,5.7881,5.7881,5.7881,5.7881,5.7881,5.7881,5.7881,5.7881,5.7881,5.8626,5.9573,6.0757,6.0926,6.1298,6.1873,6.2042,6.2144,6.2144,6.2313,6.2313,6.2144,6.2144,6.2042,6.1806,6.1264,6.1028,6.096,6.0351,6.0013,5.9844,5.9844,5.9404,5.8761,5.8761,5.8389,5.7881,5.7881,5.7881,5.7881,5.7881,5.7881,5.7881,5.7881,5.7881,5.7881,5.7881,5.7881,5.7881,5.7881,5.7881,5.7881,5.7881,5.7881,5.7881,5.7881,5.7701,5.7297,5.6701,5.6887,5.6734,5.5571,0.0,0.0,0.0,5.29,5.1819,5.2395,5.1727,5.1229,5.1229,5.1229,5.1229,5.1229,5.1229,5.1229,5.1229,5.1229,5.1229,5.1229,5.1229,5.1229,5.1229,5.1229,5.1229,5.1229,5.1229,5.1229,5.1229,5.1229,5.1229,5.1229,5.1229,5.1229,5.1229,5.1229,5.1229,5.1229,5.1229,5.1229,5.1135,5.0822,4.9873,4.8539,5.7881,5.7881,5.7881,5.7881,5.7881,5.7881,5.7881,5.7881,5.7881,5.7881,5.7881,5.7881,5.7881,5.7881,5.7881,5.7881,5.7881,5.7881,5.7881,5.7881,5.7881,5.7881,5.8626,5.9066,5.9167,5.9844,6.0216,6.0283,6.1028,6.1366,6.14,6.2076,6.2042,6.1366,6.1366,6.096,6.0283,6.0216,6.0182,6.0182,6.0114,5.9708,5.9099,5.9099,5.8626,5.7983,5.7983,5.7949,5.7881,5.7881,5.7881,5.7881,5.7881,5.7881,5.7881,5.7881,5.7881,5.7881,5.7881,5.7881,5.7881,5.7881,5.7881,5.7881,5.7881,5.7881,5.7881,5.7881,5.7039,5.6624,5.7628,5.6159,5.549,5.7372,0.0,0.0,5.4589,5.3569,5.2395,5.1479,5.1199,5.1229,5.1229,5.1229,5.1229,5.1229,5.1229,5.1229,5.1229,5.1229,5.1229,5.1229,5.1229,5.1229,5.1229,5.1229,5.1229,5.1229,5.1229,5.1229,5.1229,5.1229,5.1229,5.1229,5.1229,5.1229,5.1229,5.1229,5.1229,5.1229,5.1229,5.1229,5.1011,4.9776,4.8439,4.7094,5.7881,5.7881,5.7881,5.7881,5.7881,5.7881,5.7881,5.7881,5.7881,5.7881,5.7881,5.7881,5.7881,5.7881,5.7881,5.7881,5.7881,5.7881,5.7881,5.7881,5.7881,5.7881,5.8152,5.8524,5.8998,5.9268,5.9641,6.0114,6.0419,6.0554,6.0554,6.0825,6.0825,6.0554,6.0554,6.0385,6.008,5.9607,5.9438,5.9404,5.893,5.8558,5.8321,5.8321,5.8152,5.7881,5.7881,5.7881,5.7881,5.7881,5.7881,5.7881,5.7881,5.7881,5.7881,5.7881,5.7881,5.7881,5.7881,5.7881,5.7881,5.7881,5.7881,5.7881,5.7881,5.7881,5.7881,5.7881,5.7554,5.7372,5.7808,5.7222,5.6734,5.6778,0.0,5.4589,5.4589,5.2989,5.1972,5.2245,5.1635,5.1229,5.1229,5.1229,5.1229,5.1229,5.1229,5.1229,5.1229,5.1229,5.1229,5.1229,5.1229,5.1229,5.1229,5.1229,5.1229,5.1229,5.1229,5.1229,5.1229,5.1229,5.1229,5.1229,5.1229,5.1229,5.1229,5.1229,5.1229,5.1229,5.1229,5.1229,5.1105,5.0603,4.9063,4.6991,5.7881,5.7881,5.7881,5.7881,5.7881,5.7881,5.7881,5.7881,5.7881,5.7881,5.7881,5.7881,5.7881,5.7881,5.7881,5.7881,5.7881,5.7881,5.7881,5.7881,5.7881,5.7881,5.7881,5.8118,5.866,5.866,5.8896,5.9404,5.9641,5.9742,5.9776,5.9979,5.9979,5.9742,5.9742,5.9641,5.937,5.8863,5.866,5.8626,5.8084,5.7881,5.7881,5.7881,5.7881,5.7881,5.7881,5.7881,5.7881,5.7881,5.7881,5.7881,5.7881,5.7881,5.7881,5.7881,5.7881,5.7881,5.7881,5.7881,5.7881,5.7881,5.7881,5.7881,5.7881,5.7881,5.7881,5.7881,5.7881,5.7881,5.7881,5.7628,5.7222,5.6778,5.5571,5.4755,5.5084,5.3483,5.2395,5.2812,5.2215,5.1542,5.1199,5.1229,5.1229,5.1229,5.1229,5.1229,5.1229,5.1229,5.1229,5.1229,5.1229,5.1229,5.1229,5.1229,5.1229,5.1229,5.1229,5.1229,5.1229,5.1229,5.1229,5.1229,5.1229,5.1229,5.1229,5.1229,5.1229,5.1229,5.1229,5.1229,5.1105,5.0698,4.9063,4.6991,5.7881,5.7881,5.7881,5.7881,5.7881,5.7881,5.7881,5.7881,5.7881,5.7881,5.7881,5.7881,5.7881,5.7881,5.7881,5.7881,5.7881,5.7881,5.7881,5.7881,5.7881,5.7881,5.7881,5.7881,5.7881,5.7881,5.7881,5.7881,5.8626,5.8998,5.9032,5.9742,5.9708,5.8998,5.8998,5.8592,5.7881,5.7881,5.7881,5.7881,5.7881,5.7881,5.7881,5.7881,5.7881,5.7881,5.7881,5.7881,5.7881,5.7881,5.7881,5.7881,5.7881,5.7881,5.7881,5.7881,5.7881,5.7881,5.7881,5.7881,5.7881,5.7881,5.7881,5.7881,5.7881,5.7881,5.7881,5.7881,5.7881,5.7881,5.7881,5.6963,5.6624,5.7735,5.608,5.497,5.6047,5.5247,5.4168,5.3077,5.29,5.2395,5.1293,5.1229,5.1229,5.1229,5.1229,5.1229,5.1229,5.1229,5.1229,5.1229,5.1229,5.1229,5.1229,5.1229,5.1229,5.1229,5.1229,5.1229,5.1229,5.1229,5.1229,5.1229,5.1229,5.1229,5.1229,5.1229,5.1229,5.1229,5.1229,5.1229,5.1011,4.9679,4.8339,4.6888,5.7881,5.7881,5.7881,5.7881,5.7881,5.7881,5.7881,5.7881,5.7881,5.7881,5.7881,5.7881,5.7881,5.7881,5.7881,5.7881,5.7881,5.7881,5.7881,5.7881,5.7881,5.7881,5.7881,5.7881,5.7881,5.7881,5.7881,5.7881,5.8118,5.822,5.822,5.8457,5.8423,5.822,5.822,5.8084,5.7881,5.7881,5.7881,5.7881,5.7881,5.7881,5.7881,5.7881,5.7881,5.7881,5.7881,5.7881,5.7881,5.7881,5.7881,5.7881,5.7881,5.7881,5.7881,5.7881,5.7881,5.7881,5.7881,5.7881,5.7881,5.7881,5.7881,5.7881,5.7881,5.7881,5.7881,5.7881,5.7881,5.7881,5.7881,5.7628,5.748,5.7808,5.6701,5.5777,5.6126,5.4557,5.3221,5.29,5.2245,5.1542,5.1199,5.1229,5.1229,5.1229,5.1229,5.1229,5.1229,5.1229,5.1229,5.1229,5.1229,5.1229,5.1229,5.1229,5.1229,5.1229,5.1229,5.1229,5.1229,5.1229,5.1229,5.1229,5.1229,5.1229,5.1229,5.1229,5.1229,5.1229,5.1229,5.1229,5.1011,4.9679,4.8339,4.6888,5.7881,5.7881,5.7881,5.7881,5.7881,5.7881,5.7881,5.7881,5.7881,5.7881,5.7881,5.7881,5.7881,5.7881,5.7881,5.7881,5.7881,5.7881,5.7881,5.7881,5.7881,5.7881,5.7881,5.7881,5.7881,5.7881,5.7881,5.7881,5.7881,5.7881,5.7881,5.7881,5.7881,5.7881,5.7881,5.7881,5.7881,5.7881,5.7881,5.7881,5.7881,5.7881,5.7881,5.7881,5.7881,5.7881,5.7881,5.7881,5.7881,5.7881,5.7881,5.7881,5.7881,5.7881,5.7881,5.7881,5.7881,5.7881,5.7881,5.7881,5.7881,5.7881,5.7881,5.7881,5.7881,5.7881,5.7881,5.7881,5.7881,5.7881,5.7881,5.7881,5.7881,5.7881,5.6963,5.636,5.6778,5.5296,5.4052,5.3656,5.2989,5.2245,5.1293,5.1229,5.1229,5.1229,5.1229,5.1229,5.1229,5.1229,5.1229,5.1229,5.1229,5.1229,5.1229,5.1229,5.1229,5.1229,5.1229,5.1229,5.1229,5.1229,5.1229,5.1229,5.1229,5.1229,5.1229,5.1229,5.1229,5.1229,5.1229,5.1229,5.1105,5.0287,4.9161,4.7707,5.7881,5.7881,5.7881,5.7881,5.7881,5.7881,5.7881,5.7881,5.7881,5.7881,5.7881,5.7881,5.7881,5.7881,5.7881,5.7881,5.7881,5.7881,5.7881,5.7881,5.7881,5.7881,5.7881,5.7881,5.7881,5.7881,5.7881,5.7881,5.7881,5.7881,5.7881,5.7881,5.7881,5.7881,5.7881,5.7881,5.7881,5.7881,5.7881,5.7881,5.7881,5.7881,5.7881,5.7881,5.7881,5.7881,5.7881,5.7881,5.7881,5.7881,5.7881,5.7881,5.7881,5.7881,5.7881,5.7881,5.7881,5.7881,5.7881,5.7881,5.7881,5.7881,5.7881,5.7881,5.7881,5.7881,5.7881,5.7881,5.7881,5.7881,5.7881,5.7881,5.7881,5.7881,5.7039,5.6701,5.7735,5.6963,5.5889,5.4838,5.4589,5.3656,5.1542,5.1229,5.1229,5.1229,5.1229,5.1229,5.1229,5.1229,5.1229,5.1229,5.1229,5.1229,5.1229,5.1229,5.1229,5.1229,5.1229,5.1229,5.1229,5.1229,5.1229,5.1229,5.1229,5.1229,5.1229,5.1229,5.1229,5.1229,5.1229,5.1229,5.1229,5.1105,5.0287,4.8964,5.7881,5.7881,5.7881,5.7881,5.7881,5.7881,5.7881,5.7881,5.7881,5.7881,5.7881,5.7881,5.7881,5.7881,5.7881,5.7881,5.7881,5.7881,5.7881,5.7881,5.7881,5.7881,5.7881,5.7881,5.7881,5.7881,5.7881,5.7881,5.7881,5.7881,5.7881,5.7881,5.7881,5.7881,5.7881,5.7881,5.7881,5.7881,5.7881,5.7881,5.7881,5.7881,5.7881,5.7881,5.7881,5.7881,5.7881,5.7881,5.7881,5.7881,5.7881,5.7881,5.7881,5.7881,5.7881,5.7881,5.7881,5.7881,5.7881,5.7881,5.7881,5.7881,5.7881,5.7881,5.7881,5.7881,5.7881,5.7881,5.7881,5.7881,5.7881,5.7881,5.7881,5.7881,5.7701,5.7628,5.7881,5.6963,5.6126,5.5889,5.4305,5.3077,5.2575,5.1727,5.1229,5.1229,5.1229,5.1229,5.1229,5.1229,5.1229,5.1229,5.1229,5.1229,5.1229,5.1229,5.1229,5.1229,5.1229,5.1229,5.1229,5.1229,5.1229,5.1229,5.1229,5.1229,5.1229,5.1229,5.1229,5.1229,5.1229,5.1229,5.1105,4.9969,4.9455,4.8837,5.7881,5.7881,5.7881,5.7881,5.7881,5.7881,5.7881,5.7881,5.7881,5.7881,5.7881,5.7881,5.7881,5.7881,5.7881,5.7881,5.7881,5.7881,5.7881,5.7881,5.7881,5.7881,5.7881,5.7881,5.7881,5.7881,5.7881,5.7881,5.7881,5.7881,5.7881,5.7881,5.7881,5.7881,5.7881,5.7881,5.7881,5.7881,5.7881,5.7881,5.7881,5.7881,5.7881,5.7881,5.7881,5.7881,5.7881,5.7881,5.7881,5.7881,5.7881,5.7881,5.7881,5.7881,5.7881,5.7881,5.7881,5.7881,5.7881,5.7881,5.7881,5.7881,5.7881,5.7881,5.7881,5.7881,5.7881,5.7881,5.7881,5.7881,5.7881,5.7881,5.7881,5.7881,5.7881,5.7881,5.7881,5.7372,5.6778,5.6282,5.5215,5.4305,5.3742,5.2664,5.1972,5.1972,5.1479,5.1229,5.1229,5.1229,5.1229,5.1229,5.1229,5.1229,5.1229,5.1229,5.1229,5.1229,5.1229,5.1229,5.1229,5.1229,5.1229,5.1229,5.1229,5.1229,5.1229,5.1229,5.1229,5.1229,5.1229,5.1229,5.1105,5.0383,4.9357,4.8038,5.7881,5.7881,5.7881,5.7881,5.7881,5.7881,5.7881,5.7881,5.7881,5.7881,5.7881,5.7881,5.7881,5.7881,5.7881,5.7881,5.7881,5.7881,5.7881,5.7881,5.7881,5.7881,5.7881,5.7881,5.7881,5.7881,5.7881,5.7881,5.7881,5.7881,5.7881,5.7881,5.7881,5.7881,5.7881,5.7881,5.7881,5.7881,5.7881,5.7881,5.7881,5.7881,5.7881,5.7881,5.7881,5.7881,5.7881,5.7881,5.7881,5.7881,5.7881,5.7881,5.7881,5.7881,5.7881,5.7881,5.7881,5.7881,5.7881,5.7881,5.7881,5.7881,5.7881,5.7881,5.7881,5.7881,5.7881,5.7881,5.7881,5.7881,5.7881,5.7881,5.7881,5.7881,5.7881,5.7881,5.7881,5.7881,5.7554,5.6624,5.6282,5.5698,5.4421,5.3483,5.2812,5.2664,5.1727,5.1229,5.1229,5.1229,5.1229,5.1229,5.1229,5.1229,5.1229,5.1229,5.1229,5.1229,5.1229,5.1229,5.1229,5.1229,5.1229,5.1229,5.1229,5.1229,5.1229,5.1229,5.1229,5.1229,5.1229,5.1229,5.1229,5.1229,4.9455,4.7094,5.7881,5.7881,5.7881,5.7881,5.7881,5.7881,5.7881,5.7881,5.7881,5.7881,5.7881,5.7881,5.7881,5.7881,5.7881,5.7881,5.7881,5.7881,5.7881,5.7881,5.7881,5.7881,5.7881,5.7881,5.7881,5.7881,5.7881,5.7881,5.7881,5.7881,5.7881,5.7881,5.7881,5.7881,5.7881,5.7881,5.7881,5.7881,5.7881,5.7881,5.7881,5.7881,5.7881,5.7881,5.7881,5.7881,5.7881,5.7881,5.7881,5.7881,5.7881,5.7881,5.7881,5.7881,5.7881,5.7881,5.7881,5.7881,5.7881,5.7881,5.7881,5.7881,5.7881,5.7881,5.7881,5.7881,5.7881,5.7881,5.7881,5.7881,5.7881,5.7881,5.7881,5.7881,5.7881,5.7881,5.7881,5.7881,5.7808,5.7701,5.6778,5.5377,5.3309,5.2989,5.2485,5.1479,5.1293,5.1229,5.1229,5.1229,5.1229,5.1229,5.1229,5.1229,5.1229,5.1229,5.1229,5.1229,5.1229,5.1229,5.1229,5.1229,5.1229,5.1229,5.1229,5.1229,5.1229,5.1229,5.1229,5.1229,5.1229,5.1229,5.1229,5.1229,4.9455,4.7299,5.7881,5.7881,5.7881,5.7881,5.7881,5.7881,5.7881,5.7881,5.7881,5.7881,5.7881,5.7881,5.7881,5.7881,5.7881,5.7881,5.7881,5.7881,5.7881,5.7881,5.7881,5.7881,5.7881,5.7881,5.7881,5.7881,5.7881,5.7881,5.7881,5.7881,5.7881,5.7881,5.7881,5.7881,5.7881,5.7881,5.7881,5.7881,5.7881,5.7881,5.7881,5.7881,5.7881,5.7881,5.7881,5.7881,5.7881,5.7881,5.7881,5.7881,5.7881,5.7881,5.7881,5.7881,5.7881,5.7881,5.7881,5.7881,5.7881,5.7881,5.7881,5.7881,5.7881,5.7881,5.7881,5.7881,5.7881,5.7881,5.7881,5.7881,5.7881,5.7881,5.7881,5.7881,5.7881,5.7881,5.7881,5.7881,5.7881,5.7881,5.748,5.6811,5.581,5.5134,5.4305,5.3165,5.2485,5.188,5.1199,5.1229,5.1229,5.1229,5.1229,5.1229,5.1229,5.1229,5.1229,5.1229,5.1229,5.1229,5.1229,5.1229,5.1229,5.1229,5.1229,5.1229,5.1229,5.1229,5.1229,5.1229,5.1229,5.1229,5.1229,5.1229,4.9969,4.8339]},{"header":{"parameterUnit":"m.s-1","parameterCategory":1,"la1":30.6,"la2":28.766,"lo1":-90.7593,"lo2":-88.6598,"dy":0.0162,"dx":0.0183,"nx":116,"ny":114,"refTime":"2023-11-10T18:00:00:Z","depth":0,"parameterNumber":3,"parameterNumberName":"V-component_of_WINDS"},"data":[0.0,0.0,0.0,0.0,0.0,0.0,0.0,0.0,0.0,0.0,0.0,0.0,0.0,0.0,0.0,0.0,0.0,0.0,0.0,0.0,0.0,0.0,0.0,0.0,0.0,0.0,0.0,0.0,0.0,0.0,0.0,0.0,0.0,0.0,0.0,0.0,0.0,0.0,0.0,0.0,0.0,0.0,0.0,0.0,0.0,0.0,0.0,0.0,0.0,0.0,0.0,0.0,0.0,0.0,0.0,0.0,0.0,0.0,0.0,0.0,0.0,0.0,0.0,0.0,0.0,0.0,0.0,0.0,0.0,0.0,0.0,0.0,0.0,0.0,0.0,0.0,0.0,0.0,0.0,0.0,0.0,0.0,0.0,0.0,0.0,0.0,0.0,0.0,0.0,0.0,0.0,0.0,0.0,0.0,0.0,0.0,0.0,0.0,0.0,0.0,0.0,0.0,0.0,0.0,0.0,0.0,0.0,0.0,0.0,0.0,0.0,0.0,0.0,0.0,0.0,0.0,0.0,0.0,0.0,0.0,0.0,0.0,0.0,0.0,0.0,0.0,0.0,0.0,0.0,0.0,0.0,0.0,0.0,0.0,0.0,0.0,0.0,0.0,0.0,0.0,0.0,0.0,0.0,0.0,0.0,0.0,0.0,0.0,0.0,0.0,0.0,0.0,0.0,0.0,0.0,0.0,0.0,0.0,0.0,0.0,0.0,0.0,0.0,0.0,0.0,0.0,0.0,0.0,0.0,0.0,0.0,0.0,0.0,0.0,0.0,0.0,0.0,0.0,0.0,0.0,0.0,0.0,0.0,0.0,0.0,0.0,0.0,0.0,0.0,0.0,0.0,0.0,0.0,0.0,0.0,0.0,0.0,0.0,0.0,0.0,0.0,0.0,0.0,0.0,0.0,0.0,0.0,0.0,0.0,0.0,0.0,0.0,0.0,0.0,0.0,0.0,0.0,0.0,0.0,0.0,0.0,0.0,0.0,0.0,0.0,0.0,0.0,0.0,0.0,0.0,0.0,0.0,0.0,0.0,0.0,0.0,0.0,0.0,0.0,0.0,0.0,0.0,0.0,0.0,0.0,0.0,0.0,0.0,0.0,0.0,0.0,0.0,0.0,0.0,0.0,0.0,0.0,0.0,0.0,0.0,0.0,0.0,0.0,0.0,0.0,0.0,0.0,0.0,0.0,0.0,0.0,0.0,0.0,0.0,0.0,0.0,0.0,0.0,0.0,0.0,0.0,0.0,0.0,0.0,0.0,0.0,0.0,0.0,0.0,0.0,0.0,0.0,0.0,0.0,0.0,0.0,0.0,0.0,0.0,0.0,0.0,0.0,0.0,0.0,0.0,0.0,0.0,0.0,0.0,0.0,0.0,0.0,0.0,0.0,0.0,0.0,0.0,0.0,0.0,0.0,0.0,0.0,0.0,0.0,0.0,0.0,0.0,0.0,0.0,0.0,0.0,0.0,0.0,0.0,0.0,0.0,0.0,0.0,0.0,0.0,0.0,0.0,0.0,0.0,0.0,0.0,0.0,0.0,0.0,0.0,0.0,0.0,0.0,0.0,0.0,0.0,0.0,0.0,0.0,0.0,0.0,0.0,0.0,0.0,0.0,0.0,0.0,0.0,0.0,0.0,0.0,0.0,0.0,0.0,0.0,0.0,0.0,0.0,0.0,0.0,0.0,0.0,0.0,0.0,0.0,0.0,0.0,0.0,0.0,0.0,0.0,0.0,0.0,0.0,0.0,0.0,0.0,0.0,0.0,0.0,0.0,0.0,0.0,0.0,0.0,0.0,0.0,0.0,0.0,0.0,0.0,0.0,0.0,0.0,0.0,0.0,0.0,0.0,0.0,0.0,0.0,0.0,0.0,0.0,0.0,0.0,0.0,0.0,0.0,0.0,0.0,0.0,0.0,0.0,0.0,0.0,0.0,0.0,0.0,0.0,0.0,0.0,0.0,0.0,0.0,0.0,0.0,0.0,0.0,0.0,0.0,0.0,0.0,0.0,0.0,0.0,0.0,0.0,0.0,0.0,0.0,0.0,0.0,0.0,0.0,0.0,0.0,0.0,0.0,0.0,0.0,0.0,0.0,0.0,0.0,0.0,0.0,0.0,0.0,0.0,0.0,0.0,0.0,0.0,0.0,0.0,0.0,0.0,0.0,0.0,0.0,0.0,0.0,0.0,0.0,0.0,0.0,0.0,0.0,0.0,0.0,0.0,0.0,0.0,0.0,0.0,0.0,0.0,0.0,0.0,0.0,0.0,0.0,0.0,0.0,0.0,0.0,0.0,0.0,0.0,0.0,0.0,0.0,0.0,0.0,0.0,0.0,0.0,0.0,0.0,0.0,0.0,0.0,0.0,0.0,0.0,0.0,0.0,0.0,0.0,0.0,0.0,0.0,0.0,0.0,0.0,0.0,0.0,0.0,0.0,0.0,0.0,0.0,0.0,0.0,0.0,0.0,0.0,0.0,0.0,0.0,0.0,0.0,0.0,0.0,0.0,0.0,0.0,0.0,0.0,0.0,0.0,0.0,0.0,0.0,0.0,0.0,0.0,0.0,0.0,0.0,0.0,0.0,0.0,0.0,0.0,0.0,0.0,0.0,0.0,0.0,0.0,0.0,0.0,0.0,0.0,0.0,0.0,0.0,0.0,0.0,0.0,0.0,0.0,0.0,0.0,0.0,0.0,0.0,0.0,0.0,0.0,0.0,0.0,0.0,0.0,0.0,0.0,0.0,0.0,0.0,0.0,0.0,0.0,0.0,0.0,0.0,0.0,0.0,0.0,0.0,0.0,0.0,0.0,0.0,0.0,0.0,0.0,0.0,0.0,0.0,0.0,0.0,0.0,0.0,0.0,0.0,0.0,0.0,0.0,0.0,0.0,0.0,0.0,0.0,0.0,0.0,0.0,0.0,0.0,0.0,0.0,0.0,0.0,0.0,0.0,0.0,0.0,0.0,0.0,0.0,0.0,0.0,0.0,0.0,0.0,0.0,0.0,0.0,0.0,0.0,0.0,0.0,0.0,0.0,0.0,0.0,0.0,0.0,0.0,0.0,0.0,0.0,0.0,0.0,0.0,0.0,0.0,0.0,0.0,0.0,0.0,0.0,0.0,0.0,0.0,0.0,0.0,0.0,0.0,0.0,0.0,0.0,0.0,0.0,0.0,0.0,0.0,0.0,0.0,0.0,0.0,0.0,0.0,0.0,0.0,0.0,0.0,0.0,0.0,0.0,0.0,0.0,0.0,0.0,0.0,0.0,0.0,0.0,0.0,0.0,0.0,0.0,0.0,0.0,0.0,0.0,0.0,0.0,0.0,0.0,0.0,0.0,0.0,0.0,0.0,0.0,0.0,0.0,0.0,0.0,0.0,0.0,0.0,0.0,0.0,0.0,0.0,0.0,0.0,0.0,0.0,0.0,0.0,0.0,0.0,0.0,0.0,0.0,0.0,0.0,0.0,0.0,0.0,0.0,0.0,0.0,0.0,0.0,0.0,0.0,0.0,0.0,0.0,0.0,0.0,0.0,0.0,0.0,0.0,0.0,0.0,0.0,0.0,0.0,0.0,0.0,0.0,0.0,0.0,0.0,0.0,0.0,0.0,0.0,0.0,0.0,0.0,0.0,0.0,0.0,0.0,0.0,0.0,0.0,0.0,0.0,0.0,0.0,0.0,0.0,0.0,0.0,0.0,0.0,0.0,0.0,0.0,0.0,0.0,0.0,0.0,0.0,0.0,0.0,0.0,0.0,0.0,0.0,0.0,0.0,0.0,0.0,0.0,0.0,0.0,0.0,0.0,0.0,0.0,0.0,0.0,0.0,0.0,0.0,0.0,0.0,0.0,0.0,0.0,0.0,0.0,0.0,0.0,0.0,0.0,0.0,0.0,0.0,0.0,0.0,0.0,0.0,0.0,0.0,0.0,0.0,0.0,0.0,0.0,0.0,0.0,0.0,0.0,0.0,0.0,0.0,0.0,0.0,0.0,0.0,0.0,0.0,0.0,0.0,0.0,0.0,0.0,0.0,0.0,0.0,0.0,0.0,0.0,0.0,0.0,0.0,0.0,0.0,0.0,0.0,0.0,0.0,0.0,0.0,0.0,0.0,0.0,0.0,0.0,0.0,0.0,0.0,0.0,0.0,0.0,0.0,0.0,0.0,0.0,0.0,0.0,0.0,0.0,0.0,0.0,0.0,0.0,0.0,0.0,0.0,0.0,0.0,0.0,0.0,0.0,0.0,0.0,0.0,0.0,0.0,0.0,0.0,0.0,0.0,0.0,0.0,0.0,0.0,0.0,0.0,0.0,0.0,0.0,0.0,0.0,0.0,0.0,0.0,0.0,0.0,0.0,0.0,0.0,0.0,0.0,0.0,0.0,0.0,0.0,0.0,0.0,0.0,0.0,0.0,0.0,0.0,0.0,0.0,0.0,0.0,0.0,0.0,0.0,0.0,0.0,0.0,0.0,0.0,0.0,0.0,0.0,0.0,0.0,0.0,0.0,0.0,0.0,0.0,0.0,0.0,0.0,0.0,0.0,0.0,0.0,0.0,0.0,0.0,0.0,0.0,0.0,0.0,0.0,0.0,0.0,0.0,0.0,0.0,0.0,0.0,0.0,0.0,0.0,0.0,0.0,0.0,0.0,0.0,0.0,0.0,0.0,0.0,0.0,0.0,0.0,0.0,0.0,0.0,0.0,0.0,0.0,0.0,0.0,0.0,0.0,0.0,0.0,0.0,0.0,0.0,0.0,0.0,0.0,0.0,0.0,0.0,0.0,0.0,0.0,0.0,0.0,0.0,0.0,0.0,0.0,0.0,0.0,0.0,0.0,0.0,0.0,0.0,0.0,0.0,0.0,0.0,0.0,0.0,0.0,0.0,0.0,0.0,0.0,0.0,0.0,0.0,0.0,0.0,0.0,0.0,0.0,0.0,0.0,0.0,0.0,0.0,0.0,0.0,0.0,0.0,0.0,0.0,0.0,0.0,0.0,0.0,0.0,0.0,0.0,0.0,0.0,0.0,0.0,0.0,0.0,0.0,0.0,0.0,0.0,0.0,0.0,0.0,0.0,0.0,0.0,0.0,0.0,0.0,0.0,0.0,0.0,0.0,0.0,0.0,0.0,0.0,0.0,0.0,0.0,0.0,0.0,0.0,0.0,0.0,0.0,0.0,0.0,0.0,0.0,0.0,0.0,0.0,0.0,0.0,0.0,0.0,0.0,0.0,0.0,0.0,0.0,0.0,0.0,0.0,0.0,0.0,0.0,0.0,0.0,0.0,0.0,0.0,0.0,0.0,0.0,0.0,0.0,0.0,0.0,0.0,0.0,0.0,0.0,0.0,0.0,0.0,0.0,0.0,0.0,0.0,0.0,0.0,0.0,0.0,0.0,0.0,0.0,0.0,0.0,0.0,0.0,0.0,0.0,0.0,0.0,0.0,0.0,0.0,0.0,0.0,0.0,0.0,0.0,0.0,0.0,0.0,0.0,0.0,0.0,0.0,0.0,0.0,0.0,0.0,0.0,0.0,0.0,0.0,0.0,0.0,0.0,0.0,0.0,0.0,0.0,0.0,0.0,0.0,0.0,0.0,0.0,0.0,0.0,0.0,0.0,0.0,0.0,0.0,0.0,0.0,0.0,0.0,0.0,0.0,0.0,0.0,0.0,0.0,0.0,0.0,0.0,0.0,0.0,0.0,0.0,0.0,0.0,0.0,0.0,0.0,0.0,0.0,0.0,0.0,0.0,0.0,0.0,0.0,0.0,0.0,0.0,0.0,0.0,0.0,0.0,0.0,0.0,0.0,0.0,0.0,0.0,0.0,0.0,0.0,0.0,0.0,0.0,0.0,0.0,0.0,0.0,0.0,0.0,0.0,0.0,0.0,0.0,0.0,0.0,0.0,0.0,0.0,0.0,0.0,0.0,0.0,0.0,0.0,0.0,0.0,0.0,0.0,0.0,0.0,0.0,0.0,0.0,0.0,0.0,0.0,0.0,0.0,0.0,0.0,0.0,0.0,0.0,0.0,0.0,0.0,0.0,0.0,0.0,0.0,0.0,0.0,0.0,0.0,0.0,0.0,0.0,0.0,0.0,0.0,0.0,0.0,0.0,0.0,0.0,3.6835,0.0,0.0,0.0,0.0,0.0,0.0,0.0,0.0,0.0,0.0,0.0,0.0,0.0,0.0,0.0,0.0,0.0,0.0,0.0,0.0,0.0,0.0,0.0,0.0,1.5832,1.5832,1.5832,1.5832,1.5885,1.6032,1.6192,1.6339,1.6473,1.6767,1.6914,1.6914,1.7208,1.7355,1.7355,1.822,1.8916,1.9612,1.9448,1.9052,1.8499,0.0,0.0,0.0,0.0,0.0,0.0,0.0,0.0,0.0,0.0,0.0,0.0,0.0,0.0,0.0,0.0,0.0,0.0,0.0,0.0,0.0,0.0,0.0,0.0,0.0,0.0,0.0,0.0,0.0,0.0,0.0,0.0,0.0,0.0,0.0,0.0,0.0,0.0,0.0,0.0,0.0,0.0,0.0,0.0,0.0,0.0,0.0,0.0,0.0,0.0,0.0,0.0,0.0,0.0,0.0,0.0,0.0,0.0,0.0,0.0,0.0,0.0,0.0,0.0,0.0,0.0,0.0,0.0,0.0,0.0,0.0,3.7412,0.0,0.0,0.0,0.0,0.0,0.0,0.0,0.0,0.0,0.0,0.0,0.0,0.0,0.0,0.0,0.0,0.0,0.0,0.0,0.0,0.0,1.5832,1.5832,1.5832,1.5845,1.5899,1.5912,1.6032,1.6326,1.6393,1.6526,1.6767,1.7061,1.7221,1.7221,1.7462,1.7687,1.7989,1.9317,2.0641,2.2064,2.1845,2.1253,2.0246,1.8916,0.0,0.0,0.0,0.0,0.0,0.0,0.0,0.0,0.0,0.0,0.0,0.0,0.0,0.0,0.0,0.0,0.0,0.0,0.0,0.0,0.0,0.0,0.0,0.0,0.0,0.0,0.0,0.0,0.0,0.0,0.0,0.0,0.0,0.0,0.0,0.0,0.0,0.0,0.0,0.0,0.0,0.0,0.0,0.0,0.0,0.0,0.0,0.0,0.0,0.0,0.0,0.0,0.0,0.0,0.0,0.0,0.0,0.0,0.0,0.0,0.0,0.0,0.0,3.7136,3.7237,3.8291,3.8291,3.8291,3.8316,3.8391,3.8266,3.8015,3.8115,0.0,0.0,0.0,0.0,0.0,0.0,0.0,0.0,0.0,0.0,0.0,0.0,0.0,0.0,0.0,0.0,0.0,0.0,0.0,1.5832,1.5832,1.5832,1.5939,1.6192,1.6219,1.6339,1.6633,1.6887,1.7048,1.7088,1.7368,1.7528,1.7528,1.7569,1.8199,1.9317,2.0743,2.2165,2.3384,2.2248,2.2265,2.3085,2.176,2.1135,2.1135,0.0,0.0,0.0,0.0,0.0,0.0,0.0,0.0,0.0,0.0,0.0,0.0,0.0,0.0,0.0,0.0,0.0,0.0,0.0,0.0,0.0,0.0,0.0,0.0,0.0,0.0,0.0,0.0,0.0,0.0,0.0,0.0,0.0,0.0,0.0,0.0,0.0,0.0,0.0,0.0,0.0,3.3116,3.452,0.0,0.0,0.0,0.0,0.0,0.0,0.0,0.0,0.0,0.0,0.0,0.0,0.0,3.8241,3.8743,3.8642,3.8893,3.9471,3.9265,3.9265,3.9471,3.9471,3.9471,3.9496,3.9973,0.0,3.804,3.8542,0.0,0.0,0.0,0.0,0.0,0.0,0.0,0.0,0.0,0.0,0.0,0.0,0.0,0.0,0.0,0.0,0.0,0.0,0.0,0.0,0.0,1.6072,1.6192,1.6486,1.6513,1.6647,1.6941,1.7074,1.7221,1.7382,1.7515,1.7582,1.7582,1.8304,1.9731,2.1862,2.2567,2.3484,2.4805,2.4196,2.4295,2.4824,2.4196,2.3085,2.1744,2.1744,0.0,0.0,0.0,0.0,0.0,0.0,0.0,0.0,0.0,0.0,0.0,0.0,0.0,0.0,0.0,0.0,0.0,0.0,0.0,0.0,0.0,0.0,0.0,0.0,0.0,0.0,0.0,0.0,0.0,0.0,0.0,0.0,0.0,0.0,0.0,0.0,0.0,0.0,0.0,3.0286,3.1796,3.3543,3.3406,3.343,0.0,0.0,0.0,0.0,0.0,0.0,0.0,0.0,0.0,3.8944,3.9245,3.9546,3.9798,4.0099,4.0375,4.0626,4.0626,4.0626,4.0626,4.0626,4.0626,4.0626,4.0877,4.0551,3.9898,4.0149,4.0099,4.0002,0.0,0.0,0.0,0.0,4.384,4.4065,0.0,0.0,0.0,0.0,0.0,0.0,0.0,0.0,0.0,0.0,0.0,0.0,1.6246,1.6339,1.65,1.6794,1.682,1.6941,1.7235,1.7261,1.7355,1.7569,1.7582,1.7582,1.7582,1.9317,2.1355,2.3683,2.3998,2.4707,2.5742,2.5742,2.5742,2.5742,2.5742,2.4609,2.2767,2.2767,2.2567,2.2265,0.0,0.0,0.0,0.0,0.0,0.0,0.0,0.0,0.0,0.0,0.0,0.0,0.0,0.0,0.0,0.0,0.0,0.0,0.0,0.0,0.0,0.0,0.0,0.0,0.0,0.0,0.0,0.0,0.0,0.0,0.0,0.0,0.0,0.0,0.0,0.0,0.0,3.0622,3.1803,3.3469,3.3788,3.4383,0.0,0.0,0.0,0.0,0.0,0.0,3.8708,3.9191,3.9697,4.0099,4.0526,4.0727,4.0727,4.1128,4.1329,4.1329,4.1329,4.1329,4.1329,4.1329,4.1329,4.1354,4.148,4.1555,4.153,4.1404,4.1544,4.1945,4.3022,4.3615,4.4125,4.5496,4.5985,4.6208,0.0,0.0,0.0,0.0,0.0,0.0,0.0,0.0,0.0,0.0,0.0,1.6259,1.6273,1.6513,1.6807,1.7101,1.7128,1.7248,1.7542,1.7555,1.7569,1.7582,1.7582,1.7582,1.7582,2.0231,2.2265,2.3683,2.502,2.5645,2.5742,2.5742,2.5742,2.5742,2.5742,2.5645,2.5528,2.5528,2.4707,2.3583,2.3583,0.0,0.0,0.0,0.0,0.0,0.0,0.0,0.0,0.0,0.0,0.0,0.0,0.0,0.0,0.0,0.0,0.0,0.0,0.0,0.0,0.0,0.0,0.0,0.0,0.0,0.0,0.0,0.0,0.0,0.0,0.0,0.0,0.0,0.0,0.0,0.0,0.0,0.0,3.5608,3.5758,0.0,0.0,0.0,0.0,3.5504,3.8524,3.9823,3.8383,4.0128,4.1229,4.1254,4.1279,4.1304,4.1304,4.1329,4.1329,4.1329,4.1329,4.1329,4.1329,4.1329,4.1329,4.1354,4.1882,4.2108,4.2082,4.1555,4.2131,4.3333,4.3333,4.4226,4.5594,4.6785,4.7289,4.7565,0.0,0.0,0.0,0.0,0.0,1.5832,1.5832,1.5832,1.5899,1.6086,1.6206,1.642,1.6794,1.6927,1.7114,1.7395,1.7422,1.7475,1.7569,1.7582,1.7582,1.7582,1.7582,1.8394,2.0231,2.2064,2.3683,2.502,2.543,2.5742,2.5742,2.5742,2.5742,2.5742,2.5742,2.5742,2.5742,2.5742,2.543,2.502,2.502,2.4412,0.0,0.0,0.0,0.0,0.0,0.0,0.0,0.0,0.0,0.0,0.0,0.0,0.0,0.0,0.0,0.0,0.0,0.0,0.0,0.0,0.0,0.0,0.0,0.0,0.0,0.0,0.0,0.0,0.0,0.0,0.0,0.0,0.0,0.0,0.0,0.0,0.0,3.5083,3.5887,0.0,3.7144,3.7607,3.8,3.8645,4.017,4.0814,4.0252,4.0881,4.1329,4.1329,4.1681,4.1856,4.1856,4.2208,4.2384,4.2384,4.2384,4.2384,4.2384,4.2384,4.2384,4.2409,4.261,4.2685,4.2771,4.3393,4.4016,4.4626,4.6459,4.7461,4.8081,4.9391,4.9828,4.9952,0.0,0.0,0.0,0.0,1.5832,1.5832,1.5832,1.5832,1.5939,1.6233,1.6366,1.6607,1.7101,1.7235,1.7368,1.7569,1.7582,1.7582,1.7582,1.7582,1.7582,1.7582,1.7989,1.9524,2.2366,2.3285,2.4393,2.5742,2.5742,2.5742,2.5742,2.5742,2.5742,2.5742,2.5898,2.5957,2.5977,2.6113,2.5996,2.5742,2.5742,2.543,2.502,0.0,0.0,0.0,0.0,0.0,0.0,0.0,0.0,0.0,0.0,0.0,0.0,0.0,0.0,0.0,0.0,0.0,0.0,0.0,0.0,0.0,0.0,0.0,0.0,0.0,0.0,0.0,0.0,0.0,0.0,0.0,0.0,0.0,0.0,3.4795,3.6199,3.5926,3.7109,3.8194,3.8728,3.9091,3.9766,4.0696,4.1304,4.1605,4.1605,4.1806,4.1882,4.1882,4.2233,4.2434,4.2434,4.2785,4.2986,4.2986,4.2986,4.2986,4.2986,4.2986,4.2986,4.2986,4.2986,4.3295,4.3797,4.5155,4.5978,4.6578,4.8439,4.9455,4.9969,5.0917,5.1229,5.1229,0.0,0.0,0.0,1.5832,1.5832,1.5832,1.5832,1.5832,1.5952,1.6246,1.654,1.6834,1.7128,1.7408,1.7582,1.7582,1.7582,1.7582,1.7582,1.7582,1.7582,1.7687,1.902,2.0947,2.3683,2.3782,2.4412,2.5742,2.5742,2.5742,2.5762,2.5762,2.5762,2.5801,2.623,2.6406,2.6426,2.6836,2.6543,2.5781,2.5781,2.496,2.3818,0.0,0.0,0.0,0.0,0.0,0.0,0.0,0.0,0.0,0.0,0.0,0.0,0.0,0.0,0.0,0.0,0.0,0.0,0.0,0.0,0.0,0.0,0.0,0.0,0.0,0.0,0.0,0.0,0.0,0.0,0.0,0.0,0.0,3.4916,3.5981,3.7331,3.8251,3.9627,4.0752,4.1279,4.1354,4.1354,4.1354,4.1882,4.2183,4.2183,4.2685,4.2986,4.2986,4.2986,4.2986,4.2986,4.2986,4.2986,4.2986,4.2986,4.2986,4.2986,4.2986,4.2986,4.2986,4.3098,4.3797,4.5155,4.6578,4.7909,4.9161,4.9259,5.0095,5.1229,5.1229,5.1229,5.1229,0.0,0.0,0.0,1.5832,1.5832,1.5832,1.5832,1.6019,1.6259,1.654,1.6847,1.7141,1.7435,1.7542,1.7582,1.7582,1.7582,1.7582,1.7582,1.7582,1.7989,1.902,2.1355,2.2985,2.3683,2.4609,2.5333,2.5742,2.5742,2.5898,2.6211,2.6211,2.6367,2.666,2.6797,2.6836,2.6855,2.6973,2.6875,2.666,2.666,2.6439,2.6136,0.0,0.0,0.0,0.0,0.0,0.0,0.0,0.0,0.0,0.0,0.0,0.0,0.0,0.0,0.0,0.0,0.0,0.0,0.0,0.0,0.0,0.0,0.0,0.0,0.0,0.0,0.0,0.0,0.0,0.0,0.0,3.6472,3.7702,3.7378,3.8606,3.9749,4.0442,4.0889,4.1178,4.1329,4.1706,4.1932,4.1932,4.2434,4.276,4.276,4.2886,4.2986,4.2986,4.2986,4.2986,4.2986,4.2986,4.2986,4.2986,4.2986,4.2986,4.2986,4.2986,4.2986,4.3073,4.4016,4.4617,4.5155,4.7605,4.8837,4.9259,5.0287,5.0917,5.1229,5.1229,5.1229,5.1229,0.0,0.0,0.0,1.5832,1.5832,1.5832,1.5832,1.6086,1.638,1.666,1.6967,1.7261,1.7555,1.7582,1.7582,1.7582,1.7582,1.7582,1.7582,1.8094,1.9317,2.1253,2.2868,2.3998,2.451,2.5333,2.5742,2.5742,2.5918,2.6133,2.6387,2.6562,2.6777,2.7031,2.7207,2.7285,2.7305,2.748,2.7539,2.7539,2.7539,2.7344,2.7012,2.7012,2.7012,2.7012,2.7012,2.7012,2.7012,2.7012,0.0,0.0,0.0,0.0,0.0,0.0,0.0,0.0,0.0,0.0,0.0,0.0,0.0,0.0,0.0,0.0,0.0,0.0,0.0,0.0,0.0,0.0,0.0,0.0,3.8489,3.9672,3.9892,4.0442,4.1053,4.1605,4.1681,4.1781,4.2007,4.2308,4.2509,4.2509,4.2785,4.2986,4.2986,4.2986,4.2986,4.2986,4.2986,4.2986,4.2986,4.2986,4.2986,4.2986,4.2986,4.2986,4.2986,4.2986,4.3295,4.3907,4.4617,4.5661,4.6888,4.8539,4.9553,0.0,0.0,0.0,0.0,0.0,5.1229,5.1259,0.0,0.0,1.5832,1.5832,1.5832,1.5845,1.5872,1.6126,1.642,1.6714,1.7021,1.7301,1.7555,1.7687,1.7793,1.7582,1.7793,1.7793,1.7793,1.9213,2.1151,2.3583,2.3881,2.451,2.5645,2.5742,2.5762,2.5801,2.6191,2.6445,2.6543,2.6914,2.7109,2.7168,2.7559,2.7734,2.7754,2.8125,2.8301,2.8301,2.8301,2.7832,2.7168,2.7168,2.7168,2.7168,2.7168,2.7168,2.7168,2.7168,0.0,0.0,0.0,0.0,0.0,0.0,0.0,0.0,0.0,0.0,0.0,0.0,0.0,0.0,0.0,0.0,0.0,0.0,0.0,0.0,0.0,0.0,0.0,0.0,4.0379,4.163,4.2183,4.1831,4.1706,4.2183,4.2258,4.2434,4.2936,4.2986,4.2986,4.2986,4.2986,4.2986,4.2986,4.2986,0.0,0.0,0.0,4.2986,4.2986,4.2986,4.2986,4.2986,4.2986,4.2986,4.2986,4.3037,4.3789,4.5154,4.5314,4.6977,4.9461,4.9589,5.0397,5.1439,5.1349,5.1379,5.1439,5.1439,5.1439,5.1528,0.0,1.5832,1.5832,1.5832,1.5832,1.5912,1.6152,1.6433,1.6727,1.7021,1.7315,1.7515,1.7569,1.8603,1.8812,1.7687,1.8603,1.9213,1.9213,2.1558,2.3185,2.3683,2.4707,2.543,2.5742,2.5742,2.5918,2.6269,2.6348,2.6738,2.7422,2.75,2.7715,2.8047,2.8125,2.8164,2.8184,2.8262,2.8301,2.8301,2.8301,2.8203,2.8047,2.8047,2.8047,2.8047,2.8047,2.8047,2.8047,2.8047,2.8047,2.8105,2.8437,2.8613,0.0,0.0,0.0,0.0,0.0,0.0,0.0,0.0,0.0,0.0,0.0,0.0,0.0,0.0,0.0,0.0,0.0,0.0,0.0,3.9706,4.1078,4.2183,4.2735,4.2735,4.271,4.2811,4.2811,4.2861,4.2961,4.2986,4.2986,4.2986,4.2986,4.2986,4.2986,4.2986,4.2986,4.2986,4.2986,4.2986,4.2986,4.2986,4.2986,4.2986,0.0,0.0,4.2986,4.3438,4.4489,4.5869,4.7486,4.9085,5.0789,5.1945,5.2591,5.2755,5.2217,5.2336,5.2785,5.2785,5.2785,5.2815,0.0,0.0,1.5832,1.5832,1.5832,1.5925,1.6233,1.6513,1.6807,1.7114,1.7395,1.7582,1.7582,1.8199,1.8304,1.7687,1.8812,2.0128,2.1558,2.2968,2.3998,2.4707,2.5333,2.5742,2.5742,2.5742,2.5957,2.6387,2.6602,2.7031,2.7676,2.7891,2.8086,2.8301,2.8301,2.8301,2.8301,2.8301,2.8301,2.8301,2.8301,2.8301,2.8301,2.8301,2.8301,2.8301,2.8301,2.8437,2.8613,2.8613,2.875,2.8965,2.918,2.9238,2.9297,0.0,0.0,0.0,0.0,0.0,0.0,0.0,0.0,0.0,0.0,0.0,0.0,0.0,0.0,3.7247,3.8204,0.0,3.9954,4.1296,4.209,4.266,4.2936,4.2986,4.2986,4.2986,4.2986,4.2986,4.2986,4.2986,4.2986,4.2986,4.2986,4.2986,4.2986,4.2986,4.2986,4.2986,4.2986,4.3112,4.3388,4.3388,4.3539,4.379,4.379,4.4218,4.5004,4.5288,4.6561,4.8581,4.9623,5.0829,5.22,5.2949,5.3384,5.3653,5.3324,5.3204,5.3174,5.3174,5.3174,5.3234,0.0,0.0,0.0,1.5832,1.5832,1.5952,1.6299,1.6553,1.6834,1.7194,1.7435,1.7582,1.7582,1.7793,1.8094,1.8394,1.942,2.1049,2.3583,2.3899,2.4609,2.5645,2.5742,2.5742,2.5742,2.582,2.6074,2.6504,2.6934,2.7363,2.7793,2.8125,2.8301,2.8301,2.8301,2.8301,2.8301,2.8301,2.8301,2.8301,2.8379,2.8418,2.8418,2.8516,2.8496,2.8418,2.8516,2.875,2.9043,2.9043,2.9277,2.959,2.9668,2.9687,2.9707,2.9805,2.9824,0.0,0.0,0.0,0.0,0.0,0.0,0.0,0.0,3.4816,3.5605,3.7086,3.7748,3.8637,4.0242,4.0564,4.1071,4.2774,4.2986,4.2986,4.2986,4.2986,4.2986,4.2986,4.2986,4.2986,4.2986,4.2986,4.2986,4.2986,4.2986,4.2986,4.2986,4.3087,4.3137,4.3137,4.3237,4.3514,4.3966,4.3966,4.4192,4.4618,4.494,4.5716,4.6928,4.734,4.8896,5.1337,5.1686,5.2482,5.3563,5.3563,5.3892,5.4401,5.4401,5.4072,5.3563,5.3563,5.3563,5.3751,0.0,0.0,0.0,1.5832,1.5832,1.6019,1.6567,1.6687,1.6901,1.7462,1.7555,1.7582,1.7582,1.8708,1.9937,2.1135,2.1338,2.2064,2.3583,2.4805,2.5528,2.5742,2.5742,2.5742,2.5742,2.6113,2.6523,2.6953,2.7383,2.7812,2.8223,2.8262,2.8301,2.8301,2.8301,2.8301,2.8301,2.8301,2.8301,2.832,2.8691,2.8848,2.8887,2.9277,2.918,2.8906,2.9297,2.9453,2.9492,2.9492,2.9531,2.9629,3.0,3.0137,3.0215,3.0625,3.0742,3.0742,3.0742,3.1055,3.1801,3.3602,3.3094,3.2895,0.0,3.6827,3.765,3.9145,4.1023,4.2339,4.2637,4.2637,4.2774,4.2961,4.2986,4.2986,4.2986,4.2986,4.2986,4.2986,4.2986,4.2986,4.2986,4.2986,4.2986,4.2986,4.2986,4.2986,4.2986,4.3438,4.3714,4.3714,4.4192,4.4468,4.4543,4.4543,4.4568,4.4618,4.5943,4.6705,4.6928,4.8709,5.0472,5.2104,5.3934,5.4839,5.497,5.497,5.4999,5.5089,5.5089,5.5029,5.497,5.497,5.497,5.517,0.0,0.0,0.0,1.5832,1.5832,1.6032,1.662,1.67,1.6914,1.7502,1.7582,1.7582,1.7582,1.8094,1.902,2.0333,2.1253,2.2265,2.3583,2.4922,2.5742,2.5742,2.5742,2.5742,2.5742,2.6172,2.6602,2.7012,2.7461,2.7891,2.8301,2.8301,2.8301,2.8301,2.8301,2.8301,2.8301,2.8301,2.8437,2.8672,2.8848,2.9062,2.9336,2.9766,2.9824,2.9648,2.959,2.9726,0.0,2.9941,3.0117,3.0371,3.0547,3.0605,3.0684,3.1133,3.125,3.1309,3.1562,3.1758,3.2054,3.2915,3.2811,3.3112,3.5316,3.6135,3.7317,3.98,4.1046,4.1899,4.2849,4.2986,4.2986,4.2986,4.2986,4.2986,4.2986,4.2986,4.2986,4.2986,4.3263,4.3338,4.3011,4.2986,4.3112,4.3438,4.3463,4.3589,4.3915,4.4141,4.4292,4.4292,4.4493,4.4794,4.5121,4.6001,4.659,4.6927,4.8444,4.9556,5.0429,5.1327,5.256,5.3993,5.4827,5.5179,5.5209,5.5598,5.5777,5.5807,5.6166,5.6286,5.6256,5.5897,5.5777,5.5909,0.0,0.0,0.0,0.0,0.0,1.6126,1.6633,1.67,1.6914,1.7502,1.7582,1.7582,1.7582,1.7582,1.8304,2.0025,2.1151,2.2466,2.4097,2.5118,2.5742,2.5742,2.5742,2.5742,2.5742,2.6269,2.6719,2.7012,2.7559,2.7988,2.8301,2.8301,2.8301,2.8301,2.8301,2.8301,2.8301,2.8418,2.8633,2.8945,2.918,2.9453,2.9785,3.0215,3.0391,3.0351,3.0039,3.0137,3.0391,3.0391,3.0605,3.0918,3.1035,3.1055,3.1152,3.1582,3.1699,3.1797,3.2226,3.2344,3.2363,3.248,3.2734,3.3322,3.4493,3.5209,3.6396,3.8794,3.9989,4.0961,4.215,4.2737,4.2986,4.2986,4.2986,4.2986,4.2986,4.3112,4.3212,4.3212,4.3689,4.3865,4.3463,4.3438,4.3589,4.3991,4.4041,4.4192,4.4593,4.4769,4.4869,4.4869,4.5436,4.5832,4.6382,4.7784,4.8766,4.908,5.0602,5.1943,5.2963,5.3588,5.4465,5.5478,5.5628,5.5718,5.5748,5.6226,5.6436,5.6466,5.6915,5.7094,5.7064,5.6795,5.6585,5.6599,0.0,0.0,0.0,0.0,0.0,1.6366,1.666,1.67,1.6914,1.7502,1.7582,1.7582,1.7582,1.7582,1.8708,2.144,2.1643,2.2767,2.543,2.5645,2.5742,2.5742,2.5742,2.5742,2.5742,2.6562,2.7012,2.7012,2.7871,2.8281,2.8301,2.8301,2.8301,2.8301,2.8301,2.8301,2.832,2.873,2.8906,2.8984,2.9824,3.0176,3.0234,3.0703,3.0859,3.0859,3.0859,3.0859,3.0859,3.0859,3.0879,3.0957,3.1367,3.1504,3.1582,3.2012,3.2148,3.2246,3.2656,3.2773,3.2871,3.3281,3.3398,3.3398,3.3398,3.4716,3.5806,3.5928,3.8439,4.0592,4.0707,4.1899,4.2986,4.2986,4.2986,4.2986,4.2986,4.3438,4.379,4.379,4.4267,4.4593,4.4568,4.4568,4.4593,4.4593,4.4593,4.4593,4.4618,4.5146,4.5472,4.5472,4.7406,4.839,4.839,4.9905,5.0574,5.0713,5.2159,5.2963,5.3097,5.516,5.6137,5.6166,5.6765,5.7034,5.7034,5.7064,5.7064,5.7064,5.7094,5.7094,5.7184,5.7812,5.7633,5.745,0.0,0.0,0.0,0.0,0.0,1.6366,1.666,1.6874,1.7141,1.7528,1.7582,0.0,0.0,0.0,0.0,0.0,2.0641,2.2064,2.2968,2.4707,2.5742,2.5742,2.5742,2.5742,2.5742,2.6309,2.6738,2.7012,2.7598,2.8027,2.8301,2.8301,2.8301,2.8301,2.8301,2.8301,2.832,2.875,2.9082,2.9394,2.9961,3.0391,3.0684,3.084,3.0898,3.0898,0.0,3.0898,3.0898,3.0898,3.1074,3.1328,3.1465,3.1719,3.2031,3.2461,3.2793,3.3027,3.3164,3.3203,3.3242,3.3379,3.3418,3.3418,3.3418,3.3776,3.4487,3.556,3.6639,3.7723,3.8817,4.0361,4.1419,4.1419,4.2559,4.3514,4.3514,4.3991,4.4342,4.4342,4.4844,4.5196,4.5196,4.4844,4.4794,4.5171,4.5196,4.5347,4.5723,4.5924,4.6476,4.7458,4.8105,4.8965,4.9932,5.1509,5.2465,5.2864,5.4778,5.5752,5.5782,5.6467,5.6795,5.6795,5.7004,5.7094,5.7124,5.7573,5.7782,5.7812,5.8261,5.8441,5.8548,5.9618,5.9838,5.9829,0.0,0.0,0.0,0.0,0.0,0.0,0.0,0.0,0.0,0.0,0.0,0.0,0.0,0.0,0.0,0.0,0.0,2.1338,2.2366,2.3998,2.5235,2.5645,2.5742,2.5742,2.5742,2.6309,2.6738,2.7012,2.7598,2.8027,2.8301,2.8301,2.8301,2.8301,2.8301,2.8301,2.832,2.875,2.918,2.9609,3.0019,3.0469,3.0898,3.0898,3.0898,0.0,3.0898,3.0898,3.0918,3.1055,3.1289,3.1562,3.1875,3.2266,3.2676,3.293,3.3203,3.3418,3.3418,3.3418,3.3418,3.3418,3.3418,3.3418,3.3418,3.3418,3.365,3.4736,3.5437,3.6215,3.7362,3.9446,4.0925,4.1115,4.2781,4.4091,4.4091,4.4568,4.4945,4.4945,4.5422,4.5773,4.5773,4.5447,4.5372,4.5748,4.5773,4.6162,4.7061,4.7087,4.7743,4.9194,5.0064,5.0933,5.179,5.3617,5.4709,5.5089,5.6436,5.7094,5.7094,5.7363,5.7453,5.7483,5.7723,5.7812,5.7842,5.8291,5.8471,5.853,5.8949,5.9099,5.9285,6.0536,6.1294,6.1796,0.0,0.0,0.0,0.0,0.0,0.0,0.0,0.0,0.0,0.0,0.0,0.0,0.0,0.0,0.0,0.0,0.0,0.0,2.3285,2.3583,2.4295,2.5528,2.5645,2.5742,2.5742,2.6562,2.6992,2.7012,2.7851,2.8262,2.8301,2.8301,2.8301,2.8301,2.8301,2.8301,2.832,2.875,2.918,2.9609,3.0019,3.0469,3.0898,3.0898,3.0898,3.0898,3.0898,3.0898,3.0957,3.1367,3.1543,3.1719,3.2559,3.3105,3.3418,3.3418,3.3418,3.3418,3.3418,3.3418,3.3418,3.3418,3.3418,3.3418,3.3418,3.3418,3.3437,3.3457,3.4652,3.5871,3.6373,3.9107,4.1449,4.1947,4.3541,4.4669,4.4669,4.5171,4.5522,4.5522,4.5999,4.6301,4.6301,4.6326,4.6351,4.6471,4.6446,4.6993,4.8469,4.8584,4.9362,5.0906,5.2921,5.4021,5.4021,5.6137,5.7154,5.7154,5.7184,5.7184,5.7214,5.7872,5.8171,5.8201,5.883,5.9099,5.9099,5.9099,5.9099,5.9099,5.9099,5.9099,5.9392,6.0671,6.2058,6.3324,0.0,0.0,0.0,0.0,0.0,0.0,0.0,0.0,0.0,0.0,0.0,0.0,0.0,0.0,0.0,0.0,0.0,0.0,2.0641,2.2567,2.3899,2.4196,2.5118,2.5742,2.5742,2.6269,2.6699,2.7012,2.7559,2.7988,2.8301,2.8301,2.8301,2.8301,2.8301,2.8301,2.832,2.875,2.918,2.9609,3.0019,3.0469,3.0898,3.0898,3.0898,3.0898,3.0898,3.0898,3.0957,3.1367,3.1934,3.2559,3.3086,3.334,3.3418,3.3418,3.3418,3.3418,3.3418,3.3418,3.3418,3.3418,3.3418,3.3418,3.3418,3.3418,3.3516,3.3848,3.427,3.4644,3.5082,3.7885,4.0159,4.0296,4.312,4.5271,4.5271,4.5748,4.61,4.61,4.6225,4.6301,4.6301,4.6677,4.7364,4.8603,4.8212,4.8277,4.9139,5.0297,5.1737,5.377,5.438,5.5147,5.6272,5.7302,5.7872,5.7872,5.8351,5.859,5.859,5.877,5.886,5.886,5.9039,5.9099,5.9099,5.9099,5.9099,5.9099,5.9099,5.9683,6.0774,6.2662,6.4127,6.5482,0.0,0.0,0.0,0.0,0.0,0.0,0.0,0.0,0.0,0.0,0.0,0.0,0.0,0.0,0.0,0.0,0.0,0.0,0.0,2.1659,2.3067,2.3683,2.4412,2.5118,2.5645,2.5538,2.5958,2.7012,2.7461,2.7891,2.8301,2.8301,2.8301,2.8301,2.8301,2.8301,2.8301,2.8535,2.9004,0.0,0.0,3.0312,3.0898,3.0898,3.0898,3.0898,3.0898,3.1133,3.1484,3.1719,3.2363,3.3105,3.334,3.3418,3.3418,3.3418,3.3418,3.3418,3.3418,3.3418,3.3418,3.3418,3.3418,3.3418,3.3418,3.3574,3.3769,3.4023,3.4219,3.4492,3.4922,3.7762,4.0083,4.0307,4.3479,4.5849,4.5849,4.6125,4.6301,4.6301,4.6527,4.6677,4.6677,4.7739,4.8868,4.9772,4.9482,4.9988,5.1811,5.2603,5.3913,5.584,5.6133,5.6888,5.7962,5.8351,5.856,5.856,5.8919,5.9099,5.9099,5.9099,5.9099,5.9099,0.0,5.9099,5.9099,5.9099,5.9279,5.9627,6.0243,6.1077,6.2228,6.4512,6.5857,6.67,0.0,0.0,0.0,0.0,0.0,0.0,0.0,0.0,0.0,0.0,0.0,1.7582,1.7582,1.7582,0.0,0.0,0.0,0.0,0.0,0.0,2.1963,2.3085,2.3285,2.3998,2.5118,2.4583,2.5071,2.6608,2.7318,2.7851,2.8203,2.8048,2.8067,2.8301,2.7853,2.7833,2.796,2.7833,2.8186,2.8914,2.9196,2.9831,3.0568,0.0,3.0898,3.0898,3.0898,3.1445,3.2168,3.2168,3.2734,3.3418,3.3418,3.3418,3.3418,3.3418,3.3418,3.3418,3.3418,3.3418,3.3418,3.3418,3.3418,3.3437,3.3496,3.3809,3.4101,3.4219,3.4531,3.5054,3.5638,3.8399,4.0792,4.1497,4.4251,4.6301,4.6301,4.6301,4.6326,4.6401,4.695,4.7496,4.745,4.9463,5.083,5.1067,5.1121,5.2294,5.4869,5.5198,5.5908,5.7363,5.7932,5.853,5.9099,5.9099,5.9099,5.9099,5.9099,5.9099,5.9099,5.9099,5.9099,5.9099,5.9099,5.9159,5.9249,5.9249,5.9638,6.0316,6.1704,6.2747,6.3662,6.6256,6.7394,6.7704,0.0,0.0,0.0,0.0,0.0,0.0,0.0,0.0,0.0,0.0,1.7582,1.7582,0.0,0.0,0.0,0.0,0.0,0.0,0.0,0.0,0.0,2.0349,2.1456,2.2165,2.2366,2.3657,2.4398,2.4794,2.673,2.7715,2.7773,2.6892,2.7168,2.8174,2.5717,2.5278,2.6391,2.5151,2.4855,2.5525,2.711,2.7985,2.8695,3.0257,3.0898,0.0,3.0898,3.1445,3.2168,3.2168,3.2734,3.3418,3.3418,3.3418,3.3418,3.3418,3.3418,3.3418,3.3418,3.3418,3.3418,3.3418,3.3418,3.3516,3.3887,3.4023,3.4277,3.5019,3.5215,3.5791,3.7769,3.978,4.1579,4.3083,4.5013,4.6301,4.6301,4.6301,4.6476,4.6928,4.8215,4.9232,4.973,5.1664,5.3513,5.4799,5.5396,5.5595,5.5752,5.6908,5.7958,5.874,5.889,5.8979,5.9099,5.9099,5.9099,5.9099,5.9099,5.9099,5.9099,5.9099,5.9099,5.9099,5.9099,0.0,5.9907,5.9907,6.0326,6.1036,6.2411,6.3671,6.5048,6.7227,6.8744,6.976,0.0,0.0,0.0,0.0,0.0,0.0,0.0,1.7582,1.7582,1.7582,1.7582,1.7582,1.7582,1.7582,0.0,0.0,0.0,0.0,0.0,0.0,0.0,1.9627,2.0231,2.0947,2.1643,2.1824,2.2314,2.3237,0.0,2.5071,2.5486,2.4893,2.563,2.706,2.482,2.471,2.6045,2.4488,2.4036,2.4628,2.5686,2.6295,2.6929,2.7908,2.8307,0.0,3.0274,3.093,3.1011,3.1905,3.2734,3.3418,3.3418,3.3418,3.3418,3.3418,3.3418,3.3418,3.3418,3.3418,3.3418,3.3418,3.3418,3.3535,3.3965,3.4238,3.459,3.5254,3.633,3.733,3.8444,4.0795,4.2706,4.3606,4.5135,4.6401,4.6702,4.6753,4.6954,4.7481,4.9205,5.0552,5.0696,5.3441,5.5452,5.6275,5.7377,5.7908,5.7584,5.8267,5.877,5.9099,5.9099,5.9099,5.9099,5.9099,5.9099,5.9099,5.9099,5.9099,5.9099,5.9099,5.9279,5.9608,5.9608,5.9997,6.0625,6.0625,6.1014,6.1838,6.391,6.5345,6.6538,6.8909,7.0253,7.0838,0.0,0.0,0.0,0.0,0.0,0.0,0.0,1.7582,1.7582,1.7582,1.7582,1.7582,1.7582,1.7582,1.7582,0.0,0.0,0.0,0.0,0.0,0.0,0.0,1.9213,1.9731,2.0845,0.0,0.0,2.1674,2.2067,0.0,0.0,0.0,0.0,0.0,2.371,2.371,2.5041,2.3487,2.3101,0.0,0.0,2.4541,2.5033,0.0,0.0,0.0,0.0,2.9814,2.9847,3.1256,3.2467,3.3418,3.3418,3.3418,3.3418,3.3418,3.3418,3.3418,3.3418,3.3418,3.3418,3.3418,3.3418,3.3555,3.4082,3.4453,3.4975,3.5924,3.7463,3.8861,3.9497,4.1924,4.3879,4.4395,4.5576,4.6677,4.723,4.7305,4.7506,4.8033,5.0272,5.1777,5.1937,5.5162,5.7187,5.7187,5.8386,5.9099,5.9099,5.9099,5.9099,5.9099,5.9099,5.9099,5.9099,5.9099,5.9099,5.9099,5.9099,5.9189,5.9308,5.9308,5.9668,6.0296,6.0296,6.0685,6.1313,6.1313,6.1702,6.2612,6.5334,6.6684,6.747,7.0296,7.1312,7.1312,0.0,0.0,0.0,0.0,0.0,0.0,0.0,1.7582,1.7582,1.7582,1.7582,1.7582,1.7582,1.7582,1.7582,0.0,0.0,0.0,0.0,0.0,0.0,0.0,0.0,0.0,0.0,0.0,0.0,1.9879,2.1538,0.0,0.0,0.0,0.0,0.0,0.0,2.0587,2.1926,2.0486,0.0,0.0,0.0,0.0,0.0,0.0,0.0,0.0,0.0,2.78,2.9723,2.9847,3.1539,3.3418,3.3418,3.3418,3.3418,3.3418,3.3418,3.3418,3.3418,3.3418,3.3418,3.3418,3.3418,3.3633,3.4453,3.4668,3.5448,3.7839,3.8444,3.9497,4.2706,4.3458,4.4395,4.6439,4.6932,4.723,4.7757,4.7832,4.8058,4.8636,5.1429,5.3433,5.4011,5.6962,5.8882,5.8882,5.8991,5.9099,5.9099,5.9099,5.9099,5.9099,5.9099,5.9099,5.9099,5.9099,5.9099,5.9099,5.9099,5.9428,5.9997,5.9997,6.0356,6.1014,6.1014,6.1403,0.0,6.2002,6.2391,6.3304,6.6059,6.7132,6.747,7.0296,7.1312,7.1312,0.0,0.0,0.0,0.0,0.0,0.0,1.7582,1.7582,1.7582,1.7582,1.7582,1.7582,1.7582,1.7582,1.7582,0.0,0.0,0.0,0.0,0.0,0.0,0.0,0.0,0.0,0.0,0.0,1.8408,1.8408,1.915,0.0,0.0,0.0,0.0,0.0,0.0,2.0256,2.1472,2.004,0.0,0.0,0.0,0.0,0.0,0.0,0.0,0.0,0.0,0.0,2.8602,3.0501,3.22,3.3418,3.3418,3.3418,3.3418,3.3418,3.3418,3.3418,3.3418,3.3418,3.3418,3.3418,3.3613,3.3965,3.457,3.5651,3.704,3.834,4.0278,4.2051,4.3458,4.4497,4.5723,4.6906,4.7129,4.7431,4.8309,4.8435,4.8989,5.0503,5.2715,5.4463,5.5647,5.7804,5.9099,5.9099,5.9099,5.9099,5.9099,5.9099,5.9099,5.9099,5.9099,5.9099,5.9099,5.9488,5.9697,5.9697,6.0116,6.0446,6.0715,6.0715,6.1074,6.1702,6.1702,6.2091,0.0,6.269,6.335,6.4512,6.647,6.7673,6.8601,7.0574,7.1312,7.1312,0.0,0.0,0.0,0.0,0.0,1.7582,1.7582,1.7582,1.7582,1.7582,1.7582,1.7582,1.7582,1.7582,1.7582,1.7582,0.0,0.0,0.0,0.0,0.0,0.0,0.0,0.0,0.0,0.0,1.7582,1.7582,1.7582,1.7742,0.0,0.0,1.9181,2.0467,0.0,0.0,0.0,0.0,0.0,0.0,0.0,0.0,0.0,0.0,0.0,0.0,0.0,0.0,0.0,0.0,0.0,3.3418,3.3418,3.3418,3.3418,3.3418,3.3418,3.3418,3.3418,3.3418,3.3418,3.3418,3.375,3.418,3.4609,3.6294,3.8161,3.9149,4.167,4.3855,4.4374,4.5551,4.6728,4.728,4.7506,4.7933,4.8887,4.9012,4.9748,5.1812,5.3429,5.4976,5.6593,5.8166,5.9099,5.9099,5.9099,5.9099,5.9099,5.9279,5.9308,5.9129,5.9279,5.9398,5.9398,6.0057,6.0386,6.0386,6.0894,6.1224,6.1403,6.1403,6.1762,6.2391,6.2391,6.266,0.0,6.3079,6.3902,6.5219,6.6679,6.7974,6.9409,7.0791,7.1312,7.1312,0.0,0.0,0.0,0.0,0.0,0.0,1.7582,1.7582,1.7582,1.7582,1.7582,1.7582,1.7582,1.7582,1.7582,1.7582,0.0,0.0,0.0,0.0,0.0,0.0,0.0,0.0,0.0,0.0,1.7582,1.7582,1.7582,1.7742,1.805,1.8343,1.8651,1.8931,0.0,0.0,0.0,0.0,0.0,0.0,0.0,0.0,2.0307,0.0,0.0,0.0,0.0,0.0,0.0,0.0,0.0,0.0,0.0,3.3418,3.3418,3.3418,3.3418,3.3418,3.3418,3.3418,3.3418,3.3418,3.375,3.418,3.4609,3.6294,3.855,4.0684,4.258,4.4251,4.5914,4.6753,4.7305,4.7807,4.8385,4.8962,4.9515,4.959,5.0181,5.1865,5.3429,5.4976,5.6593,5.8166,5.9099,5.9099,5.9099,5.9099,5.9099,5.9727,5.9787,5.9129,5.9727,6.0086,6.0086,6.0745,6.1104,6.1104,6.1104,6.1463,6.2091,6.2091,6.245,6.3079,6.3079,6.3079,0.0,6.3079,6.3902,6.5219,6.6679,6.7974,6.9409,7.0791,7.1312,7.1312,0.0,0.0,0.0,0.0,0.0,0.0,0.0,1.7582,1.7582,1.7582,1.7582,1.7582,1.7582,1.7582,1.7582,1.7582,0.0,0.0,0.0,0.0,0.0,0.0,0.0,0.0,0.0,0.0,1.7582,1.7582,1.7582,1.7635,1.7729,1.8036,1.8343,1.8637,1.8931,1.9185,0.0,0.0,0.0,0.0,0.0,2.0939,2.1958,0.0,0.0,0.0,0.0,0.0,0.0,0.0,0.0,0.0,0.0,0.0,0.0,3.3418,3.3418,3.3418,3.3418,3.3418,3.3418,3.3418,3.3965,3.4922,3.6167,3.8445,4.0724,4.2534,4.4251,4.5671,4.618,4.6753,4.7305,4.7832,4.8385,4.8962,4.9515,5.0537,5.1865,5.3429,5.6022,5.7804,5.8276,5.8743,5.9099,5.9099,5.9518,5.9787,5.9787,6.0416,6.0475,5.9787,6.0446,6.0775,6.0775,6.1463,6.1792,6.1792,6.2241,6.257,6.278,6.278,6.2869,6.3079,6.3079,6.3079,6.3079,6.3079,6.4401,6.6574,6.7061,6.8634,7.0699,7.1131,7.1312,7.1379,0.0,0.0,0.0,0.0,0.0,0.0,0.0,1.7582,1.7582,1.7582,1.7582,1.7582,1.7582,1.7582,1.7582,1.7582,0.0,0.0,0.0,0.0,0.0,0.0,0.0,0.0,0.0,1.7582,1.7582,1.7582,1.7582,1.7582,1.7595,1.7903,1.821,1.8504,1.8798,1.9092,0.0,0.0,0.0,0.0,2.0704,2.1766,2.2781,0.0,0.0,0.0,0.0,0.0,0.0,0.0,0.0,0.0,0.0,0.0,0.0,0.0,3.3418,3.3418,3.3418,3.3418,3.3418,3.3418,3.4062,3.5191,3.6936,3.9322,4.1693,4.3333,4.5135,4.6301,4.6301,4.6928,4.7531,4.7857,4.856,4.9444,5.0384,5.1393,5.2822,5.4976,5.7581,5.9099,5.9099,5.9099,5.9189,5.9458,5.9847,6.0206,6.0446,6.1104,6.1283,6.0864,6.1253,6.1493,6.1493,6.2121,6.248,6.248,6.2869,6.3079,6.3079,6.3079,6.3079,6.3079,6.3079,6.3079,0.0,6.3706,6.5142,6.7266,6.7774,6.9346,7.1312,7.1312,7.1312,7.1413,0.0,0.0,0.0,0.0,0.0,0.0,0.0,0.0,1.7582,1.7582,1.7582,1.7582,1.7582,1.7582,1.7582,1.7582,0.0,0.0,0.0,0.0,0.0,0.0,0.0,0.0,1.7582,1.7582,1.7582,1.7582,1.7582,1.7582,1.7595,1.7876,1.8183,1.8504,1.8771,1.9065,0.0,0.0,0.0,0.0,2.1876,2.2721,0.0,0.0,0.0,0.0,0.0,0.0,0.0,0.0,0.0,0.0,0.0,0.0,0.0,0.0,0.0,0.0,0.0,3.3418,3.3437,3.3457,3.4082,3.521,3.7106,3.9471,0.0,4.3482,4.5135,4.6326,4.6351,4.7205,4.7933,4.7958,4.8887,5.0206,5.1741,5.2209,5.3402,5.648,5.8166,5.9099,5.9099,5.9129,5.9428,6.0027,6.0176,6.0505,6.1164,6.1822,6.2181,6.2181,6.2181,6.2181,6.2181,6.278,6.3079,6.3079,6.3079,6.3079,6.3079,6.3079,6.3079,0.0,6.3079,6.3079,6.3164,6.4512,6.5941,6.7368,6.8699,7.0043,7.1312,7.1312,7.1345,7.1481,0.0,0.0,0.0,0.0,0.0,0.0,0.0,0.0,0.0,0.0,1.7582,1.7582,1.7582,1.7582,1.7582,0.0,0.0,0.0,0.0,0.0,0.0,0.0,0.0,0.0,1.7582,1.7582,1.7582,1.7582,1.7582,1.7582,1.7582,1.7662,1.7983,1.849,1.8557,1.8878,0.0,0.0,0.0,0.0,2.1846,2.3557,0.0,0.0,0.0,0.0,2.8289,2.8931,0.0,0.0,0.0,0.0,0.0,0.0,0.0,0.0,3.3418,3.3418,3.3418,0.0,3.3496,3.3828,3.4316,3.5531,0.0,4.0479,4.2074,4.5013,4.6059,4.6451,4.6853,4.7481,4.8058,4.8485,4.9138,5.0206,5.1741,5.4121,5.6366,5.8276,5.8852,5.9099,5.9099,5.9548,5.9907,6.0086,6.1044,6.1702,6.1852,6.248,6.2839,6.2839,6.2839,6.2839,6.2839,6.2989,6.3079,6.3079,6.3079,6.3079,6.3079,6.3079,6.3079,6.3079,6.3079,6.3079,6.3164,6.4512,6.5941,6.7368,6.8699,7.0043,7.1312,7.1312,7.1684,7.2259,0.0,0.0,0.0,0.0,0.0,0.0,0.0,0.0,0.0,0.0,0.0,0.0,0.0,0.0,0.0,0.0,0.0,0.0,0.0,0.0,0.0,0.0,0.0,1.7582,1.7582,1.7582,1.7582,1.7582,1.7582,1.7582,1.7582,1.7729,1.805,1.8504,1.8771,1.9065,0.0,0.0,0.0,2.005,2.2674,0.0,0.0,0.0,0.0,0.0,2.9736,3.0204,0.0,3.2138,3.2891,3.3418,0.0,0.0,0.0,0.0,3.3418,3.3418,3.3418,3.3418,3.3535,3.3965,3.4394,3.5701,3.955,4.0822,4.2201,4.555,4.6301,4.6476,4.7029,4.7556,4.8109,4.8686,4.9238,5.0436,5.2822,5.5182,5.7328,5.8882,5.9099,5.9219,5.9518,5.9877,6.0356,6.0954,6.1672,6.2241,6.254,6.2869,6.3079,6.3079,6.3079,6.3079,6.3079,6.3079,6.3079,6.3079,6.3079,6.3079,6.3079,6.3079,6.3079,6.3079,6.3079,6.3079,6.3279,6.5219,6.6543,6.7368,6.9442,7.0574,7.1345,7.1684,7.2056,7.2563,0.0,0.0,0.0,0.0,0.0,0.0,0.0,0.0,0.0,0.0,0.0,0.0,0.0,0.0,0.0,0.0,0.0,0.0,0.0,0.0,0.0,0.0,1.7582,1.7582,1.7582,1.7582,1.7582,1.7582,1.7582,1.7582,1.7595,1.7903,1.8223,1.8584,1.9132,1.9372,0.0,1.9372,1.9559,2.0118,2.3731,0.0,0.0,0.0,0.0,0.0,0.0,0.0,0.0,3.2656,3.3066,3.3418,3.3418,0.0,0.0,0.0,0.0,0.0,3.3418,3.3544,3.3769,3.4171,3.4434,3.5701,3.966,4.0867,4.2201,4.555,4.6301,4.6502,4.7129,4.7606,4.8134,4.8786,4.9774,5.1393,5.4386,5.6022,5.7552,5.8991,5.9099,5.9368,6.0027,6.0176,6.0745,6.2002,6.2181,6.248,6.3049,6.3079,6.3079,6.3079,6.3079,6.3079,6.3079,6.3079,6.3079,6.3079,6.3079,6.3079,6.3079,6.3079,6.3079,6.3079,0.0,0.0,6.3279,6.6048,6.7164,6.747,7.0263,7.1312,7.1413,7.2124,7.2462,7.2766,0.0,0.0,0.0,0.0,0.0,0.0,0.0,0.0,0.0,0.0,0.0,0.0,0.0,0.0,0.0,0.0,0.0,0.0,0.0,0.0,0.0,1.7582,1.7582,1.7582,1.7582,1.7582,1.7582,1.7582,1.7582,1.7582,1.7595,1.7903,1.833,1.8878,1.9212,1.9372,1.9372,1.9372,1.9679,2.0402,2.3709,0.0,0.0,0.0,0.0,0.0,0.0,0.0,0.0,3.2656,3.3066,3.3418,3.3418,0.0,0.0,0.0,0.0,0.0,3.3418,3.4383,3.5293,3.4784,3.4648,3.5781,4.01,4.1136,4.2201,4.555,4.6301,4.6602,4.7606,4.7857,4.8259,4.9314,5.1812,5.4268,5.6137,5.7664,5.8852,5.9099,5.9099,5.9368,6.0027,6.0625,6.1283,6.2032,6.26,6.2959,6.3079,6.3079,6.3079,6.3079,6.3079,6.3079,6.3079,6.3079,6.3079,6.3079,6.3079,6.3079,6.3079,6.3079,6.3079,6.3079,0.0,6.3079,6.3279,6.6048,6.7164,6.747,7.0263,7.1312,7.1413,7.2124,7.28,7.3544,0.0,0.0,0.0,0.0,0.0,0.0,0.0,0.0,0.0,0.0,0.0,0.0,0.0,0.0,0.0,0.0,0.0,0.0,0.0,0.0,1.7582,1.7582,1.7582,1.7582,1.7582,1.7582,1.7582,1.7582,1.7582,1.7582,1.7595,1.8063,1.8597,1.9172,1.9305,1.9372,1.9372,1.9533,1.984,2.0362,0.0,0.0,0.0,0.0,0.0,0.0,0.0,0.0,0.0,0.0,3.3262,3.3418,3.3418,0.0,0.0,0.0,0.0,0.0,3.3418,3.408,3.5139,3.5916,3.6701,3.8336,4.1696,4.258,4.3232,4.5793,4.6552,4.7004,4.7757,4.8159,4.9014,5.0661,5.2849,5.4976,5.648,5.7328,5.8136,5.8991,5.9099,5.9518,6.0535,6.0924,6.1523,6.254,6.2899,6.3079,6.3079,6.3079,6.3079,6.3079,6.3079,6.3079,6.3079,6.3079,6.3079,6.3079,6.3079,6.3079,6.3079,6.3079,6.3079,6.3079,0.0,6.3478,6.432,6.6365,6.7572,6.8503,7.0482,7.1312,7.1447,7.2563,7.3713,7.4796,0.0,0.0,0.0,0.0,0.0,0.0,0.0,0.0,0.0,0.0,0.0,0.0,0.0,0.0,0.0,0.0,0.0,0.0,0.0,1.7582,1.7582,1.7582,1.7582,1.7582,1.7582,1.7582,1.7582,1.7582,1.7582,1.7649,1.7809,1.8343,1.8865,1.9372,1.9372,1.9399,1.9479,1.9706,2.0,2.0469,0.0,0.0,0.0,0.0,0.0,0.0,0.0,0.0,0.0,0.0,0.0,0.0,0.0,0.0,0.0,3.3418,3.3418,3.3418,3.3418,3.3985,3.5167,3.7319,3.8647,4.0083,4.2997,4.3731,4.4227,4.5914,4.6753,4.728,4.7807,4.8485,4.9698,5.1662,5.3308,5.4976,5.648,5.6962,5.7664,5.8991,5.9249,5.9817,6.1014,6.1253,6.1822,6.2989,6.3079,6.3079,6.3079,6.3079,6.3079,6.3079,6.3079,6.3079,6.3079,6.3079,6.3079,6.3079,6.3079,6.3079,6.3079,6.3079,6.3079,6.3079,6.3079,6.3902,6.5219,6.6679,6.7974,6.9313,7.0791,7.1515,7.1954,7.3071,7.4424,7.5709,0.0,0.0,0.0,0.0,0.0,0.0,0.0,0.0,0.0,0.0,0.0,0.0,0.0,0.0,0.0,0.0,0.0,0.0,0.0,1.7582,1.7582,1.7582,1.7582,1.7582,1.7582,1.7582,1.7582,1.7582,1.7582,1.7876,1.8437,1.8744,1.9065,1.9372,1.9372,1.9519,1.9773,1.9786,2.0134,2.0765,2.2471,0.0,0.0,0.0,0.0,0.0,0.0,0.0,0.0,0.0,0.0,0.0,0.0,0.0,3.3418,3.3418,3.3418,3.3418,3.3418,3.4851,3.6896,3.9197,3.8908,3.9002,4.2818,4.3731,4.4227,4.5914,4.6753,4.728,4.7807,4.8812,5.0028,5.1741,5.3308,5.4976,5.648,5.8026,5.8991,5.9099,5.9638,6.0296,6.1044,6.1672,6.2331,6.3019,6.3079,6.3079,6.3079,6.3079,6.3079,6.3079,6.3079,6.3079,6.3079,6.3079,6.3079,6.3079,6.3079,6.3079,6.3079,6.3079,6.3079,6.3079,6.3079,6.3902,6.5219,6.6679,6.7974,6.9313,7.0791,7.2157,7.3341,7.3443,7.4424,7.5709,0.0,0.0,0.0,0.0,0.0,0.0,0.0,0.0,0.0,0.0,0.0,0.0,0.0,0.0,0.0,0.0,0.0,0.0,0.0,1.7582,1.7582,1.7582,1.7582,1.7582,1.7582,1.7582,1.7582,1.7582,1.7769,1.809,1.8504,1.8784,1.9078,1.9372,1.9372,1.9533,1.9813,1.9987,2.0307,2.0819,2.2704,2.4423,0.0,0.0,0.0,0.0,0.0,0.0,0.0,0.0,3.3418,3.3418,3.3418,3.3418,3.3418,3.3418,3.3418,3.3476,3.375,3.5362,3.755,3.9766,4.0887,4.22,4.4719,4.5281,4.5624,4.6631,4.723,4.7883,4.8786,5.0129,5.1616,5.3187,5.4859,5.6394,5.7915,5.8743,5.9099,5.9099,5.9668,6.0356,6.1044,6.1702,6.2361,6.3019,6.3079,6.3079,6.3079,6.3079,6.3079,6.3079,6.3079,6.3079,6.3079,6.3079,6.3079,6.3079,6.3079,6.3079,6.3079,6.3079,6.3079,6.3079,6.3079,6.432,6.647,6.6958,6.8503,7.0574,7.1098,7.2191,7.3477,7.3477,7.4424,7.5709,0.0,0.0,0.0,0.0,0.0,0.0,0.0,0.0,0.0,0.0,0.0,0.0,0.0,0.0,0.0,0.0,0.0,0.0,1.7582,1.7582,1.7582,1.7582,1.7582,1.7582,1.7582,1.7582,1.7582,1.7582,1.7983,1.8343,1.8637,1.8931,1.9172,1.9372,1.9466,1.9666,1.996,2.0254,2.0548,2.0953,2.2256,2.3867,0.0,0.0,0.0,0.0,0.0,0.0,0.0,0.0,3.3418,3.3418,3.3418,3.3418,3.3418,3.3418,3.3776,3.4233,3.4819,3.6476,3.8564,4.0808,4.2584,4.4103,4.5914,4.6301,4.6476,4.7029,4.7682,4.846,4.9414,5.0563,5.1741,5.3429,5.4976,5.6508,5.8136,5.8743,5.9099,5.9099,5.9877,6.0595,6.1074,6.1912,6.26,6.3049,6.3079,6.3079,6.3079,6.3079,6.3079,6.3079,6.3079,6.3079,6.3079,6.3079,6.3079,6.3079,6.3079,6.3079,6.3079,6.3079,6.3079,6.3079,6.3079,6.4432,6.6574,6.6958,6.883,7.1312,7.1312,7.2191,7.3477,7.3477,7.4424,7.5709,0.0,0.0,0.0,0.0,0.0,0.0,0.0,0.0,0.0,0.0,0.0,0.0,0.0,0.0,0.0,0.0,0.0,0.0,1.7582,1.7582,1.7582,1.7582,1.7582,1.7582,1.7582,1.7582,1.7582,1.7582,1.8196,1.8637,1.8931,1.9225,1.9372,1.9386,1.9666,1.996,2.0254,2.0548,2.0842,2.1109,2.1109,2.2286,2.4179,0.0,0.0,0.0,0.0,0.0,0.0,0.0,3.3418,3.3418,3.3418,3.3418,3.3418,3.3418,3.4487,3.5911,3.6518,3.8211,4.0185,4.2461,4.335,4.4251,4.5914,4.6301,4.6476,4.7029,4.8033,4.8937,4.949,4.959,5.0078,5.1741,5.3308,5.4976,5.648,5.8026,5.9099,5.9099,6.0296,6.1104,6.1104,6.2301,6.3079,6.3079,6.3079,6.3079,6.3079,6.3079,6.3079,6.3079,6.3079,6.3079,6.3079,6.3079,6.3079,6.3079,6.3079,6.3079,6.3079,6.3079,6.3079,6.3079,6.3079,6.3902,6.5219,6.6647,6.883,7.1312,7.1312,7.2191,7.3477,7.3477,7.4424,7.5709,0.0,0.0,0.0,0.0,0.0,0.0,0.0,0.0,0.0,0.0,0.0,0.0,0.0,0.0,0.0,0.0,0.0,0.0,1.7582,1.7582,1.7582,1.7582,1.7582,1.7582,1.7582,1.7796,1.7903,1.7903,1.8303,1.8637,1.8931,1.9225,1.9479,1.9679,1.976,2.008,2.0548,2.0641,2.0842,2.1249,2.2582,2.4215,2.6096,0.0,0.0,0.0,0.0,0.0,0.0,0.0,0.0,0.0,3.3418,3.3418,3.3418,3.3418,3.3776,3.4293,3.5051,3.7466,4.013,4.1388,4.3636,4.5671,4.618,4.6602,4.7154,4.8083,4.8862,4.9389,4.9565,4.959,5.0078,5.1741,5.3308,5.4976,5.648,5.8026,5.9099,5.9099,6.0296,6.1104,6.1104,6.2301,6.3079,6.3079,6.3079,6.3079,6.3079,6.3079,6.3079,6.3079,6.3079,6.3079,6.3079,6.3079,6.3079,6.3079,6.3079,6.3079,6.3079,6.3079,6.3079,6.3079,6.3079,6.4401,6.6751,6.9121,7.0574,7.1312,7.1312,7.2191,7.3477,7.3477,7.4424,7.5709,0.0,0.0,0.0,0.0,0.0,0.0,0.0,0.0,0.0,0.0,1.7252,1.7582,0.0,0.0,0.0,0.0,0.0,0.0,0.0,1.7582,1.7582,1.7582,1.7582,1.7582,1.7582,1.7889,1.8103,1.8223,1.8517,1.8811,1.9105,1.9399,1.9639,1.9813,2.004,2.0347,2.0681,2.0802,2.1015,2.1424,2.261,2.3833,2.5242,0.0,0.0,0.0,0.0,0.0,0.0,0.0,0.0,0.0,3.3418,3.3418,3.3544,3.4133,3.4983,3.5894,3.736,3.9837,4.2296,4.302,4.4767,4.6426,4.6853,4.7205,4.7631,4.8284,4.9063,4.959,4.959,4.959,5.0308,5.2578,5.379,5.5211,5.7328,5.8495,5.9099,5.9099,6.0057,6.0805,6.1074,6.2061,6.278,6.3049,6.3079,6.3079,6.3079,6.3079,6.3079,6.3079,6.3079,6.3079,6.3079,6.3079,6.3079,6.3079,6.3079,6.3079,6.3079,6.3079,6.3079,6.3079,6.3706,6.5111,6.7368,6.9537,7.0791,7.1312,7.1312,7.2022,7.3105,7.3375,7.4255,7.5303,0.0,0.0,0.0,0.0,0.0,0.0,0.0,0.0,0.0,0.0,1.6605,1.7477,0.0,0.0,0.0,0.0,0.0,0.0,0.0,1.7582,1.7582,1.7582,1.7582,1.7595,1.7622,1.7929,1.8237,1.8531,1.8798,1.9078,1.9372,1.9666,1.9813,1.9867,2.0428,2.0695,2.0735,2.1029,2.1309,2.155,2.1617,2.2082,2.3075,2.6482,0.0,0.0,0.0,0.0,0.0,0.0,0.0,0.0,3.3418,3.3418,3.365,3.5211,3.7105,3.9196,4.1298,4.3552,4.536,4.591,4.618,4.6577,4.7606,4.7883,4.7933,4.8033,4.8887,4.959,4.959,4.959,5.0563,5.367,5.4268,5.5472,5.8495,5.8991,5.9099,5.9099,5.9668,6.0356,6.1044,6.1702,6.2361,6.3019,6.3079,6.3079,6.3079,6.3079,6.3079,6.3079,6.3079,6.3079,6.3079,6.3079,6.3079,6.3079,6.3079,6.3079,6.3079,6.3079,6.3079,6.3164,6.4512,6.5835,6.7061,6.8503,6.9855,7.1098,7.1098,7.1661,7.2462,7.3138,7.3916,7.4695,0.0,0.0,0.0,0.0,0.0,0.0,0.0,0.0,0.0,0.0,0.0,0.0,0.0,0.0,0.0,0.0,0.0,0.0,0.0,1.7582,1.7582,1.7582,1.7582,1.7702,1.7943,1.8237,1.8544,1.8824,1.8891,1.9078,1.9372,1.9666,1.992,2.0147,2.0508,2.0802,2.1029,2.1336,2.1496,2.159,2.2044,2.3084,2.4804,2.7162,2.9014,0.0,0.0,0.0,0.0,0.0,0.0,0.0,3.3418,3.3418,3.3418,3.3776,3.5417,3.7352,3.8179,4.093,4.3723,4.4106,4.5281,4.6476,4.7154,4.7606,4.8159,4.9038,4.9414,4.959,4.959,4.959,5.0181,5.2236,5.3549,5.5094,5.6962,5.8276,5.9099,5.9099,5.9668,6.0356,6.1044,6.1702,6.2361,6.3019,6.3079,6.3079,6.3079,6.3079,6.3079,6.3079,6.3079,6.3079,6.3079,6.3079,6.3079,6.3079,6.3079,6.3079,6.3079,6.3079,6.3079,6.3164,6.4512,6.5219,6.562,6.7061,6.8405,6.9633,6.9633,7.079,7.2428,7.2563,7.3477,7.4627,0.0,0.0,0.0,0.0,0.0,0.0,0.0,0.0,0.0,0.0,0.0,0.0,0.0,0.0,0.0,0.0,0.0,0.0,0.0,0.0,1.7582,1.7582,1.7716,1.7876,1.805,1.8477,1.8771,1.8918,1.9199,1.9426,1.9586,1.9867,2.016,2.0454,2.0748,2.1042,2.1336,2.1483,2.171,2.1991,2.2298,2.3023,2.4238,2.6111,2.8032,2.9735,3.1561,0.0,0.0,0.0,0.0,0.0,0.0,0.0,3.3583,3.4518,3.5871,3.7444,3.9405,4.1669,4.3644,4.4695,4.5671,4.6527,4.733,4.7707,4.8234,4.9364,4.959,4.959,4.959,5.0181,5.1268,5.2822,5.4505,5.6022,5.7664,5.8634,5.9099,5.9099,5.9398,5.9877,6.0565,6.0924,6.1553,6.254,6.26,6.275,6.3049,6.3079,6.3079,6.3079,6.3079,6.3079,6.3079,6.3079,6.3079,6.3079,6.3079,6.3079,6.3079,6.3079,6.3079,6.3164,6.4512,6.5111,6.5219,6.7266,6.8601,6.9313,6.9949,7.0901,7.1921,7.2259,7.2902,7.3646,0.0,0.0,0.0,0.0,0.0,0.0,0.0,0.0,0.0,0.0,0.0,0.0,0.0,0.0,0.0,0.0,0.0,0.0,0.0,0.0,0.0,1.7662,1.7889,1.8076,1.8196,1.8677,1.8945,1.8998,1.9533,1.9826,1.988,2.0174,2.0441,2.0695,2.1029,2.1323,2.1563,2.1657,2.1977,2.2418,2.2472,2.2768,2.3529,2.5248,2.7105,2.8821,3.0642,3.2237,3.3418,3.3418,0.0,0.0,0.0,0.0,3.3847,3.5578,3.6665,3.8018,4.1181,4.2809,4.4103,4.5914,4.6301,4.6577,4.7657,4.7908,4.8234,4.9364,4.959,4.959,4.959,5.0664,5.2236,5.4029,5.5444,5.6962,5.8882,5.9099,5.9099,5.9099,5.9099,5.9368,6.0027,6.0086,6.0595,6.1822,6.1942,6.2181,6.272,6.2839,6.2899,6.2899,6.3019,6.3079,6.3079,6.3079,6.3079,6.3079,6.3079,6.3079,6.3079,6.3079,6.3079,6.3194,6.432,6.4703,6.4923,6.7164,6.8273,6.8601,6.976,7.0482,7.0983,7.1647,7.2076,7.2563,0.0,0.0,0.0,0.0,0.0,0.0,0.0,0.0,0.0,0.0,1.3588,1.4877,0.0,0.0,0.0,0.0,0.0,0.0,1.7582,0.0,0.0,1.7969,1.7996,1.8263,1.8798,1.8878,1.9052,1.9305,1.9639,1.9933,2.0187,2.0481,2.0641,2.0695,2.1243,2.151,2.159,2.2084,2.2352,2.2445,2.2699,2.376,2.5383,2.7105,2.8952,3.0642,3.2492,3.3165,3.3418,3.3418,3.3418,0.0,0.0,0.0,3.4113,3.43,3.6017,3.795,3.838,4.1031,4.4103,4.5914,4.6301,4.6577,4.7657,4.7908,4.8234,4.9364,4.959,4.959,4.959,4.9847,5.0916,5.391,5.4505,5.5704,5.8634,5.9099,5.9099,5.9099,5.9099,5.9368,6.0027,6.0086,6.0416,6.1194,6.1253,6.1283,6.1373,6.1912,6.2241,6.2241,6.278,6.3079,6.3079,6.3079,6.3079,6.3079,6.3079,6.3079,6.3079,6.3079,6.3079,6.3079,6.3279,6.3394,6.3394,6.3789,6.4623,6.562,6.5835,6.7368,6.9537,6.9637,7.0797,7.2211,0.0,0.0,0.0,0.0,0.0,0.0,0.0,0.0,0.0,0.0,0.0,1.5304,0.0,0.0,0.0,1.7582,1.7582,1.7582,1.7582,1.7742,1.7903,1.8036,1.8357,1.8651,1.8918,1.9092,1.9319,1.9613,1.9907,2.0187,2.0494,2.0788,2.1002,2.1176,2.143,2.1737,2.2058,2.2311,2.3037,2.4132,2.4274,2.5383,2.7105,2.79,2.9344,3.09,3.1689,3.2619,3.3418,3.3418,3.3418,3.3457,3.3711,0.0,0.0,0.0,3.5587,3.6963,3.9131,4.1638,4.4103,4.5914,4.6301,4.6577,4.7657,4.7908,4.8234,4.9364,4.959,4.959,4.959,5.0308,5.1741,5.4029,5.5094,5.6508,5.8743,5.9099,5.9099,5.9099,5.9099,5.9219,5.9518,5.9548,5.9817,6.0475,6.0535,6.0715,6.1104,6.1373,6.1553,6.1553,6.1822,6.2151,6.254,6.254,6.272,6.3079,6.3079,6.3079,6.3079,6.3079,6.3079,6.3079,6.3079,6.3079,6.3194,6.3902,6.4623,6.5219,6.5941,6.6958,6.8074,6.8074,6.8699,6.9452,0.0,0.0,0.0,0.0,0.0,0.0,0.0,0.0,0.0,0.0,0.0,0.0,0.0,0.0,0.0,0.0,1.7106,1.7397,1.7809,1.8036,1.8196,1.8263,1.8691,1.8958,1.9038,1.9319,1.9586,1.98,2.016,2.0454,2.0681,2.1056,2.1632,2.242,2.242,2.2331,2.2418,2.3412,2.4506,2.5517,2.6039,2.7238,2.8821,2.8821,2.9995,3.1433,3.1433,3.2365,3.3437,3.3555,3.3594,3.3672,3.4101,3.4316,0.0,0.0,0.0,3.6256,3.9671,4.182,4.3482,4.5159,4.5939,4.6577,4.7657,4.7908,4.8234,4.9364,4.959,4.959,4.959,5.0537,5.2112,5.4029,5.5327,5.6849,5.8852,5.9099,5.9099,5.9099,5.9099,5.9099,5.9099,5.9099,5.9308,5.9787,5.9847,6.0057,6.0565,6.0775,6.0864,6.0864,6.1014,6.1343,6.1852,6.2002,6.2331,6.2839,6.2989,6.3079,6.3079,6.3079,6.3079,6.3079,6.3079,6.3079,6.3194,6.4209,6.4623,6.4734,6.5759,6.6365,6.6647,6.6647,6.6855,6.726,0.0,0.0,0.0,0.0,0.0,0.0,0.0,0.0,0.0,0.0,0.0,0.0,1.5304,1.4341,1.4019,1.5411,1.5862,1.6673,1.8313,1.8464,1.8597,1.8865,1.8905,0.0,1.9332,1.9626,1.9786,1.98,2.0374,2.0655,2.0681,2.1256,2.2563,2.4386,2.4386,2.3665,2.27,2.6284,2.6956,2.5651,2.737,2.9083,3.0642,3.0642,3.1707,3.3292,3.3292,3.3292,3.3496,3.3906,3.4043,3.4101,3.4531,3.4961,3.5332,0.0,0.0,0.0,3.82,4.0018,4.1693,4.3482,4.5013,4.6577,4.7657,4.7908,4.8234,4.9364,4.959,4.959,4.959,4.9719,5.079,5.391,5.4505,5.556,5.8634,5.9099,5.9099,5.9099,5.9099,5.9099,5.9099,5.9099,5.9129,5.9159,5.9159,5.9189,5.9219,5.9787,6.0146,6.0146,6.0775,6.1134,6.1164,6.1792,6.2121,6.2151,6.278,6.3079,6.3079,6.3079,6.3079,6.3079,6.3079,6.3079,6.3079,6.3194,6.3164,6.3164,6.3279,6.4097,6.5219,6.5219,6.6048,6.6958,0.0,0.0,0.0,0.0,0.0,0.0,0.0,0.0,0.0,0.0,0.0,0.0,0.0,1.5671,1.5561,1.7003,1.7367,1.7806,1.8477,1.8664,1.8811,1.8918,1.9279,1.9533,1.9639,1.9933,2.0174,2.0361,2.0575,2.0869,2.137,2.2695,2.3206,2.3161,2.3161,2.4245,2.6004,2.5204,2.6439,2.8804,2.8427,2.9865,3.2492,3.2492,3.2892,3.3418,3.3418,3.3594,3.3867,3.4023,3.4258,3.4551,3.5,3.5254,3.5449,3.5723,3.5898,3.6403,3.8088,3.9888,4.1565,4.3333,4.5013,4.6502,4.723,4.7657,4.8134,4.8912,4.9339,4.959,4.959,4.959,5.0689,5.391,5.4386,5.5472,5.8634,5.9099,5.9099,5.9099,5.9099,5.9099,5.9099,5.9099,5.9099,5.9099,5.9099,5.9099,5.9099,5.9338,5.9458,5.9458,5.9697,6.0027,6.0446,6.1134,6.1463,6.1463,6.2121,6.245,6.245,6.2869,6.3079,6.3079,6.3079,6.3079,6.3079,6.3079,6.3079,6.3079,6.3079,6.3394,6.3789,6.3789,6.4097,6.4512,0.0,0.0,0.0,0.0,0.0,0.0,0.0,0.0,0.0,0.0,0.0,0.0,0.0,0.0,1.5864,1.7423,1.8171,1.8677,1.8784,1.9052,1.9225,1.9225,1.9679,1.9947,1.9947,2.004,2.051,2.1519,2.0916,2.1589,2.3305,2.3522,2.4101,2.5024,2.3961,2.4922,2.7238,2.6706,2.8147,3.0771,3.0142,3.1322,3.3418,3.3418,3.3516,3.3613,3.3476,3.3789,3.4277,3.4277,3.457,3.5019,3.5469,3.5605,3.5664,3.5937,3.6016,3.6287,3.7441,3.8993,4.0537,4.167,4.3731,4.5551,4.6094,4.701,4.7857,4.8611,4.9063,4.9364,4.9565,4.959,5.0436,5.3187,5.4029,5.5327,5.7915,5.8743,5.9099,5.9099,5.9099,5.9099,5.9099,5.9099,5.9099,5.9099,5.9099,5.9099,5.9099,5.9099,5.9099,5.9099,5.9099,5.9308,5.9757,6.0446,6.0775,6.0775,6.1433,6.1762,6.1792,6.2211,6.254,6.275,6.275,6.2869,6.3079,6.3079,6.3079,6.3079,6.3079,6.3079,6.3079,6.3079,6.3079,6.3079,0.0,0.0,0.0,0.0,0.0,0.0,0.0,0.0,0.0,1.5648,0.0,0.0,0.0,0.0,0.0,1.6677,1.8122,1.9078,1.9372,1.9653,1.9813,1.9813,2.0094,2.0241,2.0241,1.9973,2.0934,2.311,2.1547,2.2835,2.6595,2.3956,2.5404,3.023,2.7078,2.5636,2.6039,3.1047,3.2365,3.1029,3.2619,3.3292,3.3418,3.3418,3.3691,3.4023,3.3594,3.3984,3.4726,3.4726,3.5019,3.5488,3.5898,3.6016,3.6016,3.6016,3.6016,3.6016,0.0,0.0,0.0,3.8597,4.1158,4.3725,4.4397,4.5819,4.7307,4.851,4.8736,4.8912,4.9464,4.9565,5.0053,5.1616,5.3308,5.4859,5.648,5.8026,5.9099,5.9099,5.9099,5.9099,5.9099,5.9099,5.9099,5.9099,5.9099,5.9099,5.9099,5.9099,5.9099,5.9099,5.9099,5.9099,5.9099,5.9727,6.0057,6.0057,6.0745,6.1074,6.1074,6.1104,6.1463,6.2061,6.2061,6.245,6.3049,6.3079,6.3079,6.3079,6.3079,6.3079,6.3079,6.3079,6.3079,6.3079,0.0,0.0,0.0,0.0,0.0,0.0,1.348,1.4019,1.4838,0.0,0.0,0.0,1.7546,1.7703,1.7944,1.8894,1.9311,1.9679,1.9973,2.0067,2.0107,2.0107,2.0401,2.0548,2.0548,2.0681,2.1783,2.3908,2.3407,2.4619,2.7449,2.7905,2.8398,2.8946,3.0477,3.0513,2.9327,2.9605,3.0789,3.2619,3.1835,3.2237,3.3418,3.3418,3.3691,3.4062,3.3945,3.4453,3.5195,3.5195,3.5488,3.5859,3.5976,3.6016,3.6016,3.6016,3.6016,3.6016,3.6016,0.0,0.0,0.0,0.0,0.0,4.3647,4.4631,4.5792,4.7258,4.7883,4.8309,4.8887,4.9012,4.924,5.013,5.1616,5.3643,5.6366,5.7075,5.7804,5.8991,5.9099,5.9099,5.9099,5.9099,5.9099,5.9099,5.9099,5.9099,5.9099,5.9099,5.9099,5.9099,5.9099,5.9099,5.9099,5.9279,5.9368,5.9368,6.0057,6.0386,6.0386,6.0894,6.1224,6.1373,6.1373,6.1762,6.2391,6.2869,6.3079,6.3079,6.3079,6.3079,6.3079,6.3079,6.3079,6.3079,0.0,0.0,0.0,0.0,0.0,0.0,1.4472,1.4928,1.5681,0.0,0.0,0.0,1.8757,1.9185,1.9479,1.9947,1.9987,2.0054,2.0227,2.0347,2.0414,2.0414,2.0695,2.1284,2.2145,2.2061,2.3524,2.651,2.5737,2.6783,2.9814,2.959,2.9784,3.0401,3.1707,3.2091,3.1835,3.0789,3.1579,3.3292,3.2237,3.2492,3.3437,3.3633,3.3965,3.4336,3.4336,3.4902,3.5625,3.5449,3.5664,3.6016,3.6016,3.6016,3.6016,3.6016,3.6016,3.6016,3.6016,3.6809,3.7575,3.7575,0.0,0.0,4.2328,4.3467,4.478,4.6686,4.738,4.7757,4.8309,4.841,4.851,4.8837,4.972,5.1286,5.4276,5.5327,5.6394,5.7915,5.8136,5.8386,5.8991,5.9099,5.9099,5.9099,5.9099,5.9099,5.9099,5.9099,5.9099,5.9099,5.9099,5.9099,5.9099,5.9099,5.9099,5.9099,5.9488,5.9668,5.9697,6.0086,6.0416,6.0685,6.0685,6.1074,6.1702,6.2091,6.26,6.3079,6.3079,6.3079,6.3079,6.3079,6.3079,6.3079,0.0,0.0,0.0,1.3804,1.4793,1.5755,1.6102,1.7181,1.8196,0.0,1.8824,1.9239,1.9786,1.984,1.996,2.0254,2.0281,2.0294,2.0334,2.0575,0.0,0.0,2.1015,2.2159,2.4224,2.3777,2.5504,2.9795,2.8058,2.9155,3.2871,3.0112,3.0401,3.3292,3.1835,3.1963,3.3418,3.3418,3.3418,3.3418,3.3418,3.3476,3.3594,3.3945,3.4355,3.4766,3.4766,3.5312,3.5957,3.5586,3.5703,3.6016,3.6016,3.6016,3.6016,3.6016,3.6016,3.6016,3.6016,3.6016,3.6016,3.6016,3.7193,0.0,4.0537,4.2074,4.3725,4.602,4.639,4.6687,4.7458,4.7558,4.7583,4.7908,4.7908,4.8858,5.1478,5.3079,5.4658,5.6251,5.6622,5.7299,5.8743,5.8991,5.9099,5.9099,5.9099,5.9099,5.9099,5.9099,5.9099,5.9099,5.9099,5.9099,5.9099,5.9099,5.9099,5.9099,5.9099,5.9099,5.9099,5.9099,5.9428,5.9967,5.9967,6.0356,6.1014,6.1014,6.1732,6.2869,6.2869,6.2869,6.2869,6.2869,6.2869,6.2869,0.0,1.6711,1.6711,1.6711,1.7128,1.7538,1.759,1.8018,1.8504,1.8798,1.9305,1.976,2.0107,2.0147,2.0267,2.0561,2.0588,2.0695,2.0922,2.0989,0.0,0.0,0.0,2.2479,2.4441,2.4449,2.6247,3.0212,2.987,3.0988,3.3301,3.2727,3.2765,3.3418,3.3019,3.3019,3.3418,3.3418,3.3418,3.3418,3.3418,3.3828,3.4414,3.416,3.457,3.5254,3.5254,3.5586,3.6016,3.5918,3.5957,3.6016,3.6016,3.6016,3.6016,3.6016,3.6016,3.6016,3.6016,3.6016,3.6016,3.6016,3.6287,0.0,3.8729,3.9387,4.017,4.1934,4.2339,4.2905,4.484,4.5188,4.5862,4.7583,4.7908,4.8731,5.1075,5.1641,5.2527,5.4568,5.5907,5.6849,5.7187,5.8386,5.9099,5.9099,5.9099,5.9099,5.9099,5.9099,5.9099,5.9099,5.9099,5.9099,5.9099,5.9099,5.9099,5.9099,5.9099,5.9099,5.9099,5.9099,5.9189,5.9308,5.9308,5.9668,6.0296,6.0296,6.0775,6.1493,6.1493,6.1493,6.1493,6.1493,6.1493,6.1493,1.7582,1.7702,1.7809,1.7809,1.8063,1.8317,1.8464,1.8611,1.8865,1.9305,1.9746,2.012,2.0428,2.0454,2.0575,2.0869,2.1029,0.0,0.0,0.0,2.1617,0.0,0.0,2.4069,2.6053,2.7082,2.8928,3.1917,3.1917,3.2428,3.3418,3.3418,3.3418,3.3418,3.3418,3.3418,3.3437,3.3652,3.3867,3.4043,3.3828,3.4004,3.4414,3.4648,3.5,3.543,3.5625,3.584,3.6016,3.6016,3.6016,3.6016,3.6016,3.6016,3.6016,3.6016,3.6016,3.6016,3.6016,3.6016,3.6016,3.6016,3.6016,0.0,0.0,3.8597,3.9125,4.0795,4.1181,4.1505,4.2673,4.2847,4.3575,4.5497,4.5795,4.6588,4.8891,4.9348,5.0193,5.2149,5.3006,5.3796,5.4629,5.6408,5.7921,5.8961,5.9099,5.9099,5.9099,5.9099,5.9099,5.9099,5.9099,5.9099,5.9099,5.9099,5.9099,5.9099,5.9099,5.9099,5.9099,5.9099,5.9099,5.9099,5.9099,5.9279,5.9608,5.9608,5.9787,6.0176,6.0864,6.1104,6.1104,6.1104,6.1104,6.1104,1.7675,1.7876,1.8063,1.8116,1.8384,1.8651,1.8891,1.9025,1.9305,1.9893,2.0174,2.0428,2.0722,2.0762,2.0994,2.1655,2.1915,2.2079,2.2134,2.2367,2.2399,2.2071,2.3738,2.568,2.7718,2.9538,3.1373,3.3418,3.3418,3.3418,3.3418,3.3418,3.3418,3.3418,3.3418,3.3476,3.3574,3.3926,3.4316,3.4668,3.4434,3.4375,3.4512,3.5156,3.5449,3.5566,3.5898,3.6016,3.6016,3.6016,3.6016,3.6016,3.6016,3.6016,3.6016,3.6016,3.6016,3.6016,3.6016,3.6016,3.6016,0.0,0.0,3.6403,0.0,0.0,0.0,3.9888,4.0148,4.0278,4.0666,4.0666,4.1264,4.2818,4.3411,4.4347,4.6117,4.7009,4.815,4.9646,5.0127,5.0842,5.2103,5.4036,5.6177,5.811,5.8367,5.8565,5.8919,5.9039,5.9099,5.9099,5.9099,5.9099,5.9099,5.9099,5.9099,5.9099,5.9099,5.9099,5.9099,5.9099,5.9099,5.9099,5.9099,5.9099,5.9099,5.9099,5.9099,5.9219,6.0296,6.0715,6.0715,6.0715,6.0715,6.0715,1.7996,1.8023,1.813,1.8397,1.8677,1.8878,1.8918,1.9359,1.9907,2.0508,2.0601,2.0735,2.1029,2.1056,2.1795,2.3725,2.3911,2.4044,2.4198,2.4257,2.3767,2.2352,2.4055,2.6036,2.8097,2.9795,3.1652,3.3418,3.3418,3.3418,3.3418,3.3418,3.3418,3.3418,3.3418,3.3633,3.4004,3.4043,3.4316,3.4726,3.5098,3.5469,3.5762,3.5488,3.5625,3.5957,3.5996,3.6016,3.6016,0.0,3.6016,3.6016,3.6016,3.6016,3.6016,3.6016,3.6016,3.6016,3.6016,3.6016,0.0,0.0,3.6016,0.0,3.6287,0.0,3.6403,3.6539,0.0,3.7059,3.8597,0.0,0.0,4.0576,4.2404,4.3712,4.3575,4.5255,4.6828,4.803,4.943,5.0366,5.0605,5.2041,5.3726,5.5285,5.5916,5.6815,5.8124,5.88,5.9099,5.9099,5.9099,5.9099,5.9099,5.9099,5.9099,5.9099,5.9099,5.9099,5.9099,5.9099,5.9099,5.9099,5.9099,5.9099,5.9099,5.9099,5.9099,5.9129,5.9279,5.9338,5.9338,5.9338,5.9338,5.9338,1.8076,1.8317,1.8597,1.8718,1.9118,1.9426,1.9426,1.9933,2.0401,2.0641,2.0975,2.1229,2.1349,2.151,2.242,2.4321,2.463,2.481,2.4945,2.4994,2.4376,2.2808,2.5441,2.7358,2.8163,3.0918,3.2638,3.3418,3.3418,3.3418,3.3418,3.3418,3.3418,3.3418,3.3418,3.3516,3.373,3.4219,3.4531,3.4766,3.5469,3.5859,3.5996,3.582,3.5859,3.6016,3.6016,3.6016,3.6016,0.0,3.6016,0.0,0.0,0.0,3.6016,3.6016,3.6016,3.6016,3.6016,0.0,0.0,0.0,0.0,0.0,3.6016,0.0,3.6016,3.6016,0.0,0.0,0.0,0.0,0.0,0.0,4.0146,4.0963,4.1926,4.2716,4.4295,4.6659,4.7561,4.848,4.9719,5.0452,5.1948,5.4696,5.5204,5.5925,5.7408,5.7782,5.7932,5.7932,5.8321,5.853,5.853,5.8919,5.9099,5.9099,5.9099,5.9099,5.9099,5.9099,5.9099,5.9099,5.9099,5.9099,5.9099,5.9099,5.9099,5.9099,5.9099,5.9099,5.9099,5.9099,5.9099,5.9099,1.833,1.8637,1.8971,1.9132,1.9519,1.9853,2.0013,2.0401,2.0735,2.0895,2.1283,2.1577,2.1657,2.2367,2.342,2.5298,2.6178,2.6628,2.6724,2.6814,2.6172,2.4467,2.7238,2.8952,2.8969,3.1835,3.3418,3.3418,3.3418,3.3418,3.3418,3.3418,3.3496,3.3594,3.3594,3.373,3.4004,3.4629,3.4961,3.5117,3.5762,3.6016,3.6016,3.6016,3.6016,3.6016,3.6016,3.6016,3.6016,3.6016,3.6016,0.0,3.6016,3.6016,3.6016,3.6016,3.6016,3.6016,3.6016,0.0,0.0,0.0,0.0,0.0,0.0,0.0,0.0,0.0,3.6016,0.0,0.0,0.0,3.6364,3.7545,0.0,3.8951,4.0103,4.0835,4.2328,4.5281,4.6059,4.6907,4.8432,4.8603,4.9907,5.2939,5.3692,5.4685,5.6137,5.6765,5.7094,5.7094,5.7573,5.7842,5.7842,5.8321,5.856,5.856,5.874,5.883,5.883,5.9009,5.9099,5.9099,5.9099,5.9099,5.9099,5.9099,5.9099,5.9099,5.9099,5.9099,5.9099,5.9099,5.9099,5.9099,1.8891,1.8905,1.9105,1.9666,1.9786,2.0,2.0561,2.0668,2.0882,2.1456,2.1537,2.1657,2.1937,2.3508,2.5298,2.744,2.916,3.0356,3.0606,3.0642,2.9865,2.8163,2.9735,3.0789,3.0678,3.2511,3.3418,3.3418,3.3418,3.3418,3.3418,3.3418,3.3652,3.4043,3.4043,3.4531,3.5332,3.5351,3.5605,3.5976,3.6016,3.6016,3.6016,3.6016,3.6016,3.6016,3.6016,0.0,0.0,3.6016,3.6016,0.0,0.0,0.0,0.0,0.0,0.0,0.0,0.0,0.0,0.0,3.6016,0.0,0.0,0.0,0.0,3.6016,0.0,0.0,0.0,3.6016,3.6016,3.5879,3.5603,3.731,0.0,0.0,3.9864,4.182,4.3606,4.5281,4.6326,4.6446,4.6446,4.7019,4.8584,5.0671,5.2463,5.3884,5.5942,5.7094,5.7094,5.7124,5.7124,5.7124,5.7154,5.7154,5.7154,5.7842,5.8141,5.8171,5.88,5.9099,5.9099,5.9099,5.9099,5.9099,5.9099,5.9099,5.9099,5.9099,5.9099,5.9099,5.9099,5.9099,5.9099,1.9506,1.9653,1.98,1.98,2.012,2.0508,2.0909,2.1136,2.182,2.3148,2.2655,2.3064,2.5497,2.5449,2.6393,2.9526,3.0316,3.0755,3.0771,2.9735,2.8821,2.818,2.8821,2.9605,3.0789,3.2492,3.3418,3.3418,3.3418,3.3418,3.3437,3.3711,3.3926,3.4082,3.4355,3.4648,3.4961,3.5254,3.5469,3.5625,3.5898,3.6016,3.6016,0.0,3.6016,3.6016,3.6016,3.6016,0.0,3.6016,3.6016,3.6016,3.6016,3.6016,3.6016,3.6016,3.6016,0.0,0.0,0.0,3.6016,3.6016,0.0,0.0,0.0,0.0,0.0,0.0,0.0,0.0,0.0,3.5801,3.5566,3.541,3.5766,3.5982,0.0,3.744,3.8806,3.9418,4.2537,4.462,4.462,4.5671,4.6874,4.8416,4.9152,5.0709,5.3144,5.4013,5.4818,5.5837,5.6256,5.6466,5.6466,5.6885,5.7094,5.7094,5.7334,5.7453,5.7453,5.7663,5.7782,5.7782,5.7782,5.7782,5.7782,5.7782,5.7782,5.7782,5.7782,5.7782,5.7872,5.877,5.9099,5.9099,1.9933,2.0187,2.0334,2.0147,2.0508,2.0935,2.1216,2.1929,2.3007,2.4366,2.4378,2.5201,2.767,2.7621,2.8279,3.0642,3.1433,3.1689,3.1689,3.066,3.0012,3.0012,3.0012,3.0531,0.0,3.2892,3.3418,3.3418,3.3418,3.3496,3.3652,3.3945,3.4238,3.4551,3.4824,3.5019,3.5195,3.5488,3.5605,3.5644,3.5918,3.6016,3.6016,0.0,3.6016,3.6016,0.0,3.6016,3.6016,3.6016,3.6016,3.6016,3.6016,3.6016,3.6016,3.6016,3.6016,3.6016,3.6016,3.6016,0.0,3.6016,3.6016,0.0,3.6016,0.0,0.0,0.0,0.0,0.0,0.0,3.5547,3.5195,3.5371,3.5,3.4707,0.0,3.569,3.6316,3.6316,4.0018,4.2825,4.3445,4.4646,4.5985,4.7652,4.821,4.9308,5.1291,5.1835,5.2857,5.4406,5.482,5.5264,5.5837,5.6226,5.6406,5.6406,5.6645,5.6765,5.6765,5.7004,5.7094,5.7094,5.7094,5.7094,5.7094,5.7094,5.7094,5.7094,5.7094,5.7094,5.7184,5.8082,5.8381,5.8381,2.0201,2.0494,2.0708,2.0722,2.0949,2.1229,2.151,2.3078,2.4449,2.508,2.6727,2.7914,2.8393,2.9865,3.0771,3.09,3.2492,3.3418,3.3418,3.3292,3.3292,3.3418,3.3292,3.3292,3.3418,0.0,0.0,3.3418,3.3437,3.3672,3.4082,3.4121,3.459,3.5391,3.541,3.5644,3.6016,3.6016,3.6016,3.6016,3.6016,3.6016,3.6016,3.6016,3.6016,3.6016,3.6016,3.6016,3.6016,3.6016,3.6016,3.6016,3.6016,3.6016,3.6016,3.6016,3.6016,3.6016,3.6016,3.6016,3.6016,3.6016,0.0,0.0,0.0,0.0,3.6016,0.0,0.0,0.0,0.0,0.0,3.4844,3.5254,3.4941,3.4629,3.4629,3.4629,3.4629,3.4629,3.804,4.1001,4.28,4.3398,4.4326,4.613,4.7626,4.8416,4.8532,4.9847,5.1263,5.2857,5.2857,5.3623,5.5078,5.5078,5.5078,5.5209,5.5837,5.6137,5.6137,5.6735,5.7004,5.7004,5.7004,5.7004,5.7004,5.7004,5.7004,5.7004,5.7004,5.7004,5.7004,5.7064,5.7094,5.7094,2.0548,2.0802,2.1069,2.1296,2.139,2.147,2.1537,2.345,2.5352,2.6825,2.7605,2.9111,3.1835,3.1304,3.1304,3.2619,3.3165,3.3418,3.3418,3.2218,3.2091,3.3292,3.2091,3.2091,3.3418,3.3418,3.3418,3.3418,3.375,3.3965,3.4082,3.4746,3.5176,3.541,3.5723,3.5918,3.6016,3.6016,3.6016,3.6016,3.6016,3.6016,3.6016,0.0,3.6016,3.6016,3.6016,3.6016,3.6016,3.6016,3.6016,3.6016,3.6016,3.6016,3.6016,3.6016,3.6016,3.6016,3.6016,3.6016,3.6016,3.6016,3.6016,3.6016,0.0,0.0,0.0,0.0,0.0,0.0,0.0,0.0,3.4629,3.4453,3.4043,3.375,3.375,3.375,3.375,3.375,3.5995,3.8385,4.0354,4.2216,4.3917,4.5579,4.6408,4.7298,4.8416,0.0,4.9734,5.1263,5.1263,5.2051,5.3518,5.3518,5.4068,5.5179,5.5359,5.5448,5.5448,5.5598,5.5688,5.5688,5.5688,5.5688,5.5688,5.5688,5.5688,5.5688,5.5688,5.5688,5.5807,5.6735,5.7094,5.7094,2.0842,2.1096,2.1605,2.2524,2.2905,2.3074,2.3074,2.4276,2.5727,2.7703,2.8685,3.0125,3.2091,3.2091,3.2365,3.3292,3.3418,3.3418,3.3418,3.2492,3.2365,3.3418,3.2492,3.2365,3.3418,3.3418,0.0,3.3711,3.3945,3.4258,3.4668,3.5156,3.5488,3.5684,3.5918,3.6016,3.6016,3.6016,3.6016,3.6016,3.6016,3.6016,0.0,3.6016,3.6016,3.6016,3.6016,3.6016,3.6016,3.6016,3.6016,3.6016,3.6016,3.6016,3.6016,3.6016,3.6016,3.6016,3.6016,3.6016,3.6016,3.6016,3.6016,3.6016,3.6016,3.6016,3.5976,0.0,0.0,0.0,0.0,0.0,0.0,3.3828,3.3574,3.3418,3.3418,3.3418,3.3418,3.3418,3.4372,3.5832,3.7805,4.0808,4.312,4.4007,4.5017,4.6003,4.7147,0.0,4.7922,4.9707,4.9734,5.0491,5.1943,5.1943,5.2722,5.42,5.3518,5.3935,5.5179,5.4509,5.4641,5.5179,5.5179,5.5179,5.5179,5.5179,5.5179,5.5179,5.5179,5.5179,5.5269,5.5987,5.6256,5.6256,2.1109,2.1632,2.2465,2.3917,2.491,2.5565,2.5859,2.5874,2.6509,2.8262,2.9995,3.1176,3.1176,3.2492,3.3418,3.3418,3.3418,3.3418,3.3418,3.3418,3.3418,3.3418,3.3418,3.3418,3.3418,3.3418,3.3633,3.4082,3.4121,3.457,3.5391,3.5449,3.5664,3.6016,3.6016,3.6016,3.6016,3.6016,3.6016,3.6016,3.6016,3.6016,3.6016,3.6016,3.6016,3.6016,3.6016,3.6016,3.6016,3.6016,3.6016,3.6016,3.6016,3.6016,3.6016,3.6016,3.6016,3.6016,3.6016,3.6016,3.6016,3.6016,3.6016,3.5996,3.5957,3.5937,3.582,3.5391,3.498,3.4687,0.0,0.0,0.0,3.365,3.365,3.3776,3.4027,3.3902,3.365,3.365,3.3902,0.0,3.5437,3.903,4.1563,4.1827,4.3232,4.4351,4.5085,0.0,4.6019,4.7948,4.7974,4.8725,5.0133,0.0,5.1042,5.2607,5.1344,5.2051,5.4509,5.3279,5.3413,5.4611,5.4611,5.4743,5.4875,5.4875,5.5078,5.5179,5.4976,5.5078,5.5179,5.5179,5.5179,5.5179,2.1416,2.2766,2.3976,2.477,2.6241,2.7847,2.9578,2.976,2.9907,3.0236,3.1835,3.2892,3.2892,3.3165,3.3418,3.3418,3.3418,3.3418,3.3418,0.0,0.0,3.3418,3.3418,3.3418,3.3418,3.3418,3.3633,3.4082,3.4414,3.4863,3.541,3.5742,3.5957,3.6016,3.6016,3.6016,3.6016,3.6016,3.6016,3.6016,3.6016,3.6016,3.6016,3.6016,3.6016,3.6016,3.6016,3.6016,3.6016,3.6016,3.6016,3.6016,3.6016,3.6016,3.6016,3.6016,3.6016,3.6016,3.6016,3.6016,3.6016,3.6016,3.6016,3.5937,3.5586,3.5508,3.5371,3.4922,3.4766,3.459,3.4238,0.0,0.0,0.0,0.0,0.0,0.0,3.6173,3.5335,3.5335,3.6539,3.6417,3.4007,3.6185,3.8218,3.9439,4.0312,4.1341,4.2808,0.0,4.357,0.0,4.5244,0.0,0.0,0.0,4.9003,5.0401,5.0574,5.0933,5.1481,5.1263,5.1263,5.1481,5.1481,5.2159,5.3413,5.3413,5.4068,5.5078,5.386,5.4068,5.5179,5.5179,5.5179,5.5179,2.4247,2.5339,2.6312,2.7553,2.8544,2.9655,3.0606,3.1561,3.1835,3.09,3.1561,3.2091,3.2091,3.2892,3.3418,3.3418,3.3418,3.3418,3.3418,3.3418,3.3418,3.3418,3.3418,3.3418,3.3418,3.3418,3.375,3.4394,3.4609,3.5059,3.5723,3.5918,3.6016,3.6016,3.6016,3.6016,3.6016,3.6016,0.0,3.6016,3.6016,3.6016,3.6016,3.6016,3.6016,3.6016,3.6016,3.6016,3.6016,3.6016,3.6016,3.6016,3.6016,3.6016,3.6016,3.6016,3.6016,3.6016,3.6016,3.6016,3.6016,3.6016,3.5859,3.5644,3.543,3.5215,3.4902,3.4473,3.4375,3.4238,3.3809,3.4167,0.0,0.0,0.0,0.0,0.0,3.7023,3.7002,3.7002,3.7746,3.7265,3.486,3.5645,3.6881,3.8462,3.9625,4.1094,4.2983,0.0,4.3597,0.0,0.0,0.0,0.0,0.0,0.0,4.8298,4.7787,4.8369,4.9801,4.9035,4.9145,4.991,4.991,5.0341,5.1038,5.1243,5.1982,5.2828,5.2051,5.2722,5.4068,5.4068,5.4509,5.5179,2.6886,2.7805,2.8682,3.0048,3.0956,3.1304,3.1304,3.2492,3.2892,3.1561,3.1304,3.1304,3.1304,3.2619,3.3418,3.3418,3.3418,3.3418,3.3418,3.3418,3.3418,3.3418,3.3418,3.3418,3.3418,3.3516,3.3926,0.0,0.0,3.5215,3.5879,3.5976,3.6016,3.6016,3.6016,0.0,0.0,0.0,3.6016,3.6016,3.6016,3.6016,3.6016,3.6016,3.6016,3.6016,3.6016,3.6016,3.6016,3.6016,3.6016,3.6016,3.6016,3.6016,3.6016,3.6016,3.6016,3.6016,3.6016,3.5957,3.5879,3.5879,3.5566,3.5215,3.5137,3.4824,3.4453,3.4023,3.3945,3.3828,3.3496,3.3902,0.0,0.0,0.0,0.0,0.0,3.7604,3.8223,3.8223,3.7865,3.7122,3.5928,3.5437,3.6051,3.8104,3.9053,4.0526,4.2512,4.2905,4.3472,0.0,0.0,4.4267,4.4267,0.0,4.4992,0.0,4.5119,4.5804,4.8083,4.6901,4.7012,4.8192,4.8192,4.83,4.8651,4.9117,4.9693,5.0326,4.9996,5.0791,5.2137,5.2137,5.3111,5.4327,2.7503,2.9015,3.0302,3.0663,3.2072,3.3165,3.3165,3.3292,3.3292,3.3165,3.3165,3.3165,3.3165,3.3292,3.3418,3.3418,3.3418,3.3418,3.3418,3.3418,3.3418,3.3418,3.3418,3.3418,3.3418,3.3809,3.4238,0.0,0.0,3.5371,3.5469,3.584,3.6016,3.6016,0.0,0.0,0.0,3.6016,3.6016,3.6016,3.6016,3.6016,3.6016,3.6016,3.6016,3.6016,3.6016,3.6016,3.6016,3.6016,3.6016,3.6016,3.6016,3.6016,3.6016,3.6016,3.6016,3.6016,3.6016,3.5742,3.5449,3.5449,3.5098,3.4668,3.4277,3.416,3.4004,3.3574,3.3476,3.3476,3.3437,3.5827,3.7265,0.0,0.0,0.0,0.0,0.0,3.8223,3.8223,3.6881,3.5928,3.5806,3.4487,3.486,3.7985,3.7002,3.7023,3.8648,4.0083,4.1631,4.3137,0.0,4.3137,4.3137,4.3639,0.0,4.4093,4.4508,4.4734,4.5055,4.485,4.485,4.5055,4.5055,4.583,4.715,4.7176,4.8001,4.9111,4.7835,4.8137,4.9431,4.9431,5.0275,5.1439,0.0,3.0938,0.0,0.0,0.0,0.0,0.0,3.3418,3.3418,3.3418,3.3418,3.3418,3.3418,3.3418,3.3418,3.3418,3.3418,3.3418,3.3418,3.3418,3.3418,3.3418,3.3418,3.3535,3.3809,3.3984,3.4414,0.0,0.0,0.0,3.5781,3.5937,3.6016,0.0,0.0,3.6016,3.6016,3.6016,3.6016,3.6016,3.6016,3.6016,3.6016,3.6016,3.6016,3.6016,3.6016,3.6016,3.6016,3.6016,3.6016,3.6016,3.6016,3.6016,3.6016,3.6016,3.6016,3.5957,3.5723,3.5527,3.5332,3.5039,3.4648,3.4277,3.4121,3.3867,3.3633,3.3457,3.3418,3.3418,3.3418,3.4507,3.5108,0.0,0.0,0.0,0.0,0.0,3.9639,3.9639,3.903,3.8676,3.8676,3.7265,3.6417,3.6781,3.6173,3.6881,3.9522,4.0245,4.1305,4.2986,0.0,4.2986,4.2986,4.3187,4.3313,4.3313,4.3539,4.3639,4.3639,4.3639,4.3639,4.3639,4.3639,4.413,4.5001,4.5001,4.5633,4.6369,4.5716,4.6481,4.7783,4.7783,4.913,5.1135,3.1505,0.0,3.3418,0.0,3.3418,3.3418,3.3418,3.3418,3.3418,3.3418,3.3418,3.3418,3.3418,3.3418,3.3418,3.3418,3.3418,3.3418,3.3418,3.3418,3.3418,3.3418,3.3418,0.0,3.4062,3.4199,3.4629,3.5391,3.5527,0.0,0.0,0.0,0.0,0.0,3.6016,3.6016,3.6016,3.6016,3.6016,3.6016,3.6016,3.6016,3.6016,3.6016,3.6016,3.6016,3.6016,3.6016,3.6016,3.6016,3.6016,3.6016,3.6016,3.6016,3.6016,3.6016,3.5937,3.5762,3.5469,3.5195,3.4922,3.459,3.4199,3.3887,3.3887,3.3633,3.3418,3.3418,3.3418,3.3418,3.3418,3.3776,3.4133,3.4133,0.0,0.0,0.0,3.8912,4.0245,3.9265,3.9147,3.9405,3.9873,3.8439,3.7363,3.7243,3.676,3.7484,3.9756,4.0361,0.0,0.0,0.0,0.0,0.0,4.2986,4.2986,4.2986,4.2986,4.2986,4.2986,4.2986,4.2986,4.2986,4.2986,4.3187,4.3564,4.3564,4.379,4.4141,4.4141,4.4801,4.5761,4.5761,4.7217,4.9333,3.3418,3.3418,3.3418,3.3418,3.3418,3.3418,3.3418,3.3418,3.3418,3.3418,3.3418,3.3418,3.3418,3.3418,3.3418,3.3418,3.3418,3.3418,3.3418,3.3418,3.3418,0.0,0.0,3.3633,3.4062,3.4473,3.4922,3.5391,0.0,0.0,3.541,0.0,3.5625,3.6016,3.6016,3.6016,3.6016,3.6016,3.6016,3.6016,3.6016,3.6016,3.6016,3.6016,3.6016,3.6016,3.6016,3.6016,3.6016,3.6016,3.6016,3.6016,3.6016,3.6016,3.6016,3.6016,3.5723,3.541,3.5391,3.4746,3.4082,3.4082,3.375,3.3437,3.3437,3.3418,3.3418,3.3418,3.3418,3.3418,3.3418,3.4736,3.5806,3.5806,0.0,0.0,0.0,3.9522,0.0,3.6274,3.5806,3.6517,3.8104,3.676,3.7122,4.0361,0.0,0.0,0.0,0.0,0.0,4.2986,4.2986,0.0,4.2986,4.2986,4.2986,4.2986,4.2986,4.2986,4.2986,4.2986,4.2986,4.2986,4.2986,4.2986,4.2986,4.2986,4.2986,4.2986,4.2986,4.2986,4.2986,4.2986,4.3932,4.5262,3.3418,3.3418,3.3418,3.3418,3.3418,3.3418,3.3418,3.3418,3.3418,3.3418,3.3418,3.3418,3.3418,3.3418,3.3418,0.0,3.3418,3.3418,0.0,3.3418,3.3418,3.3418,3.3711,3.4062,3.4492,3.4941,3.5391,3.582,0.0,0.0,0.0,3.582,3.5898,3.6016,3.6016,3.6016,3.6016,3.6016,3.6016,3.6016,3.6016,3.6016,3.6016,3.6016,3.6016,3.6016,3.6016,3.6016,3.6016,3.6016,3.6016,3.5976,3.5684,3.5586,3.5586,3.5586,3.5273,3.4863,3.457,3.4277,3.4004,3.3711,3.3516,3.3418,3.3418,3.3418,3.3418,3.3418,3.3418,3.3776,3.484,3.4612,3.486,3.7144,3.8342,0.0,0.0,0.0,3.9756,3.7723,3.8439,3.9756,4.1305,3.9989,3.903,0.0,0.0,0.0,0.0,0.0,0.0,0.0,4.2986,0.0,4.2986,4.2986,4.2986,4.2986,4.2986,4.2986,4.2986,4.2986,4.2986,4.2986,4.2986,4.2986,4.2986,4.2986,4.2986,4.2986,4.2986,4.2986,4.2986,4.2986,4.4427,4.6474,3.3418,3.3418,3.3418,3.3418,3.3418,3.3418,3.3418,3.3418,3.3418,3.3418,3.3418,3.3418,3.3418,3.3418,0.0,3.3418,3.3418,3.3418,3.3418,3.3418,3.3418,3.3418,3.3848,3.4277,3.4687,0.0,0.0,3.6016,3.6016,3.6016,3.6016,3.6016,3.6016,3.6016,3.6016,3.6016,3.6016,3.6016,3.6016,3.6016,3.6016,3.6016,3.6016,3.6016,3.6016,3.6016,3.6016,3.6016,3.5996,3.584,3.5781,3.5703,3.5273,3.5019,3.4922,3.5078,3.4824,3.4414,3.4141,3.3945,3.3769,3.3496,3.3418,3.3418,3.3418,3.3418,3.3418,3.3418,3.3418,3.3902,3.5437,3.4487,3.4632,3.8461,3.858,3.8104,3.7604,0.0,4.0707,0.0,0.0,0.0,0.0,4.1191,4.0476,0.0,0.0,0.0,0.0,0.0,0.0,4.2961,4.2986,0.0,4.2986,4.2986,4.2986,4.2986,4.2986,4.2986,4.2986,4.2986,4.2986,4.2986,4.2986,4.2986,4.2986,4.2986,4.2986,4.2986,4.2986,4.2986,4.2986,4.2986,4.4427,4.637,3.3418,3.3418,0.0,0.0,3.3418,0.0,3.3418,3.3418,3.3418,3.3418,3.3418,3.3418,3.3418,3.3418,3.3418,3.3418,0.0,0.0,0.0,3.3418,3.3418,3.3418,3.3867,3.4297,3.4687,3.5176,3.5625,3.6016,3.6016,3.6016,3.6016,3.6016,3.6016,3.6016,3.6016,3.6016,3.6016,3.6016,3.6016,3.6016,3.6016,3.6016,3.6016,3.6016,3.6016,3.6016,3.5996,3.5976,3.5918,3.5488,3.5351,3.5273,3.4805,3.4394,3.4141,3.4531,3.4355,3.4023,3.4023,3.373,3.3418,3.3418,3.3418,3.3418,3.3418,3.3418,3.3418,3.3418,3.3418,3.3902,3.5437,3.4612,3.5088,3.9873,3.9288,3.8817,4.0361,0.0,4.1672,0.0,0.0,0.0,0.0,4.0707,4.1305,0.0,4.2849,0.0,0.0,0.0,3.9756,4.2849,4.2986,4.2986,4.2986,4.2986,4.2986,4.2986,4.2986,4.2986,4.2986,4.2986,4.2986,4.2986,4.2986,4.2986,4.2986,4.2986,4.2986,4.2986,4.2986,4.2986,4.2986,4.2986,4.3907,4.5342,0.0,0.0,3.3418,3.3418,3.3418,3.3418,3.3418,3.3418,3.3418,3.3418,3.3418,3.3418,3.3418,3.3418,3.3418,3.3418,3.3418,3.3418,3.3418,3.3418,3.3418,3.3418,3.4141,3.459,3.4707,3.5469,3.5918,3.6016,3.6016,3.6016,3.6016,3.6016,3.6016,3.6016,3.6016,3.6016,3.6016,3.6016,3.6016,3.6016,3.6016,3.6016,3.6016,3.6016,3.6016,3.5976,3.5664,3.5547,3.5469,3.5019,3.4863,3.4785,3.4355,3.416,3.4082,3.4199,3.3906,3.3574,3.3574,3.3496,3.3418,3.3418,3.3418,3.3418,3.3418,3.3418,3.3418,3.3418,3.3418,3.3902,3.5437,3.5437,3.6396,3.9989,3.9288,3.8817,4.0361,4.0961,0.0,0.0,4.1419,4.2375,4.2375,4.2375,4.2012,0.0,0.0,0.0,0.0,4.0476,4.0961,4.2961,4.2986,4.2986,4.2986,4.2986,4.2986,4.2986,4.2986,4.2986,4.2986,4.2986,4.2986,4.2986,4.2986,4.2986,4.2986,4.2986,4.2986,4.2986,4.2986,4.2986,4.2986,4.2986,4.4535,4.6682,3.3418,3.3418,3.3418,3.3418,3.3418,3.3418,3.3418,3.3418,3.3418,3.3418,3.3418,3.3418,3.3418,3.3418,3.3418,3.3418,3.3418,3.3418,3.3418,3.3418,3.3418,3.3418,3.4238,3.4707,3.4707,3.5566,3.6016,3.6016,3.6016,3.6016,3.6016,3.6016,3.6016,3.6016,3.6016,3.6016,3.6016,3.6016,3.6016,3.6016,3.6016,3.6016,3.6016,3.6016,3.5898,3.5703,3.5469,3.5254,3.5,3.457,3.4414,3.4336,3.3906,3.3769,3.3769,3.3769,3.3613,3.3418,3.3418,3.3418,3.3418,3.3418,3.3418,3.3418,3.3418,3.3418,3.3418,3.3418,3.3418,3.4133,3.6417,3.5683,3.6051,3.9989,3.9288,3.8817,4.0361,4.1191,0.0,4.1672,4.2488,4.2986,4.2986,4.2986,4.2625,4.1785,0.0,0.0,4.1672,4.1672,4.215,4.2986,4.2986,4.2986,4.2986,4.2986,4.2986,4.2986,4.2986,4.2986,4.2986,4.2986,4.2986,4.2986,4.2986,4.2986,4.2986,4.2986,4.2986,4.2986,4.2986,4.2986,4.2986,4.2986,4.4318,4.6265,3.3418,3.3418,3.3418,3.3418,3.3418,3.3418,3.3418,3.3418,3.3418,3.3418,3.3418,3.3418,3.3418,3.3418,3.3418,3.3418,3.3418,3.3418,3.3418,3.3418,3.3418,3.3418,3.418,3.4629,3.4707,3.5566,3.6016,3.6016,3.6016,3.6016,3.6016,3.6016,3.6016,3.6016,3.6016,3.6016,3.6016,3.6016,3.6016,3.6016,3.6016,3.5976,3.5918,3.5918,3.5664,3.5273,3.5215,3.4941,3.4531,3.4121,3.3965,3.3906,3.3535,3.3418,3.3418,3.3418,3.3418,3.3418,3.3418,3.3418,3.3418,3.3418,3.3418,3.3418,3.3418,3.3418,3.3418,3.3418,3.3544,3.4507,3.7023,3.5581,3.5335,3.9265,3.8935,3.8817,4.0361,0.0,4.2737,4.2986,4.2986,4.2986,4.2986,4.2986,4.2986,4.2986,4.2986,4.2986,0.0,4.2986,4.2986,4.2986,4.2986,4.2986,4.2986,4.2986,4.2986,4.2986,4.2986,4.2986,4.2986,4.2986,4.2986,4.2986,4.2986,4.2986,4.2986,4.2986,4.2986,4.2986,4.2986,4.2986,4.2986,4.2986,4.4016,4.5449,3.3418,3.3418,3.3418,3.3418,3.3418,3.3418,3.3418,3.3418,3.3418,3.3418,3.3418,3.3418,3.3418,3.3418,3.3418,3.3418,3.3418,3.3418,3.3418,3.3418,3.3418,3.3418,3.3906,3.4336,3.4687,3.5566,3.6016,3.6016,3.6016,3.6016,3.6016,3.6016,3.6016,3.6016,3.6016,3.6016,3.6016,3.6016,3.6016,3.6016,3.6016,3.5801,3.5488,3.5488,3.5215,3.4766,3.4394,3.4238,3.4101,3.3672,3.3516,3.3516,3.3437,3.3418,3.3418,3.3418,3.3418,3.3418,3.3418,3.3418,3.3418,3.3418,3.3418,3.3418,3.3418,3.3418,3.3418,3.3418,3.4487,3.5211,3.4258,3.5949,3.7265,3.6639,3.7506,3.8817,4.0361,0.0,4.1419,4.2849,4.2986,4.2986,4.2986,4.2986,4.2986,4.2986,4.2986,4.2986,4.2986,4.2986,4.2986,4.2986,4.2986,4.2986,4.2986,4.2986,4.2986,4.2986,4.2986,4.2986,4.2986,4.2986,4.2986,4.2986,4.2986,4.2986,4.2986,4.2986,4.2986,4.2986,4.2986,4.2986,4.2986,4.2986,4.4643,4.6785,3.3418,3.3418,3.3418,3.3418,3.3418,3.3418,3.3418,3.3418,3.3418,3.3418,3.3418,3.3418,3.3418,3.3418,3.3418,3.3418,3.3418,3.3418,3.3418,3.3418,3.3418,3.3418,3.3848,3.4394,3.5059,3.5469,3.5801,3.6016,3.6016,3.6016,3.6016,3.6016,3.6016,3.6016,3.6016,3.6016,3.5996,3.5781,3.5684,3.5664,3.541,3.5195,3.5019,3.5019,3.4746,3.4336,3.4141,3.3926,3.3691,3.3496,3.3418,3.3418,3.3418,3.3418,3.3418,3.3418,3.3418,3.3418,3.3418,3.3418,3.3418,3.3418,3.3418,3.3418,3.3418,3.3418,3.3418,3.3418,3.4027,3.4487,3.4612,3.5211,3.5949,3.6902,3.7746,0.0,0.0,4.0822,4.1899,4.1672,4.2488,4.2986,4.2986,4.2986,4.2986,4.2986,4.2986,4.2986,4.2986,4.2986,4.2986,4.2986,4.2986,4.2986,4.2986,4.2986,4.2986,4.2986,4.2986,4.2986,4.2986,4.2986,4.2986,4.2986,4.2986,4.2986,4.2986,4.2986,4.2986,4.2986,4.2986,4.2986,4.2986,4.2986,4.4209,4.6083,3.3418,3.3418,3.3418,3.3418,3.3418,3.3418,3.3418,3.3418,3.3418,3.3418,3.3418,3.3418,3.3418,3.3418,3.3418,3.3418,3.3418,3.3418,3.3418,3.3418,3.3418,3.3418,3.3848,3.4394,3.5078,3.5176,3.5391,3.5723,3.582,3.5879,3.5879,3.5976,3.5976,3.5879,3.5879,3.582,3.5684,3.5371,3.5234,3.5195,3.4844,3.4648,3.4551,3.4551,3.4297,3.3926,3.3926,3.3711,3.3418,3.3418,3.3418,3.3418,3.3418,3.3418,3.3418,3.3418,3.3418,3.3418,3.3418,3.3418,3.3418,3.3418,3.3418,3.3418,3.3418,3.3418,3.3418,3.3418,3.365,3.4258,3.5088,3.486,3.5108,3.6781,0.0,0.0,0.0,4.0592,4.215,4.1305,4.2263,4.2986,4.2986,4.2986,4.2986,4.2986,4.2986,4.2986,4.2986,4.2986,4.2986,4.2986,4.2986,4.2986,4.2986,4.2986,4.2986,4.2986,4.2986,4.2986,4.2986,4.2986,4.2986,4.2986,4.2986,4.2986,4.2986,4.2986,4.2986,4.2986,4.2986,4.2986,4.3098,4.3406,4.4318,4.5661,3.3418,3.3418,3.3418,3.3418,3.3418,3.3418,3.3418,3.3418,3.3418,3.3418,3.3418,3.3418,3.3418,3.3418,3.3418,3.3418,3.3418,3.3418,3.3418,3.3418,3.3418,3.3418,3.3848,3.4101,3.416,3.4551,3.4766,3.4805,3.5234,3.543,3.5449,3.584,3.582,3.543,3.543,3.5195,3.4805,3.4766,3.4746,3.4746,3.4707,3.4473,3.4121,3.4121,3.3848,3.3476,3.3476,3.3457,3.3418,3.3418,3.3418,3.3418,3.3418,3.3418,3.3418,3.3418,3.3418,3.3418,3.3418,3.3418,3.3418,3.3418,3.3418,3.3418,3.3418,3.3418,3.3418,3.3418,3.4612,3.5211,3.3776,3.5949,3.6902,3.4133,0.0,0.0,3.8223,3.9639,4.1305,4.2625,4.2961,4.2986,4.2986,4.2986,4.2986,4.2986,4.2986,4.2986,4.2986,4.2986,4.2986,4.2986,4.2986,4.2986,4.2986,4.2986,4.2986,4.2986,4.2986,4.2986,4.2986,4.2986,4.2986,4.2986,4.2986,4.2986,4.2986,4.2986,4.2986,4.2986,4.2986,4.2986,4.3184,4.4427,4.5767,4.7094,3.3418,3.3418,3.3418,3.3418,3.3418,3.3418,3.3418,3.3418,3.3418,3.3418,3.3418,3.3418,3.3418,3.3418,3.3418,3.3418,3.3418,3.3418,3.3418,3.3418,3.3418,3.3418,3.3574,3.3789,3.4062,3.4219,3.4434,3.4707,3.4883,3.4961,3.4961,3.5117,3.5117,3.4961,3.4961,3.4863,3.4687,3.4414,3.4316,3.4297,3.4023,3.3809,3.3672,3.3672,3.3574,3.3418,3.3418,3.3418,3.3418,3.3418,3.3418,3.3418,3.3418,3.3418,3.3418,3.3418,3.3418,3.3418,3.3418,3.3418,3.3418,3.3418,3.3418,3.3418,3.3418,3.3418,3.3418,3.3418,3.3902,3.4133,3.3544,3.4383,3.5108,3.4964,0.0,3.8223,3.8223,4.0476,4.1899,4.1558,4.2375,4.2986,4.2986,4.2986,4.2986,4.2986,4.2986,4.2986,4.2986,4.2986,4.2986,4.2986,4.2986,4.2986,4.2986,4.2986,4.2986,4.2986,4.2986,4.2986,4.2986,4.2986,4.2986,4.2986,4.2986,4.2986,4.2986,4.2986,4.2986,4.2986,4.2986,4.2986,4.3073,4.3602,4.5155,4.7197,3.3418,3.3418,3.3418,3.3418,3.3418,3.3418,3.3418,3.3418,3.3418,3.3418,3.3418,3.3418,3.3418,3.3418,3.3418,3.3418,3.3418,3.3418,3.3418,3.3418,3.3418,3.3418,3.3418,3.3555,3.3867,3.3867,3.4004,3.4297,3.4434,3.4492,3.4512,3.4629,3.4629,3.4492,3.4492,3.4434,3.4277,3.3984,3.3867,3.3848,3.3535,3.3418,3.3418,3.3418,3.3418,3.3418,3.3418,3.3418,3.3418,3.3418,3.3418,3.3418,3.3418,3.3418,3.3418,3.3418,3.3418,3.3418,3.3418,3.3418,3.3418,3.3418,3.3418,3.3418,3.3418,3.3418,3.3418,3.3418,3.3418,3.3418,3.3418,3.3776,3.4383,3.4964,3.6781,3.7985,3.7506,3.9756,4.1305,4.0707,4.1533,4.2488,4.2961,4.2986,4.2986,4.2986,4.2986,4.2986,4.2986,4.2986,4.2986,4.2986,4.2986,4.2986,4.2986,4.2986,4.2986,4.2986,4.2986,4.2986,4.2986,4.2986,4.2986,4.2986,4.2986,4.2986,4.2986,4.2986,4.2986,4.2986,4.2986,4.2986,4.3073,4.3492,4.5155,4.7197,3.3418,3.3418,3.3418,3.3418,3.3418,3.3418,3.3418,3.3418,3.3418,3.3418,3.3418,3.3418,3.3418,3.3418,3.3418,3.3418,3.3418,3.3418,3.3418,3.3418,3.3418,3.3418,3.3418,3.3418,3.3418,3.3418,3.3418,3.3418,3.3848,3.4062,3.4082,3.4492,3.4473,3.4062,3.4062,3.3828,3.3418,3.3418,3.3418,3.3418,3.3418,3.3418,3.3418,3.3418,3.3418,3.3418,3.3418,3.3418,3.3418,3.3418,3.3418,3.3418,3.3418,3.3418,3.3418,3.3418,3.3418,3.3418,3.3418,3.3418,3.3418,3.3418,3.3418,3.3418,3.3418,3.3418,3.3418,3.3418,3.3418,3.3418,3.3418,3.4736,3.5211,3.367,3.6072,3.7604,3.6051,3.7265,3.8817,4.0361,4.0592,4.1305,4.2849,4.2986,4.2986,4.2986,4.2986,4.2986,4.2986,4.2986,4.2986,4.2986,4.2986,4.2986,4.2986,4.2986,4.2986,4.2986,4.2986,4.2986,4.2986,4.2986,4.2986,4.2986,4.2986,4.2986,4.2986,4.2986,4.2986,4.2986,4.2986,4.2986,4.3184,4.4535,4.5872,4.7299,3.3418,3.3418,3.3418,3.3418,3.3418,3.3418,3.3418,3.3418,3.3418,3.3418,3.3418,3.3418,3.3418,3.3418,3.3418,3.3418,3.3418,3.3418,3.3418,3.3418,3.3418,3.3418,3.3418,3.3418,3.3418,3.3418,3.3418,3.3418,3.3555,3.3613,3.3613,3.375,3.373,3.3613,3.3613,3.3535,3.3418,3.3418,3.3418,3.3418,3.3418,3.3418,3.3418,3.3418,3.3418,3.3418,3.3418,3.3418,3.3418,3.3418,3.3418,3.3418,3.3418,3.3418,3.3418,3.3418,3.3418,3.3418,3.3418,3.3418,3.3418,3.3418,3.3418,3.3418,3.3418,3.3418,3.3418,3.3418,3.3418,3.3418,3.3418,3.3776,3.4027,3.3544,3.5088,3.6396,3.5928,3.8201,4.0105,4.0592,4.1558,4.2488,4.2961,4.2986,4.2986,4.2986,4.2986,4.2986,4.2986,4.2986,4.2986,4.2986,4.2986,4.2986,4.2986,4.2986,4.2986,4.2986,4.2986,4.2986,4.2986,4.2986,4.2986,4.2986,4.2986,4.2986,4.2986,4.2986,4.2986,4.2986,4.2986,4.2986,4.3184,4.4535,4.5872,4.7299,3.3418,3.3418,3.3418,3.3418,3.3418,3.3418,3.3418,3.3418,3.3418,3.3418,3.3418,3.3418,3.3418,3.3418,3.3418,3.3418,3.3418,3.3418,3.3418,3.3418,3.3418,3.3418,3.3418,3.3418,3.3418,3.3418,3.3418,3.3418,3.3418,3.3418,3.3418,3.3418,3.3418,3.3418,3.3418,3.3418,3.3418,3.3418,3.3418,3.3418,3.3418,3.3418,3.3418,3.3418,3.3418,3.3418,3.3418,3.3418,3.3418,3.3418,3.3418,3.3418,3.3418,3.3418,3.3418,3.3418,3.3418,3.3418,3.3418,3.3418,3.3418,3.3418,3.3418,3.3418,3.3418,3.3418,3.3418,3.3418,3.3418,3.3418,3.3418,3.3418,3.3418,3.3418,3.4736,3.556,3.4964,3.7122,3.8912,3.9522,4.0476,4.1558,4.2849,4.2986,4.2986,4.2986,4.2986,4.2986,4.2986,4.2986,4.2986,4.2986,4.2986,4.2986,4.2986,4.2986,4.2986,4.2986,4.2986,4.2986,4.2986,4.2986,4.2986,4.2986,4.2986,4.2986,4.2986,4.2986,4.2986,4.2986,4.2986,4.2986,4.3073,4.3907,4.5048,4.6474,3.3418,3.3418,3.3418,3.3418,3.3418,3.3418,3.3418,3.3418,3.3418,3.3418,3.3418,3.3418,3.3418,3.3418,3.3418,3.3418,3.3418,3.3418,3.3418,3.3418,3.3418,3.3418,3.3418,3.3418,3.3418,3.3418,3.3418,3.3418,3.3418,3.3418,3.3418,3.3418,3.3418,3.3418,3.3418,3.3418,3.3418,3.3418,3.3418,3.3418,3.3418,3.3418,3.3418,3.3418,3.3418,3.3418,3.3418,3.3418,3.3418,3.3418,3.3418,3.3418,3.3418,3.3418,3.3418,3.3418,3.3418,3.3418,3.3418,3.3418,3.3418,3.3418,3.3418,3.3418,3.3418,3.3418,3.3418,3.3418,3.3418,3.3418,3.3418,3.3418,3.3418,3.3418,3.4612,3.5088,3.367,3.4736,3.6295,3.7865,3.8223,3.9522,4.2488,4.2986,4.2986,4.2986,4.2986,4.2986,4.2986,4.2986,4.2986,4.2986,4.2986,4.2986,4.2986,4.2986,4.2986,4.2986,4.2986,4.2986,4.2986,4.2986,4.2986,4.2986,4.2986,4.2986,4.2986,4.2986,4.2986,4.2986,4.2986,4.2986,4.2986,4.3073,4.3907,4.5262,3.3418,3.3418,3.3418,3.3418,3.3418,3.3418,3.3418,3.3418,3.3418,3.3418,3.3418,3.3418,3.3418,3.3418,3.3418,3.3418,3.3418,3.3418,3.3418,3.3418,3.3418,3.3418,3.3418,3.3418,3.3418,3.3418,3.3418,3.3418,3.3418,3.3418,3.3418,3.3418,3.3418,3.3418,3.3418,3.3418,3.3418,3.3418,3.3418,3.3418,3.3418,3.3418,3.3418,3.3418,3.3418,3.3418,3.3418,3.3418,3.3418,3.3418,3.3418,3.3418,3.3418,3.3418,3.3418,3.3418,3.3418,3.3418,3.3418,3.3418,3.3418,3.3418,3.3418,3.3418,3.3418,3.3418,3.3418,3.3418,3.3418,3.3418,3.3418,3.3418,3.3418,3.3418,3.365,3.3776,3.3418,3.4736,3.5928,3.6295,3.8557,4.0361,4.1076,4.2263,4.2986,4.2986,4.2986,4.2986,4.2986,4.2986,4.2986,4.2986,4.2986,4.2986,4.2986,4.2986,4.2986,4.2986,4.2986,4.2986,4.2986,4.2986,4.2986,4.2986,4.2986,4.2986,4.2986,4.2986,4.2986,4.2986,4.2986,4.2986,4.3073,4.4209,4.4725,4.5342,3.3418,3.3418,3.3418,3.3418,3.3418,3.3418,3.3418,3.3418,3.3418,3.3418,3.3418,3.3418,3.3418,3.3418,3.3418,3.3418,3.3418,3.3418,3.3418,3.3418,3.3418,3.3418,3.3418,3.3418,3.3418,3.3418,3.3418,3.3418,3.3418,3.3418,3.3418,3.3418,3.3418,3.3418,3.3418,3.3418,3.3418,3.3418,3.3418,3.3418,3.3418,3.3418,3.3418,3.3418,3.3418,3.3418,3.3418,3.3418,3.3418,3.3418,3.3418,3.3418,3.3418,3.3418,3.3418,3.3418,3.3418,3.3418,3.3418,3.3418,3.3418,3.3418,3.3418,3.3418,3.3418,3.3418,3.3418,3.3418,3.3418,3.3418,3.3418,3.3418,3.3418,3.3418,3.3418,3.3418,3.3418,3.4133,3.4964,3.5683,3.7243,3.8557,3.9405,4.0961,4.1899,4.1899,4.2625,4.2986,4.2986,4.2986,4.2986,4.2986,4.2986,4.2986,4.2986,4.2986,4.2986,4.2986,4.2986,4.2986,4.2986,4.2986,4.2986,4.2986,4.2986,4.2986,4.2986,4.2986,4.2986,4.2986,4.2986,4.2986,4.3073,4.3797,4.4833,4.6188,3.3418,3.3418,3.3418,3.3418,3.3418,3.3418,3.3418,3.3418,3.3418,3.3418,3.3418,3.3418,3.3418,3.3418,3.3418,3.3418,3.3418,3.3418,3.3418,3.3418,3.3418,3.3418,3.3418,3.3418,3.3418,3.3418,3.3418,3.3418,3.3418,3.3418,3.3418,3.3418,3.3418,3.3418,3.3418,3.3418,3.3418,3.3418,3.3418,3.3418,3.3418,3.3418,3.3418,3.3418,3.3418,3.3418,3.3418,3.3418,3.3418,3.3418,3.3418,3.3418,3.3418,3.3418,3.3418,3.3418,3.3418,3.3418,3.3418,3.3418,3.3418,3.3418,3.3418,3.3418,3.3418,3.3418,3.3418,3.3418,3.3418,3.3418,3.3418,3.3418,3.3418,3.3418,3.3418,3.3418,3.3418,3.3418,3.3902,3.5211,3.5683,3.6517,3.8461,3.9756,4.0707,4.0961,4.2263,4.2986,4.2986,4.2986,4.2986,4.2986,4.2986,4.2986,4.2986,4.2986,4.2986,4.2986,4.2986,4.2986,4.2986,4.2986,4.2986,4.2986,4.2986,4.2986,4.2986,4.2986,4.2986,4.2986,4.2986,4.2986,4.2986,4.2986,4.4725,4.7094,3.3418,3.3418,3.3418,3.3418,3.3418,3.3418,3.3418,3.3418,3.3418,3.3418,3.3418,3.3418,3.3418,3.3418,3.3418,3.3418,3.3418,3.3418,3.3418,3.3418,3.3418,3.3418,3.3418,3.3418,3.3418,3.3418,3.3418,3.3418,3.3418,3.3418,3.3418,3.3418,3.3418,3.3418,3.3418,3.3418,3.3418,3.3418,3.3418,3.3418,3.3418,3.3418,3.3418,3.3418,3.3418,3.3418,3.3418,3.3418,3.3418,3.3418,3.3418,3.3418,3.3418,3.3418,3.3418,3.3418,3.3418,3.3418,3.3418,3.3418,3.3418,3.3418,3.3418,3.3418,3.3418,3.3418,3.3418,3.3418,3.3418,3.3418,3.3418,3.3418,3.3418,3.3418,3.3418,3.3418,3.3418,3.3418,3.3544,3.365,3.4964,3.7002,3.9989,4.0476,4.1191,4.2625,4.2849,4.2986,4.2986,4.2986,4.2986,4.2986,4.2986,4.2986,4.2986,4.2986,4.2986,4.2986,4.2986,4.2986,4.2986,4.2986,4.2986,4.2986,4.2986,4.2986,4.2986,4.2986,4.2986,4.2986,4.2986,4.2986,4.2986,4.2986,4.4725,4.6888,3.3418,3.3418,3.3418,3.3418,3.3418,3.3418,3.3418,3.3418,3.3418,3.3418,3.3418,3.3418,3.3418,3.3418,3.3418,3.3418,3.3418,3.3418,3.3418,3.3418,3.3418,3.3418,3.3418,3.3418,3.3418,3.3418,3.3418,3.3418,3.3418,3.3418,3.3418,3.3418,3.3418,3.3418,3.3418,3.3418,3.3418,3.3418,3.3418,3.3418,3.3418,3.3418,3.3418,3.3418,3.3418,3.3418,3.3418,3.3418,3.3418,3.3418,3.3418,3.3418,3.3418,3.3418,3.3418,3.3418,3.3418,3.3418,3.3418,3.3418,3.3418,3.3418,3.3418,3.3418,3.3418,3.3418,3.3418,3.3418,3.3418,3.3418,3.3418,3.3418,3.3418,3.3418,3.3418,3.3418,3.3418,3.3418,3.3418,3.3418,3.4027,3.4984,3.6417,3.7363,3.8557,4.0245,4.1191,4.2012,4.2961,4.2986,4.2986,4.2986,4.2986,4.2986,4.2986,4.2986,4.2986,4.2986,4.2986,4.2986,4.2986,4.2986,4.2986,4.2986,4.2986,4.2986,4.2986,4.2986,4.2986,4.2986,4.2986,4.2986,4.2986,4.2986,4.4209,4.5872]}]]